<?xml version="1.0" encoding="UTF-8" standalone="no" ?>
<gpx xmlns="http://www.topografix.com/GPX/1/1" xmlns:xsi="http://www.w3.org/2001/XMLSchema-instance" xsi:schemaLocation="http://www.topografix.com/GPX/1/1 http://www.topografix.com/GPX/1/1/gpx.xsd" version="1.1" creator="VisuGPX - https://www.visugpx.com">
  <metadata>
    <name>Ballade en Vélo entre Evreux et Conche V2</name>
    <desc><![CDATA[Nouveau circuit un plus plus long, très sympa. Petites route de campagnes sans circulation automobile.]]></desc>
  </metadata>
  <wpt lat="49.00243" lon="1.08928">
    <ele>120.77</ele>
    <name><![CDATA[001]]></name>
  </wpt>
  <wpt lat="38.85555" lon="-94.79902">
    <ele>3.01</ele>
    <name><![CDATA[GARMIN]]></name>
  </wpt>
  <wpt lat="50.98288" lon="-1.4639">
    <ele>3.01</ele>
    <name><![CDATA[GRMEUR]]></name>
  </wpt>
  <wpt lat="25.06178" lon="121.64027">
    <ele>3.01</ele>
    <name><![CDATA[GRMTWN]]></name>
  </wpt>
  <wpt lat="43.57746" lon="1.45163">
    <ele>97.22</ele>
    <name><![CDATA[MAP]]></name>
  </wpt>
  <trk>
    <name><![CDATA[ACTIVE LOG: 08 MAI 2011 08:23]]></name>
    <trkseg>
      <trkpt lat="49.00239" lon="1.08927">
        <ele>111.65</ele>
        <time>2011-05-08T06:23:08Z</time>
      </trkpt>
      <trkpt lat="49.00239" lon="1.08927">
        <ele>108.29</ele>
        <time>2011-05-08T06:23:13Z</time>
      </trkpt>
      <trkpt lat="49.00239" lon="1.08927">
        <ele>112.13</ele>
        <time>2011-05-08T06:23:14Z</time>
      </trkpt>
      <trkpt lat="49.0024" lon="1.08927">
        <ele>108.77</ele>
        <time>2011-05-08T06:23:18Z</time>
      </trkpt>
      <trkpt lat="49.00241" lon="1.08924">
        <ele>108.29</ele>
        <time>2011-05-08T06:23:27Z</time>
      </trkpt>
      <trkpt lat="49.00241" lon="1.08924">
        <ele>109.73</ele>
        <time>2011-05-08T06:23:31Z</time>
      </trkpt>
      <trkpt lat="49.00241" lon="1.08924">
        <ele>114.05</ele>
        <time>2011-05-08T06:23:41Z</time>
      </trkpt>
      <trkpt lat="49.00241" lon="1.08924">
        <ele>110.69</ele>
        <time>2011-05-08T06:23:42Z</time>
      </trkpt>
      <trkpt lat="49.00241" lon="1.08924">
        <ele>106.36</ele>
        <time>2011-05-08T06:23:54Z</time>
      </trkpt>
      <trkpt lat="49.00241" lon="1.08924">
        <ele>112.13</ele>
        <time>2011-05-08T06:23:55Z</time>
      </trkpt>
      <trkpt lat="49.00241" lon="1.08924">
        <ele>107.32</ele>
        <time>2011-05-08T06:23:56Z</time>
      </trkpt>
      <trkpt lat="49.00241" lon="1.08924">
        <ele>113.57</ele>
        <time>2011-05-08T06:24:01Z</time>
      </trkpt>
      <trkpt lat="49.00241" lon="1.08924">
        <ele>109.73</ele>
        <time>2011-05-08T06:24:02Z</time>
      </trkpt>
      <trkpt lat="49.00243" lon="1.08926">
        <ele>111.17</ele>
        <time>2011-05-08T06:24:06Z</time>
      </trkpt>
      <trkpt lat="49.00242" lon="1.0894">
        <ele>109.73</ele>
        <time>2011-05-08T06:24:11Z</time>
      </trkpt>
      <trkpt lat="49.00238" lon="1.08945">
        <ele>107.81</ele>
        <time>2011-05-08T06:24:13Z</time>
      </trkpt>
      <trkpt lat="49.00233" lon="1.08948">
        <ele>114.05</ele>
        <time>2011-05-08T06:24:15Z</time>
      </trkpt>
      <trkpt lat="49.00231" lon="1.08948">
        <ele>106.84</ele>
        <time>2011-05-08T06:24:16Z</time>
      </trkpt>
      <trkpt lat="49.00228" lon="1.08948">
        <ele>111.65</ele>
        <time>2011-05-08T06:24:17Z</time>
      </trkpt>
      <trkpt lat="49.00209" lon="1.08956">
        <ele>112.13</ele>
        <time>2011-05-08T06:24:24Z</time>
      </trkpt>
      <trkpt lat="49.00207" lon="1.08987">
        <ele>111.17</ele>
        <time>2011-05-08T06:24:29Z</time>
      </trkpt>
      <trkpt lat="49.00221" lon="1.09028">
        <ele>110.69</ele>
        <time>2011-05-08T06:24:35Z</time>
      </trkpt>
      <trkpt lat="49.0025" lon="1.09082">
        <ele>108.77</ele>
        <time>2011-05-08T06:24:43Z</time>
      </trkpt>
      <trkpt lat="49.00253" lon="1.09106">
        <ele>109.25</ele>
        <time>2011-05-08T06:24:47Z</time>
      </trkpt>
      <trkpt lat="49.00226" lon="1.09135">
        <ele>111.17</ele>
        <time>2011-05-08T06:24:53Z</time>
      </trkpt>
      <trkpt lat="49.002" lon="1.0914">
        <ele>108.77</ele>
        <time>2011-05-08T06:24:58Z</time>
      </trkpt>
      <trkpt lat="49.00189" lon="1.09144">
        <ele>114.53</ele>
        <time>2011-05-08T06:25:00Z</time>
      </trkpt>
      <trkpt lat="49.00185" lon="1.09145">
        <ele>109.73</ele>
        <time>2011-05-08T06:25:01Z</time>
      </trkpt>
      <trkpt lat="49.0018" lon="1.09147">
        <ele>114.05</ele>
        <time>2011-05-08T06:25:02Z</time>
      </trkpt>
      <trkpt lat="49.00171" lon="1.09151">
        <ele>112.13</ele>
        <time>2011-05-08T06:25:04Z</time>
      </trkpt>
      <trkpt lat="49.00155" lon="1.09166">
        <ele>112.61</ele>
        <time>2011-05-08T06:25:08Z</time>
      </trkpt>
      <trkpt lat="49.00137" lon="1.09198">
        <ele>115.5</ele>
        <time>2011-05-08T06:25:15Z</time>
      </trkpt>
      <trkpt lat="49.00135" lon="1.09202">
        <ele>112.61</ele>
        <time>2011-05-08T06:25:16Z</time>
      </trkpt>
      <trkpt lat="49.00132" lon="1.09216">
        <ele>112.13</ele>
        <time>2011-05-08T06:25:19Z</time>
      </trkpt>
      <trkpt lat="49.00133" lon="1.09241">
        <ele>113.09</ele>
        <time>2011-05-08T06:25:23Z</time>
      </trkpt>
      <trkpt lat="49.00143" lon="1.09279">
        <ele>112.61</ele>
        <time>2011-05-08T06:25:28Z</time>
      </trkpt>
      <trkpt lat="49.00147" lon="1.09293">
        <ele>113.09</ele>
        <time>2011-05-08T06:25:30Z</time>
      </trkpt>
      <trkpt lat="49.00157" lon="1.09323">
        <ele>109.73</ele>
        <time>2011-05-08T06:25:37Z</time>
      </trkpt>
      <trkpt lat="49.00158" lon="1.09329">
        <ele>110.21</ele>
        <time>2011-05-08T06:25:38Z</time>
      </trkpt>
      <trkpt lat="49.00159" lon="1.09355">
        <ele>108.77</ele>
        <time>2011-05-08T06:25:42Z</time>
      </trkpt>
      <trkpt lat="49.0016" lon="1.09381">
        <ele>104.44</ele>
        <time>2011-05-08T06:25:45Z</time>
      </trkpt>
      <trkpt lat="49.00162" lon="1.09412">
        <ele>98.19</ele>
        <time>2011-05-08T06:25:48Z</time>
      </trkpt>
      <trkpt lat="49.00163" lon="1.09424">
        <ele>99.15</ele>
        <time>2011-05-08T06:25:49Z</time>
      </trkpt>
      <trkpt lat="49.00164" lon="1.0946">
        <ele>94.35</ele>
        <time>2011-05-08T06:25:52Z</time>
      </trkpt>
      <trkpt lat="49.00166" lon="1.09514">
        <ele>87.62</ele>
        <time>2011-05-08T06:25:57Z</time>
      </trkpt>
      <trkpt lat="49.00165" lon="1.09523">
        <ele>86.18</ele>
        <time>2011-05-08T06:25:58Z</time>
      </trkpt>
      <trkpt lat="49.00162" lon="1.09571">
        <ele>83.29</ele>
        <time>2011-05-08T06:26:03Z</time>
      </trkpt>
      <trkpt lat="49.00161" lon="1.0959">
        <ele>79.45</ele>
        <time>2011-05-08T06:26:05Z</time>
      </trkpt>
      <trkpt lat="49.00159" lon="1.09614">
        <ele>74.16</ele>
        <time>2011-05-08T06:26:08Z</time>
      </trkpt>
      <trkpt lat="49.0016" lon="1.0964">
        <ele>71.27</ele>
        <time>2011-05-08T06:26:11Z</time>
      </trkpt>
      <trkpt lat="49.00161" lon="1.09648">
        <ele>65.51</ele>
        <time>2011-05-08T06:26:12Z</time>
      </trkpt>
      <trkpt lat="49.00163" lon="1.09666">
        <ele>66.47</ele>
        <time>2011-05-08T06:26:14Z</time>
      </trkpt>
      <trkpt lat="49.00166" lon="1.09688">
        <ele>62.62</ele>
        <time>2011-05-08T06:26:17Z</time>
      </trkpt>
      <trkpt lat="49.00167" lon="1.09693">
        <ele>65.03</ele>
        <time>2011-05-08T06:26:18Z</time>
      </trkpt>
      <trkpt lat="49.00168" lon="1.09698">
        <ele>65.51</ele>
        <time>2011-05-08T06:26:19Z</time>
      </trkpt>
      <trkpt lat="49.00171" lon="1.09709">
        <ele>63.1</ele>
        <time>2011-05-08T06:26:21Z</time>
      </trkpt>
      <trkpt lat="49.00174" lon="1.09717">
        <ele>64.07</ele>
        <time>2011-05-08T06:26:23Z</time>
      </trkpt>
      <trkpt lat="49.00175" lon="1.09723">
        <ele>60.7</ele>
        <time>2011-05-08T06:26:25Z</time>
      </trkpt>
      <trkpt lat="49.00176" lon="1.09736">
        <ele>61.18</ele>
        <time>2011-05-08T06:26:29Z</time>
      </trkpt>
      <trkpt lat="49.0018" lon="1.09743">
        <ele>63.1</ele>
        <time>2011-05-08T06:26:31Z</time>
      </trkpt>
      <trkpt lat="49.00204" lon="1.09784">
        <ele>62.14</ele>
        <time>2011-05-08T06:26:39Z</time>
      </trkpt>
      <trkpt lat="49.00219" lon="1.09809">
        <ele>61.18</ele>
        <time>2011-05-08T06:26:43Z</time>
      </trkpt>
      <trkpt lat="49.0023" lon="1.09827">
        <ele>65.03</ele>
        <time>2011-05-08T06:26:46Z</time>
      </trkpt>
      <trkpt lat="49.00234" lon="1.09834">
        <ele>61.18</ele>
        <time>2011-05-08T06:26:47Z</time>
      </trkpt>
      <trkpt lat="49.00238" lon="1.0984">
        <ele>61.18</ele>
        <time>2011-05-08T06:26:48Z</time>
      </trkpt>
      <trkpt lat="49.00242" lon="1.09846">
        <ele>60.7</ele>
        <time>2011-05-08T06:26:49Z</time>
      </trkpt>
      <trkpt lat="49.00247" lon="1.09874">
        <ele>59.26</ele>
        <time>2011-05-08T06:26:53Z</time>
      </trkpt>
      <trkpt lat="49.00245" lon="1.09882">
        <ele>62.62</ele>
        <time>2011-05-08T06:26:54Z</time>
      </trkpt>
      <trkpt lat="49.00233" lon="1.09901">
        <ele>63.1</ele>
        <time>2011-05-08T06:26:58Z</time>
      </trkpt>
      <trkpt lat="49.00222" lon="1.09908">
        <ele>58.3</ele>
        <time>2011-05-08T06:27:01Z</time>
      </trkpt>
      <trkpt lat="49.00218" lon="1.09911">
        <ele>63.1</ele>
        <time>2011-05-08T06:27:02Z</time>
      </trkpt>
      <trkpt lat="49.00177" lon="1.0995">
        <ele>58.78</ele>
        <time>2011-05-08T06:27:12Z</time>
      </trkpt>
      <trkpt lat="49.00153" lon="1.09971">
        <ele>62.14</ele>
        <time>2011-05-08T06:27:17Z</time>
      </trkpt>
      <trkpt lat="49.0012" lon="1.10004">
        <ele>58.78</ele>
        <time>2011-05-08T06:27:24Z</time>
      </trkpt>
      <trkpt lat="49.0011" lon="1.10014">
        <ele>62.14</ele>
        <time>2011-05-08T06:27:26Z</time>
      </trkpt>
      <trkpt lat="49.00105" lon="1.10018">
        <ele>58.78</ele>
        <time>2011-05-08T06:27:27Z</time>
      </trkpt>
      <trkpt lat="49.00086" lon="1.10036">
        <ele>58.78</ele>
        <time>2011-05-08T06:27:31Z</time>
      </trkpt>
      <trkpt lat="49.00076" lon="1.10043">
        <ele>61.66</ele>
        <time>2011-05-08T06:27:33Z</time>
      </trkpt>
      <trkpt lat="49.00027" lon="1.10062">
        <ele>59.74</ele>
        <time>2011-05-08T06:27:42Z</time>
      </trkpt>
      <trkpt lat="49.00022" lon="1.10064">
        <ele>63.1</ele>
        <time>2011-05-08T06:27:43Z</time>
      </trkpt>
      <trkpt lat="48.99978" lon="1.1009">
        <ele>60.22</ele>
        <time>2011-05-08T06:27:52Z</time>
      </trkpt>
      <trkpt lat="48.99973" lon="1.10093">
        <ele>63.1</ele>
        <time>2011-05-08T06:27:53Z</time>
      </trkpt>
      <trkpt lat="48.99959" lon="1.10104">
        <ele>62.62</ele>
        <time>2011-05-08T06:27:56Z</time>
      </trkpt>
      <trkpt lat="48.99941" lon="1.10098">
        <ele>61.66</ele>
        <time>2011-05-08T06:28:00Z</time>
      </trkpt>
      <trkpt lat="48.99908" lon="1.09984">
        <ele>60.22</ele>
        <time>2011-05-08T06:28:13Z</time>
      </trkpt>
      <trkpt lat="48.99888" lon="1.09926">
        <ele>56.86</ele>
        <time>2011-05-08T06:28:20Z</time>
      </trkpt>
      <trkpt lat="48.99885" lon="1.09918">
        <ele>59.26</ele>
        <time>2011-05-08T06:28:21Z</time>
      </trkpt>
      <trkpt lat="48.99875" lon="1.09893">
        <ele>62.62</ele>
        <time>2011-05-08T06:28:24Z</time>
      </trkpt>
      <trkpt lat="48.9986" lon="1.09851">
        <ele>59.26</ele>
        <time>2011-05-08T06:28:29Z</time>
      </trkpt>
      <trkpt lat="48.9985" lon="1.09828">
        <ele>63.1</ele>
        <time>2011-05-08T06:28:32Z</time>
      </trkpt>
      <trkpt lat="48.99847" lon="1.0982">
        <ele>60.22</ele>
        <time>2011-05-08T06:28:33Z</time>
      </trkpt>
      <trkpt lat="48.99834" lon="1.09779">
        <ele>57.82</ele>
        <time>2011-05-08T06:28:38Z</time>
      </trkpt>
      <trkpt lat="48.9983" lon="1.09761">
        <ele>57.34</ele>
        <time>2011-05-08T06:28:40Z</time>
      </trkpt>
      <trkpt lat="48.99828" lon="1.09742">
        <ele>60.7</ele>
        <time>2011-05-08T06:28:42Z</time>
      </trkpt>
      <trkpt lat="48.99828" lon="1.09733">
        <ele>60.7</ele>
        <time>2011-05-08T06:28:43Z</time>
      </trkpt>
      <trkpt lat="48.9981" lon="1.09559">
        <ele>60.7</ele>
        <time>2011-05-08T06:29:02Z</time>
      </trkpt>
      <trkpt lat="48.99795" lon="1.09504">
        <ele>64.55</ele>
        <time>2011-05-08T06:29:09Z</time>
      </trkpt>
      <trkpt lat="48.99792" lon="1.09496">
        <ele>62.62</ele>
        <time>2011-05-08T06:29:10Z</time>
      </trkpt>
      <trkpt lat="48.99783" lon="1.09473">
        <ele>59.26</ele>
        <time>2011-05-08T06:29:13Z</time>
      </trkpt>
      <trkpt lat="48.9978" lon="1.09465">
        <ele>60.22</ele>
        <time>2011-05-08T06:29:14Z</time>
      </trkpt>
      <trkpt lat="48.99749" lon="1.09368">
        <ele>65.99</ele>
        <time>2011-05-08T06:29:26Z</time>
      </trkpt>
      <trkpt lat="48.99746" lon="1.0936">
        <ele>63.58</ele>
        <time>2011-05-08T06:29:27Z</time>
      </trkpt>
      <trkpt lat="48.99744" lon="1.09352">
        <ele>59.26</ele>
        <time>2011-05-08T06:29:28Z</time>
      </trkpt>
      <trkpt lat="48.99742" lon="1.09344">
        <ele>61.18</ele>
        <time>2011-05-08T06:29:29Z</time>
      </trkpt>
      <trkpt lat="48.99729" lon="1.09304">
        <ele>60.7</ele>
        <time>2011-05-08T06:29:34Z</time>
      </trkpt>
      <trkpt lat="48.99716" lon="1.09246">
        <ele>62.62</ele>
        <time>2011-05-08T06:29:41Z</time>
      </trkpt>
      <trkpt lat="48.99701" lon="1.09186">
        <ele>65.99</ele>
        <time>2011-05-08T06:29:48Z</time>
      </trkpt>
      <trkpt lat="48.99696" lon="1.09169">
        <ele>62.14</ele>
        <time>2011-05-08T06:29:50Z</time>
      </trkpt>
      <trkpt lat="48.99668" lon="1.09079">
        <ele>65.51</ele>
        <time>2011-05-08T06:30:02Z</time>
      </trkpt>
      <trkpt lat="48.99666" lon="1.09071">
        <ele>61.18</ele>
        <time>2011-05-08T06:30:03Z</time>
      </trkpt>
      <trkpt lat="48.99659" lon="1.09011">
        <ele>61.18</ele>
        <time>2011-05-08T06:30:10Z</time>
      </trkpt>
      <trkpt lat="48.99658" lon="1.09002">
        <ele>61.66</ele>
        <time>2011-05-08T06:30:11Z</time>
      </trkpt>
      <trkpt lat="48.99645" lon="1.08963">
        <ele>66.47</ele>
        <time>2011-05-08T06:30:16Z</time>
      </trkpt>
      <trkpt lat="48.99642" lon="1.08956">
        <ele>59.26</ele>
        <time>2011-05-08T06:30:17Z</time>
      </trkpt>
      <trkpt lat="48.99637" lon="1.08941">
        <ele>65.51</ele>
        <time>2011-05-08T06:30:19Z</time>
      </trkpt>
      <trkpt lat="48.99634" lon="1.08933">
        <ele>64.07</ele>
        <time>2011-05-08T06:30:20Z</time>
      </trkpt>
      <trkpt lat="48.99628" lon="1.08912">
        <ele>66.95</ele>
        <time>2011-05-08T06:30:23Z</time>
      </trkpt>
      <trkpt lat="48.99626" lon="1.08905">
        <ele>66.95</ele>
        <time>2011-05-08T06:30:24Z</time>
      </trkpt>
      <trkpt lat="48.99624" lon="1.08898">
        <ele>63.58</ele>
        <time>2011-05-08T06:30:25Z</time>
      </trkpt>
      <trkpt lat="48.99619" lon="1.08884">
        <ele>62.62</ele>
        <time>2011-05-08T06:30:27Z</time>
      </trkpt>
      <trkpt lat="48.9961" lon="1.08861">
        <ele>65.51</ele>
        <time>2011-05-08T06:30:30Z</time>
      </trkpt>
      <trkpt lat="48.99583" lon="1.0877">
        <ele>61.66</ele>
        <time>2011-05-08T06:30:41Z</time>
      </trkpt>
      <trkpt lat="48.9958" lon="1.08762">
        <ele>65.03</ele>
        <time>2011-05-08T06:30:42Z</time>
      </trkpt>
      <trkpt lat="48.99573" lon="1.08737">
        <ele>61.18</ele>
        <time>2011-05-08T06:30:45Z</time>
      </trkpt>
      <trkpt lat="48.99569" lon="1.0872">
        <ele>65.99</ele>
        <time>2011-05-08T06:30:47Z</time>
      </trkpt>
      <trkpt lat="48.99566" lon="1.08712">
        <ele>62.62</ele>
        <time>2011-05-08T06:30:48Z</time>
      </trkpt>
      <trkpt lat="48.99555" lon="1.0867">
        <ele>65.99</ele>
        <time>2011-05-08T06:30:53Z</time>
      </trkpt>
      <trkpt lat="48.99539" lon="1.08602">
        <ele>62.62</ele>
        <time>2011-05-08T06:31:01Z</time>
      </trkpt>
      <trkpt lat="48.99526" lon="1.08524">
        <ele>66.95</ele>
        <time>2011-05-08T06:31:10Z</time>
      </trkpt>
      <trkpt lat="48.99525" lon="1.08515">
        <ele>63.58</ele>
        <time>2011-05-08T06:31:11Z</time>
      </trkpt>
      <trkpt lat="48.99516" lon="1.08455">
        <ele>67.43</ele>
        <time>2011-05-08T06:31:18Z</time>
      </trkpt>
      <trkpt lat="48.99515" lon="1.08446">
        <ele>63.58</ele>
        <time>2011-05-08T06:31:19Z</time>
      </trkpt>
      <trkpt lat="48.99495" lon="1.08316">
        <ele>66.95</ele>
        <time>2011-05-08T06:31:34Z</time>
      </trkpt>
      <trkpt lat="48.99489" lon="1.08291">
        <ele>61.66</ele>
        <time>2011-05-08T06:31:37Z</time>
      </trkpt>
      <trkpt lat="48.99487" lon="1.08282">
        <ele>65.03</ele>
        <time>2011-05-08T06:31:38Z</time>
      </trkpt>
      <trkpt lat="48.99481" lon="1.08257">
        <ele>62.14</ele>
        <time>2011-05-08T06:31:41Z</time>
      </trkpt>
      <trkpt lat="48.99477" lon="1.08241">
        <ele>65.99</ele>
        <time>2011-05-08T06:31:43Z</time>
      </trkpt>
      <trkpt lat="48.99475" lon="1.08232">
        <ele>64.55</ele>
        <time>2011-05-08T06:31:44Z</time>
      </trkpt>
      <trkpt lat="48.99462" lon="1.08171">
        <ele>65.03</ele>
        <time>2011-05-08T06:31:51Z</time>
      </trkpt>
      <trkpt lat="48.99456" lon="1.08128">
        <ele>63.1</ele>
        <time>2011-05-08T06:31:56Z</time>
      </trkpt>
      <trkpt lat="48.99449" lon="1.08069">
        <ele>66.47</ele>
        <time>2011-05-08T06:32:03Z</time>
      </trkpt>
      <trkpt lat="48.99448" lon="1.08044">
        <ele>62.62</ele>
        <time>2011-05-08T06:32:06Z</time>
      </trkpt>
      <trkpt lat="48.99448" lon="1.08035">
        <ele>67.43</ele>
        <time>2011-05-08T06:32:07Z</time>
      </trkpt>
      <trkpt lat="48.99448" lon="1.08026">
        <ele>63.58</ele>
        <time>2011-05-08T06:32:08Z</time>
      </trkpt>
      <trkpt lat="48.99448" lon="1.07983">
        <ele>64.07</ele>
        <time>2011-05-08T06:32:13Z</time>
      </trkpt>
      <trkpt lat="48.99448" lon="1.07965">
        <ele>65.99</ele>
        <time>2011-05-08T06:32:15Z</time>
      </trkpt>
      <trkpt lat="48.99448" lon="1.07895">
        <ele>62.62</ele>
        <time>2011-05-08T06:32:23Z</time>
      </trkpt>
      <trkpt lat="48.99449" lon="1.07886">
        <ele>66.95</ele>
        <time>2011-05-08T06:32:24Z</time>
      </trkpt>
      <trkpt lat="48.99449" lon="1.07859">
        <ele>63.58</ele>
        <time>2011-05-08T06:32:27Z</time>
      </trkpt>
      <trkpt lat="48.99449" lon="1.07841">
        <ele>68.39</ele>
        <time>2011-05-08T06:32:29Z</time>
      </trkpt>
      <trkpt lat="48.99448" lon="1.07823">
        <ele>65.03</ele>
        <time>2011-05-08T06:32:31Z</time>
      </trkpt>
      <trkpt lat="48.99448" lon="1.07805">
        <ele>66.95</ele>
        <time>2011-05-08T06:32:33Z</time>
      </trkpt>
      <trkpt lat="48.99449" lon="1.0778">
        <ele>63.1</ele>
        <time>2011-05-08T06:32:36Z</time>
      </trkpt>
      <trkpt lat="48.9945" lon="1.07771">
        <ele>64.55</ele>
        <time>2011-05-08T06:32:37Z</time>
      </trkpt>
      <trkpt lat="48.9945" lon="1.07729">
        <ele>63.58</ele>
        <time>2011-05-08T06:32:42Z</time>
      </trkpt>
      <trkpt lat="48.9945" lon="1.07712">
        <ele>67.43</ele>
        <time>2011-05-08T06:32:44Z</time>
      </trkpt>
      <trkpt lat="48.9945" lon="1.07676">
        <ele>61.66</ele>
        <time>2011-05-08T06:32:48Z</time>
      </trkpt>
      <trkpt lat="48.9945" lon="1.07666">
        <ele>63.1</ele>
        <time>2011-05-08T06:32:49Z</time>
      </trkpt>
      <trkpt lat="48.99449" lon="1.07648">
        <ele>63.58</ele>
        <time>2011-05-08T06:32:51Z</time>
      </trkpt>
      <trkpt lat="48.99449" lon="1.07638">
        <ele>68.39</ele>
        <time>2011-05-08T06:32:52Z</time>
      </trkpt>
      <trkpt lat="48.99449" lon="1.07629">
        <ele>64.55</ele>
        <time>2011-05-08T06:32:53Z</time>
      </trkpt>
      <trkpt lat="48.9945" lon="1.07582">
        <ele>64.07</ele>
        <time>2011-05-08T06:32:58Z</time>
      </trkpt>
      <trkpt lat="48.9945" lon="1.07552">
        <ele>67.43</ele>
        <time>2011-05-08T06:33:01Z</time>
      </trkpt>
      <trkpt lat="48.99449" lon="1.07493">
        <ele>65.99</ele>
        <time>2011-05-08T06:33:07Z</time>
      </trkpt>
      <trkpt lat="48.99449" lon="1.07323">
        <ele>62.62</ele>
        <time>2011-05-08T06:33:25Z</time>
      </trkpt>
      <trkpt lat="48.99449" lon="1.07314">
        <ele>69.83</ele>
        <time>2011-05-08T06:33:26Z</time>
      </trkpt>
      <trkpt lat="48.99449" lon="1.07204">
        <ele>62.14</ele>
        <time>2011-05-08T06:33:38Z</time>
      </trkpt>
      <trkpt lat="48.99449" lon="1.07195">
        <ele>65.51</ele>
        <time>2011-05-08T06:33:39Z</time>
      </trkpt>
      <trkpt lat="48.99448" lon="1.07008">
        <ele>69.83</ele>
        <time>2011-05-08T06:34:00Z</time>
      </trkpt>
      <trkpt lat="48.99448" lon="1.07">
        <ele>68.87</ele>
        <time>2011-05-08T06:34:01Z</time>
      </trkpt>
      <trkpt lat="48.99448" lon="1.06991">
        <ele>64.07</ele>
        <time>2011-05-08T06:34:02Z</time>
      </trkpt>
      <trkpt lat="48.99448" lon="1.06982">
        <ele>69.35</ele>
        <time>2011-05-08T06:34:03Z</time>
      </trkpt>
      <trkpt lat="48.99448" lon="1.06965">
        <ele>65.99</ele>
        <time>2011-05-08T06:34:05Z</time>
      </trkpt>
      <trkpt lat="48.99448" lon="1.06956">
        <ele>72.24</ele>
        <time>2011-05-08T06:34:06Z</time>
      </trkpt>
      <trkpt lat="48.99448" lon="1.06947">
        <ele>64.07</ele>
        <time>2011-05-08T06:34:07Z</time>
      </trkpt>
      <trkpt lat="48.99447" lon="1.06939">
        <ele>67.43</ele>
        <time>2011-05-08T06:34:08Z</time>
      </trkpt>
      <trkpt lat="48.99448" lon="1.0693">
        <ele>63.1</ele>
        <time>2011-05-08T06:34:09Z</time>
      </trkpt>
      <trkpt lat="48.99447" lon="1.06922">
        <ele>66.95</ele>
        <time>2011-05-08T06:34:10Z</time>
      </trkpt>
      <trkpt lat="48.99447" lon="1.06905">
        <ele>68.87</ele>
        <time>2011-05-08T06:34:12Z</time>
      </trkpt>
      <trkpt lat="48.99445" lon="1.06881">
        <ele>64.55</ele>
        <time>2011-05-08T06:34:15Z</time>
      </trkpt>
      <trkpt lat="48.99446" lon="1.06822">
        <ele>65.99</ele>
        <time>2011-05-08T06:34:22Z</time>
      </trkpt>
      <trkpt lat="48.99446" lon="1.06797">
        <ele>67.43</ele>
        <time>2011-05-08T06:34:25Z</time>
      </trkpt>
      <trkpt lat="48.99446" lon="1.06763">
        <ele>66.47</ele>
        <time>2011-05-08T06:34:29Z</time>
      </trkpt>
      <trkpt lat="48.99447" lon="1.06746">
        <ele>66.47</ele>
        <time>2011-05-08T06:34:31Z</time>
      </trkpt>
      <trkpt lat="48.99445" lon="1.06721">
        <ele>70.31</ele>
        <time>2011-05-08T06:34:34Z</time>
      </trkpt>
      <trkpt lat="48.99445" lon="1.06712">
        <ele>65.03</ele>
        <time>2011-05-08T06:34:35Z</time>
      </trkpt>
      <trkpt lat="48.99445" lon="1.06696">
        <ele>65.99</ele>
        <time>2011-05-08T06:34:37Z</time>
      </trkpt>
      <trkpt lat="48.99446" lon="1.06672">
        <ele>68.87</ele>
        <time>2011-05-08T06:34:40Z</time>
      </trkpt>
      <trkpt lat="48.9945" lon="1.06659">
        <ele>65.51</ele>
        <time>2011-05-08T06:34:42Z</time>
      </trkpt>
      <trkpt lat="48.99452" lon="1.06652">
        <ele>68.39</ele>
        <time>2011-05-08T06:34:43Z</time>
      </trkpt>
      <trkpt lat="48.99455" lon="1.06646">
        <ele>64.55</ele>
        <time>2011-05-08T06:34:44Z</time>
      </trkpt>
      <trkpt lat="48.99457" lon="1.06639">
        <ele>70.31</ele>
        <time>2011-05-08T06:34:45Z</time>
      </trkpt>
      <trkpt lat="48.99469" lon="1.0662">
        <ele>63.58</ele>
        <time>2011-05-08T06:34:49Z</time>
      </trkpt>
      <trkpt lat="48.99472" lon="1.06614">
        <ele>70.79</ele>
        <time>2011-05-08T06:34:50Z</time>
      </trkpt>
      <trkpt lat="48.99475" lon="1.06607">
        <ele>65.99</ele>
        <time>2011-05-08T06:34:51Z</time>
      </trkpt>
      <trkpt lat="48.99484" lon="1.06587">
        <ele>68.39</ele>
        <time>2011-05-08T06:34:54Z</time>
      </trkpt>
      <trkpt lat="48.99489" lon="1.06579">
        <ele>68.39</ele>
        <time>2011-05-08T06:34:56Z</time>
      </trkpt>
      <trkpt lat="48.99489" lon="1.06561">
        <ele>64.55</ele>
        <time>2011-05-08T06:34:59Z</time>
      </trkpt>
      <trkpt lat="48.99488" lon="1.06553">
        <ele>67.91</ele>
        <time>2011-05-08T06:35:00Z</time>
      </trkpt>
      <trkpt lat="48.99484" lon="1.06529">
        <ele>70.79</ele>
        <time>2011-05-08T06:35:03Z</time>
      </trkpt>
      <trkpt lat="48.99482" lon="1.06514">
        <ele>71.27</ele>
        <time>2011-05-08T06:35:05Z</time>
      </trkpt>
      <trkpt lat="48.99479" lon="1.06495">
        <ele>66.95</ele>
        <time>2011-05-08T06:35:08Z</time>
      </trkpt>
      <trkpt lat="48.99477" lon="1.06489">
        <ele>68.87</ele>
        <time>2011-05-08T06:35:09Z</time>
      </trkpt>
      <trkpt lat="48.99474" lon="1.06474">
        <ele>64.55</ele>
        <time>2011-05-08T06:35:11Z</time>
      </trkpt>
      <trkpt lat="48.99473" lon="1.06467">
        <ele>68.39</ele>
        <time>2011-05-08T06:35:12Z</time>
      </trkpt>
      <trkpt lat="48.99472" lon="1.0646">
        <ele>70.31</ele>
        <time>2011-05-08T06:35:13Z</time>
      </trkpt>
      <trkpt lat="48.9947" lon="1.06448">
        <ele>69.83</ele>
        <time>2011-05-08T06:35:15Z</time>
      </trkpt>
      <trkpt lat="48.99468" lon="1.06431">
        <ele>66.47</ele>
        <time>2011-05-08T06:35:18Z</time>
      </trkpt>
      <trkpt lat="48.99483" lon="1.06406">
        <ele>66.95</ele>
        <time>2011-05-08T06:35:23Z</time>
      </trkpt>
      <trkpt lat="48.99491" lon="1.06403">
        <ele>67.91</ele>
        <time>2011-05-08T06:35:25Z</time>
      </trkpt>
      <trkpt lat="48.99499" lon="1.06398">
        <ele>71.76</ele>
        <time>2011-05-08T06:35:27Z</time>
      </trkpt>
      <trkpt lat="48.99511" lon="1.06387">
        <ele>67.91</ele>
        <time>2011-05-08T06:35:31Z</time>
      </trkpt>
      <trkpt lat="48.99524" lon="1.06373">
        <ele>69.83</ele>
        <time>2011-05-08T06:35:35Z</time>
      </trkpt>
      <trkpt lat="48.9953" lon="1.06347">
        <ele>69.35</ele>
        <time>2011-05-08T06:35:39Z</time>
      </trkpt>
      <trkpt lat="48.99531" lon="1.06321">
        <ele>67.91</ele>
        <time>2011-05-08T06:35:42Z</time>
      </trkpt>
      <trkpt lat="48.99542" lon="1.06301">
        <ele>66.47</ele>
        <time>2011-05-08T06:35:45Z</time>
      </trkpt>
      <trkpt lat="48.99558" lon="1.06283">
        <ele>68.87</ele>
        <time>2011-05-08T06:35:49Z</time>
      </trkpt>
      <trkpt lat="48.99571" lon="1.0627">
        <ele>72.24</ele>
        <time>2011-05-08T06:35:52Z</time>
      </trkpt>
      <trkpt lat="48.99576" lon="1.06268">
        <ele>67.91</ele>
        <time>2011-05-08T06:35:53Z</time>
      </trkpt>
      <trkpt lat="48.99581" lon="1.06266">
        <ele>64.55</ele>
        <time>2011-05-08T06:35:54Z</time>
      </trkpt>
      <trkpt lat="48.99615" lon="1.06267">
        <ele>66.95</ele>
        <time>2011-05-08T06:36:01Z</time>
      </trkpt>
      <trkpt lat="48.99644" lon="1.06266">
        <ele>67.43</ele>
        <time>2011-05-08T06:36:07Z</time>
      </trkpt>
      <trkpt lat="48.99654" lon="1.06265">
        <ele>70.79</ele>
        <time>2011-05-08T06:36:09Z</time>
      </trkpt>
      <trkpt lat="48.99658" lon="1.06264">
        <ele>68.39</ele>
        <time>2011-05-08T06:36:10Z</time>
      </trkpt>
      <trkpt lat="48.99663" lon="1.06263">
        <ele>68.87</ele>
        <time>2011-05-08T06:36:11Z</time>
      </trkpt>
      <trkpt lat="48.99671" lon="1.06258">
        <ele>64.55</ele>
        <time>2011-05-08T06:36:13Z</time>
      </trkpt>
      <trkpt lat="48.99675" lon="1.06254">
        <ele>67.91</ele>
        <time>2011-05-08T06:36:14Z</time>
      </trkpt>
      <trkpt lat="48.99679" lon="1.06241">
        <ele>70.79</ele>
        <time>2011-05-08T06:36:16Z</time>
      </trkpt>
      <trkpt lat="48.99691" lon="1.06172">
        <ele>66.47</ele>
        <time>2011-05-08T06:36:25Z</time>
      </trkpt>
      <trkpt lat="48.99693" lon="1.06139">
        <ele>66.47</ele>
        <time>2011-05-08T06:36:29Z</time>
      </trkpt>
      <trkpt lat="48.99689" lon="1.06105">
        <ele>70.31</ele>
        <time>2011-05-08T06:36:33Z</time>
      </trkpt>
      <trkpt lat="48.99686" lon="1.06098">
        <ele>67.91</ele>
        <time>2011-05-08T06:36:34Z</time>
      </trkpt>
      <trkpt lat="48.99673" lon="1.0607">
        <ele>74.64</ele>
        <time>2011-05-08T06:36:38Z</time>
      </trkpt>
      <trkpt lat="48.9967" lon="1.06063">
        <ele>69.35</ele>
        <time>2011-05-08T06:36:39Z</time>
      </trkpt>
      <trkpt lat="48.99663" lon="1.0605">
        <ele>65.99</ele>
        <time>2011-05-08T06:36:41Z</time>
      </trkpt>
      <trkpt lat="48.99659" lon="1.06044">
        <ele>65.99</ele>
        <time>2011-05-08T06:36:42Z</time>
      </trkpt>
      <trkpt lat="48.99652" lon="1.06033">
        <ele>65.99</ele>
        <time>2011-05-08T06:36:44Z</time>
      </trkpt>
      <trkpt lat="48.99643" lon="1.06025">
        <ele>70.31</ele>
        <time>2011-05-08T06:36:46Z</time>
      </trkpt>
      <trkpt lat="48.99638" lon="1.06022">
        <ele>69.83</ele>
        <time>2011-05-08T06:36:47Z</time>
      </trkpt>
      <trkpt lat="48.99609" lon="1.06003">
        <ele>69.35</ele>
        <time>2011-05-08T06:36:53Z</time>
      </trkpt>
      <trkpt lat="48.996" lon="1.05995">
        <ele>70.79</ele>
        <time>2011-05-08T06:36:55Z</time>
      </trkpt>
      <trkpt lat="48.99593" lon="1.05983">
        <ele>69.35</ele>
        <time>2011-05-08T06:36:57Z</time>
      </trkpt>
      <trkpt lat="48.99579" lon="1.05947">
        <ele>71.27</ele>
        <time>2011-05-08T06:37:02Z</time>
      </trkpt>
      <trkpt lat="48.99576" lon="1.0594">
        <ele>65.99</ele>
        <time>2011-05-08T06:37:03Z</time>
      </trkpt>
      <trkpt lat="48.99572" lon="1.05933">
        <ele>70.31</ele>
        <time>2011-05-08T06:37:04Z</time>
      </trkpt>
      <trkpt lat="48.99569" lon="1.05927">
        <ele>66.95</ele>
        <time>2011-05-08T06:37:05Z</time>
      </trkpt>
      <trkpt lat="48.99565" lon="1.0592">
        <ele>74.16</ele>
        <time>2011-05-08T06:37:06Z</time>
      </trkpt>
      <trkpt lat="48.99561" lon="1.05912">
        <ele>74.16</ele>
        <time>2011-05-08T06:37:07Z</time>
      </trkpt>
      <trkpt lat="48.99558" lon="1.05905">
        <ele>68.87</ele>
        <time>2011-05-08T06:37:08Z</time>
      </trkpt>
      <trkpt lat="48.99554" lon="1.05898">
        <ele>70.79</ele>
        <time>2011-05-08T06:37:09Z</time>
      </trkpt>
      <trkpt lat="48.99547" lon="1.05885">
        <ele>66.95</ele>
        <time>2011-05-08T06:37:11Z</time>
      </trkpt>
      <trkpt lat="48.99544" lon="1.05878">
        <ele>68.87</ele>
        <time>2011-05-08T06:37:12Z</time>
      </trkpt>
      <trkpt lat="48.99507" lon="1.05827">
        <ele>66.47</ele>
        <time>2011-05-08T06:37:21Z</time>
      </trkpt>
      <trkpt lat="48.99497" lon="1.0582">
        <ele>70.31</ele>
        <time>2011-05-08T06:37:23Z</time>
      </trkpt>
      <trkpt lat="48.99492" lon="1.05817">
        <ele>70.79</ele>
        <time>2011-05-08T06:37:24Z</time>
      </trkpt>
      <trkpt lat="48.99475" lon="1.05796">
        <ele>69.35</ele>
        <time>2011-05-08T06:37:28Z</time>
      </trkpt>
      <trkpt lat="48.99468" lon="1.0577">
        <ele>69.83</ele>
        <time>2011-05-08T06:37:31Z</time>
      </trkpt>
      <trkpt lat="48.99466" lon="1.05752">
        <ele>72.24</ele>
        <time>2011-05-08T06:37:33Z</time>
      </trkpt>
      <trkpt lat="48.99461" lon="1.05716">
        <ele>67.43</ele>
        <time>2011-05-08T06:37:37Z</time>
      </trkpt>
      <trkpt lat="48.9946" lon="1.05708">
        <ele>71.27</ele>
        <time>2011-05-08T06:37:38Z</time>
      </trkpt>
      <trkpt lat="48.99448" lon="1.05636">
        <ele>69.83</ele>
        <time>2011-05-08T06:37:47Z</time>
      </trkpt>
      <trkpt lat="48.99449" lon="1.05591">
        <ele>71.27</ele>
        <time>2011-05-08T06:37:53Z</time>
      </trkpt>
      <trkpt lat="48.99452" lon="1.05576">
        <ele>73.2</ele>
        <time>2011-05-08T06:37:55Z</time>
      </trkpt>
      <trkpt lat="48.99461" lon="1.05555">
        <ele>68.39</ele>
        <time>2011-05-08T06:37:58Z</time>
      </trkpt>
      <trkpt lat="48.99465" lon="1.0555">
        <ele>72.24</ele>
        <time>2011-05-08T06:37:59Z</time>
      </trkpt>
      <trkpt lat="48.99474" lon="1.05539">
        <ele>68.39</ele>
        <time>2011-05-08T06:38:01Z</time>
      </trkpt>
      <trkpt lat="48.99478" lon="1.05534">
        <ele>72.24</ele>
        <time>2011-05-08T06:38:02Z</time>
      </trkpt>
      <trkpt lat="48.99496" lon="1.05514">
        <ele>73.68</ele>
        <time>2011-05-08T06:38:06Z</time>
      </trkpt>
      <trkpt lat="48.99534" lon="1.0551">
        <ele>67.43</ele>
        <time>2011-05-08T06:38:13Z</time>
      </trkpt>
      <trkpt lat="48.99539" lon="1.05516">
        <ele>69.35</ele>
        <time>2011-05-08T06:38:14Z</time>
      </trkpt>
      <trkpt lat="48.99543" lon="1.05523">
        <ele>73.2</ele>
        <time>2011-05-08T06:38:15Z</time>
      </trkpt>
      <trkpt lat="48.99539" lon="1.05582">
        <ele>77.04</ele>
        <time>2011-05-08T06:38:22Z</time>
      </trkpt>
      <trkpt lat="48.99534" lon="1.05587">
        <ele>76.08</ele>
        <time>2011-05-08T06:38:23Z</time>
      </trkpt>
      <trkpt lat="48.99525" lon="1.05595">
        <ele>73.2</ele>
        <time>2011-05-08T06:38:25Z</time>
      </trkpt>
      <trkpt lat="48.99507" lon="1.05605">
        <ele>72.72</ele>
        <time>2011-05-08T06:38:29Z</time>
      </trkpt>
      <trkpt lat="48.99493" lon="1.05612">
        <ele>77.52</ele>
        <time>2011-05-08T06:38:32Z</time>
      </trkpt>
      <trkpt lat="48.99485" lon="1.05615">
        <ele>73.68</ele>
        <time>2011-05-08T06:38:34Z</time>
      </trkpt>
      <trkpt lat="48.9948" lon="1.05617">
        <ele>74.64</ele>
        <time>2011-05-08T06:38:35Z</time>
      </trkpt>
      <trkpt lat="48.99472" lon="1.05619">
        <ele>76.56</ele>
        <time>2011-05-08T06:38:37Z</time>
      </trkpt>
      <trkpt lat="48.99463" lon="1.05621">
        <ele>80.41</ele>
        <time>2011-05-08T06:38:39Z</time>
      </trkpt>
      <trkpt lat="48.99458" lon="1.05622">
        <ele>75.12</ele>
        <time>2011-05-08T06:38:40Z</time>
      </trkpt>
      <trkpt lat="48.99454" lon="1.05622">
        <ele>80.41</ele>
        <time>2011-05-08T06:38:41Z</time>
      </trkpt>
      <trkpt lat="48.99441" lon="1.05624">
        <ele>77.04</ele>
        <time>2011-05-08T06:38:44Z</time>
      </trkpt>
      <trkpt lat="48.99437" lon="1.05624">
        <ele>81.37</ele>
        <time>2011-05-08T06:38:45Z</time>
      </trkpt>
      <trkpt lat="48.99428" lon="1.05625">
        <ele>76.56</ele>
        <time>2011-05-08T06:38:47Z</time>
      </trkpt>
      <trkpt lat="48.99423" lon="1.05626">
        <ele>77.04</ele>
        <time>2011-05-08T06:38:48Z</time>
      </trkpt>
      <trkpt lat="48.99359" lon="1.05633">
        <ele>72.72</ele>
        <time>2011-05-08T06:38:58Z</time>
      </trkpt>
      <trkpt lat="48.99351" lon="1.05634">
        <ele>73.68</ele>
        <time>2011-05-08T06:38:59Z</time>
      </trkpt>
      <trkpt lat="48.99305" lon="1.0563">
        <ele>81.37</ele>
        <time>2011-05-08T06:39:05Z</time>
      </trkpt>
      <trkpt lat="48.99299" lon="1.05628">
        <ele>76.08</ele>
        <time>2011-05-08T06:39:06Z</time>
      </trkpt>
      <trkpt lat="48.99283" lon="1.05619">
        <ele>78</ele>
        <time>2011-05-08T06:39:10Z</time>
      </trkpt>
      <trkpt lat="48.99264" lon="1.05613">
        <ele>84.73</ele>
        <time>2011-05-08T06:39:17Z</time>
      </trkpt>
      <trkpt lat="48.99261" lon="1.05612">
        <ele>82.33</ele>
        <time>2011-05-08T06:39:18Z</time>
      </trkpt>
      <trkpt lat="48.99257" lon="1.0561">
        <ele>78.48</ele>
        <time>2011-05-08T06:39:20Z</time>
      </trkpt>
      <trkpt lat="48.99254" lon="1.0561">
        <ele>80.41</ele>
        <time>2011-05-08T06:39:21Z</time>
      </trkpt>
      <trkpt lat="48.99244" lon="1.05608">
        <ele>88.1</ele>
        <time>2011-05-08T06:39:25Z</time>
      </trkpt>
      <trkpt lat="48.99242" lon="1.05608">
        <ele>81.37</ele>
        <time>2011-05-08T06:39:26Z</time>
      </trkpt>
      <trkpt lat="48.99237" lon="1.05607">
        <ele>86.18</ele>
        <time>2011-05-08T06:39:28Z</time>
      </trkpt>
      <trkpt lat="48.99234" lon="1.05607">
        <ele>82.33</ele>
        <time>2011-05-08T06:39:29Z</time>
      </trkpt>
      <trkpt lat="48.99231" lon="1.05606">
        <ele>86.66</ele>
        <time>2011-05-08T06:39:30Z</time>
      </trkpt>
      <trkpt lat="48.99224" lon="1.05606">
        <ele>81.37</ele>
        <time>2011-05-08T06:39:33Z</time>
      </trkpt>
      <trkpt lat="48.99222" lon="1.05605">
        <ele>86.66</ele>
        <time>2011-05-08T06:39:34Z</time>
      </trkpt>
      <trkpt lat="48.99215" lon="1.05603">
        <ele>85.21</ele>
        <time>2011-05-08T06:39:37Z</time>
      </trkpt>
      <trkpt lat="48.99204" lon="1.056">
        <ele>88.58</ele>
        <time>2011-05-08T06:39:42Z</time>
      </trkpt>
      <trkpt lat="48.99201" lon="1.056">
        <ele>85.69</ele>
        <time>2011-05-08T06:39:43Z</time>
      </trkpt>
      <trkpt lat="48.99199" lon="1.056">
        <ele>90.02</ele>
        <time>2011-05-08T06:39:44Z</time>
      </trkpt>
      <trkpt lat="48.99192" lon="1.056">
        <ele>86.18</ele>
        <time>2011-05-08T06:39:47Z</time>
      </trkpt>
      <trkpt lat="48.9919" lon="1.056">
        <ele>86.66</ele>
        <time>2011-05-08T06:39:48Z</time>
      </trkpt>
      <trkpt lat="48.99172" lon="1.05606">
        <ele>90.02</ele>
        <time>2011-05-08T06:39:56Z</time>
      </trkpt>
      <trkpt lat="48.99163" lon="1.0561">
        <ele>90.98</ele>
        <time>2011-05-08T06:40:00Z</time>
      </trkpt>
      <trkpt lat="48.99159" lon="1.05612">
        <ele>87.62</ele>
        <time>2011-05-08T06:40:02Z</time>
      </trkpt>
      <trkpt lat="48.99158" lon="1.05614">
        <ele>92.9</ele>
        <time>2011-05-08T06:40:03Z</time>
      </trkpt>
      <trkpt lat="48.99156" lon="1.05616">
        <ele>89.06</ele>
        <time>2011-05-08T06:40:04Z</time>
      </trkpt>
      <trkpt lat="48.9915" lon="1.05633">
        <ele>93.39</ele>
        <time>2011-05-08T06:40:10Z</time>
      </trkpt>
      <trkpt lat="48.99148" lon="1.05642">
        <ele>96.75</ele>
        <time>2011-05-08T06:40:13Z</time>
      </trkpt>
      <trkpt lat="48.99147" lon="1.05645">
        <ele>89.54</ele>
        <time>2011-05-08T06:40:14Z</time>
      </trkpt>
      <trkpt lat="48.99145" lon="1.05651">
        <ele>93.87</ele>
        <time>2011-05-08T06:40:16Z</time>
      </trkpt>
      <trkpt lat="48.99142" lon="1.05654">
        <ele>90.5</ele>
        <time>2011-05-08T06:40:18Z</time>
      </trkpt>
      <trkpt lat="48.9914" lon="1.05655">
        <ele>90.5</ele>
        <time>2011-05-08T06:40:19Z</time>
      </trkpt>
      <trkpt lat="48.99134" lon="1.05656">
        <ele>95.79</ele>
        <time>2011-05-08T06:40:22Z</time>
      </trkpt>
      <trkpt lat="48.99132" lon="1.05656">
        <ele>94.83</ele>
        <time>2011-05-08T06:40:23Z</time>
      </trkpt>
      <trkpt lat="48.99123" lon="1.05655">
        <ele>98.67</ele>
        <time>2011-05-08T06:40:28Z</time>
      </trkpt>
      <trkpt lat="48.99114" lon="1.05649">
        <ele>92.42</ele>
        <time>2011-05-08T06:40:33Z</time>
      </trkpt>
      <trkpt lat="48.99112" lon="1.05648">
        <ele>95.79</ele>
        <time>2011-05-08T06:40:34Z</time>
      </trkpt>
      <trkpt lat="48.99111" lon="1.05646">
        <ele>91.94</ele>
        <time>2011-05-08T06:40:35Z</time>
      </trkpt>
      <trkpt lat="48.99109" lon="1.05644">
        <ele>97.71</ele>
        <time>2011-05-08T06:40:36Z</time>
      </trkpt>
      <trkpt lat="48.99105" lon="1.05639">
        <ele>99.63</ele>
        <time>2011-05-08T06:40:39Z</time>
      </trkpt>
      <trkpt lat="48.99101" lon="1.0563">
        <ele>96.75</ele>
        <time>2011-05-08T06:40:43Z</time>
      </trkpt>
      <trkpt lat="48.991" lon="1.05628">
        <ele>97.71</ele>
        <time>2011-05-08T06:40:44Z</time>
      </trkpt>
      <trkpt lat="48.99098" lon="1.05624">
        <ele>102.04</ele>
        <time>2011-05-08T06:40:46Z</time>
      </trkpt>
      <trkpt lat="48.99097" lon="1.05621">
        <ele>99.63</ele>
        <time>2011-05-08T06:40:47Z</time>
      </trkpt>
      <trkpt lat="48.99096" lon="1.05619">
        <ele>101.56</ele>
        <time>2011-05-08T06:40:48Z</time>
      </trkpt>
      <trkpt lat="48.99093" lon="1.05615">
        <ele>99.63</ele>
        <time>2011-05-08T06:40:50Z</time>
      </trkpt>
      <trkpt lat="48.99091" lon="1.05612">
        <ele>99.63</ele>
        <time>2011-05-08T06:40:52Z</time>
      </trkpt>
      <trkpt lat="48.99089" lon="1.05608">
        <ele>95.31</ele>
        <time>2011-05-08T06:40:54Z</time>
      </trkpt>
      <trkpt lat="48.99088" lon="1.05605">
        <ele>103.48</ele>
        <time>2011-05-08T06:40:55Z</time>
      </trkpt>
      <trkpt lat="48.99087" lon="1.05603">
        <ele>100.6</ele>
        <time>2011-05-08T06:40:56Z</time>
      </trkpt>
      <trkpt lat="48.99085" lon="1.05598">
        <ele>101.56</ele>
        <time>2011-05-08T06:40:58Z</time>
      </trkpt>
      <trkpt lat="48.99082" lon="1.05596">
        <ele>100.6</ele>
        <time>2011-05-08T06:41:00Z</time>
      </trkpt>
      <trkpt lat="48.99079" lon="1.05592">
        <ele>105.88</ele>
        <time>2011-05-08T06:41:02Z</time>
      </trkpt>
      <trkpt lat="48.99078" lon="1.0559">
        <ele>101.08</ele>
        <time>2011-05-08T06:41:03Z</time>
      </trkpt>
      <trkpt lat="48.99065" lon="1.05576">
        <ele>104.92</ele>
        <time>2011-05-08T06:41:12Z</time>
      </trkpt>
      <trkpt lat="48.99063" lon="1.05574">
        <ele>104.92</ele>
        <time>2011-05-08T06:41:13Z</time>
      </trkpt>
      <trkpt lat="48.99059" lon="1.05571">
        <ele>100.6</ele>
        <time>2011-05-08T06:41:16Z</time>
      </trkpt>
      <trkpt lat="48.99057" lon="1.05571">
        <ele>107.81</ele>
        <time>2011-05-08T06:41:17Z</time>
      </trkpt>
      <trkpt lat="48.99055" lon="1.05571">
        <ele>104.44</ele>
        <time>2011-05-08T06:41:18Z</time>
      </trkpt>
      <trkpt lat="48.99046" lon="1.05568">
        <ele>104.92</ele>
        <time>2011-05-08T06:41:23Z</time>
      </trkpt>
      <trkpt lat="48.99042" lon="1.05567">
        <ele>108.77</ele>
        <time>2011-05-08T06:41:26Z</time>
      </trkpt>
      <trkpt lat="48.9904" lon="1.05567">
        <ele>103.96</ele>
        <time>2011-05-08T06:41:27Z</time>
      </trkpt>
      <trkpt lat="48.99036" lon="1.05566">
        <ele>108.77</ele>
        <time>2011-05-08T06:41:29Z</time>
      </trkpt>
      <trkpt lat="48.99034" lon="1.05566">
        <ele>105.88</ele>
        <time>2011-05-08T06:41:30Z</time>
      </trkpt>
      <trkpt lat="48.99033" lon="1.05566">
        <ele>103</ele>
        <time>2011-05-08T06:41:31Z</time>
      </trkpt>
      <trkpt lat="48.99031" lon="1.05566">
        <ele>107.81</ele>
        <time>2011-05-08T06:41:32Z</time>
      </trkpt>
      <trkpt lat="48.9903" lon="1.05566">
        <ele>104.92</ele>
        <time>2011-05-08T06:41:33Z</time>
      </trkpt>
      <trkpt lat="48.9902" lon="1.05564">
        <ele>110.69</ele>
        <time>2011-05-08T06:41:39Z</time>
      </trkpt>
      <trkpt lat="48.99018" lon="1.05564">
        <ele>108.29</ele>
        <time>2011-05-08T06:41:40Z</time>
      </trkpt>
      <trkpt lat="48.99005" lon="1.05562">
        <ele>107.81</ele>
        <time>2011-05-08T06:41:46Z</time>
      </trkpt>
      <trkpt lat="48.99004" lon="1.05562">
        <ele>113.09</ele>
        <time>2011-05-08T06:41:47Z</time>
      </trkpt>
      <trkpt lat="48.99002" lon="1.05562">
        <ele>108.29</ele>
        <time>2011-05-08T06:41:48Z</time>
      </trkpt>
      <trkpt lat="48.99001" lon="1.05562">
        <ele>112.13</ele>
        <time>2011-05-08T06:41:49Z</time>
      </trkpt>
      <trkpt lat="48.99" lon="1.05563">
        <ele>112.61</ele>
        <time>2011-05-08T06:41:50Z</time>
      </trkpt>
      <trkpt lat="48.98995" lon="1.05564">
        <ele>108.29</ele>
        <time>2011-05-08T06:41:53Z</time>
      </trkpt>
      <trkpt lat="48.98991" lon="1.05565">
        <ele>114.05</ele>
        <time>2011-05-08T06:41:56Z</time>
      </trkpt>
      <trkpt lat="48.98989" lon="1.05567">
        <ele>116.94</ele>
        <time>2011-05-08T06:41:57Z</time>
      </trkpt>
      <trkpt lat="48.98987" lon="1.05569">
        <ele>113.09</ele>
        <time>2011-05-08T06:41:58Z</time>
      </trkpt>
      <trkpt lat="48.98984" lon="1.0557">
        <ele>110.21</ele>
        <time>2011-05-08T06:41:59Z</time>
      </trkpt>
      <trkpt lat="48.98982" lon="1.05572">
        <ele>114.53</ele>
        <time>2011-05-08T06:42:01Z</time>
      </trkpt>
      <trkpt lat="48.98981" lon="1.05573">
        <ele>114.05</ele>
        <time>2011-05-08T06:42:02Z</time>
      </trkpt>
      <trkpt lat="48.98979" lon="1.05574">
        <ele>111.65</ele>
        <time>2011-05-08T06:42:03Z</time>
      </trkpt>
      <trkpt lat="48.98976" lon="1.05576">
        <ele>108.77</ele>
        <time>2011-05-08T06:42:05Z</time>
      </trkpt>
      <trkpt lat="48.98968" lon="1.0558">
        <ele>114.53</ele>
        <time>2011-05-08T06:42:09Z</time>
      </trkpt>
      <trkpt lat="48.98966" lon="1.05581">
        <ele>115.01</ele>
        <time>2011-05-08T06:42:10Z</time>
      </trkpt>
      <trkpt lat="48.98964" lon="1.0558">
        <ele>118.86</ele>
        <time>2011-05-08T06:42:12Z</time>
      </trkpt>
      <trkpt lat="48.98962" lon="1.05581">
        <ele>116.94</ele>
        <time>2011-05-08T06:42:13Z</time>
      </trkpt>
      <trkpt lat="48.98959" lon="1.05584">
        <ele>120.3</ele>
        <time>2011-05-08T06:42:15Z</time>
      </trkpt>
      <trkpt lat="48.98957" lon="1.05586">
        <ele>116.46</ele>
        <time>2011-05-08T06:42:16Z</time>
      </trkpt>
      <trkpt lat="48.98953" lon="1.05589">
        <ele>112.61</ele>
        <time>2011-05-08T06:42:18Z</time>
      </trkpt>
      <trkpt lat="48.98952" lon="1.0559">
        <ele>116.46</ele>
        <time>2011-05-08T06:42:19Z</time>
      </trkpt>
      <trkpt lat="48.98941" lon="1.05595">
        <ele>120.3</ele>
        <time>2011-05-08T06:42:27Z</time>
      </trkpt>
      <trkpt lat="48.98939" lon="1.05596">
        <ele>119.34</ele>
        <time>2011-05-08T06:42:28Z</time>
      </trkpt>
      <trkpt lat="48.98927" lon="1.05602">
        <ele>116.94</ele>
        <time>2011-05-08T06:42:35Z</time>
      </trkpt>
      <trkpt lat="48.98921" lon="1.05603">
        <ele>116.94</ele>
        <time>2011-05-08T06:42:38Z</time>
      </trkpt>
      <trkpt lat="48.98919" lon="1.05604">
        <ele>125.59</ele>
        <time>2011-05-08T06:42:39Z</time>
      </trkpt>
      <trkpt lat="48.98917" lon="1.05606">
        <ele>119.34</ele>
        <time>2011-05-08T06:42:40Z</time>
      </trkpt>
      <trkpt lat="48.98916" lon="1.05607">
        <ele>119.82</ele>
        <time>2011-05-08T06:42:41Z</time>
      </trkpt>
      <trkpt lat="48.98913" lon="1.0561">
        <ele>122.22</ele>
        <time>2011-05-08T06:42:43Z</time>
      </trkpt>
      <trkpt lat="48.98912" lon="1.05611">
        <ele>115.98</ele>
        <time>2011-05-08T06:42:44Z</time>
      </trkpt>
      <trkpt lat="48.9891" lon="1.05612">
        <ele>117.9</ele>
        <time>2011-05-08T06:42:45Z</time>
      </trkpt>
      <trkpt lat="48.98907" lon="1.05614">
        <ele>119.82</ele>
        <time>2011-05-08T06:42:47Z</time>
      </trkpt>
      <trkpt lat="48.98903" lon="1.05616">
        <ele>116.46</ele>
        <time>2011-05-08T06:42:50Z</time>
      </trkpt>
      <trkpt lat="48.98901" lon="1.05617">
        <ele>122.22</ele>
        <time>2011-05-08T06:42:51Z</time>
      </trkpt>
      <trkpt lat="48.98899" lon="1.05618">
        <ele>120.78</ele>
        <time>2011-05-08T06:42:52Z</time>
      </trkpt>
      <trkpt lat="48.98896" lon="1.0562">
        <ele>120.3</ele>
        <time>2011-05-08T06:42:54Z</time>
      </trkpt>
      <trkpt lat="48.98893" lon="1.05622">
        <ele>124.15</ele>
        <time>2011-05-08T06:42:56Z</time>
      </trkpt>
      <trkpt lat="48.98892" lon="1.05623">
        <ele>119.34</ele>
        <time>2011-05-08T06:42:57Z</time>
      </trkpt>
      <trkpt lat="48.98885" lon="1.05629">
        <ele>125.11</ele>
        <time>2011-05-08T06:43:02Z</time>
      </trkpt>
      <trkpt lat="48.98883" lon="1.05631">
        <ele>123.67</ele>
        <time>2011-05-08T06:43:03Z</time>
      </trkpt>
      <trkpt lat="48.98878" lon="1.05639">
        <ele>120.3</ele>
        <time>2011-05-08T06:43:07Z</time>
      </trkpt>
      <trkpt lat="48.98877" lon="1.0564">
        <ele>121.26</ele>
        <time>2011-05-08T06:43:08Z</time>
      </trkpt>
      <trkpt lat="48.9887" lon="1.05647">
        <ele>124.15</ele>
        <time>2011-05-08T06:43:13Z</time>
      </trkpt>
      <trkpt lat="48.98856" lon="1.05674">
        <ele>122.22</ele>
        <time>2011-05-08T06:43:27Z</time>
      </trkpt>
      <trkpt lat="48.98852" lon="1.05682">
        <ele>126.07</ele>
        <time>2011-05-08T06:43:30Z</time>
      </trkpt>
      <trkpt lat="48.98848" lon="1.0569">
        <ele>122.71</ele>
        <time>2011-05-08T06:43:32Z</time>
      </trkpt>
      <trkpt lat="48.98845" lon="1.05697">
        <ele>127.03</ele>
        <time>2011-05-08T06:43:34Z</time>
      </trkpt>
      <trkpt lat="48.98843" lon="1.05703">
        <ele>123.19</ele>
        <time>2011-05-08T06:43:36Z</time>
      </trkpt>
      <trkpt lat="48.98842" lon="1.05706">
        <ele>127.99</ele>
        <time>2011-05-08T06:43:37Z</time>
      </trkpt>
      <trkpt lat="48.98841" lon="1.05709">
        <ele>126.07</ele>
        <time>2011-05-08T06:43:38Z</time>
      </trkpt>
      <trkpt lat="48.98832" lon="1.05725">
        <ele>122.71</ele>
        <time>2011-05-08T06:43:43Z</time>
      </trkpt>
      <trkpt lat="48.9883" lon="1.05728">
        <ele>128.47</ele>
        <time>2011-05-08T06:43:44Z</time>
      </trkpt>
      <trkpt lat="48.98829" lon="1.05731">
        <ele>124.15</ele>
        <time>2011-05-08T06:43:45Z</time>
      </trkpt>
      <trkpt lat="48.98822" lon="1.05745">
        <ele>122.71</ele>
        <time>2011-05-08T06:43:50Z</time>
      </trkpt>
      <trkpt lat="48.98821" lon="1.05748">
        <ele>126.07</ele>
        <time>2011-05-08T06:43:51Z</time>
      </trkpt>
      <trkpt lat="48.9882" lon="1.05752">
        <ele>124.63</ele>
        <time>2011-05-08T06:43:52Z</time>
      </trkpt>
      <trkpt lat="48.98807" lon="1.05781">
        <ele>129.43</ele>
        <time>2011-05-08T06:44:02Z</time>
      </trkpt>
      <trkpt lat="48.98801" lon="1.05794">
        <ele>123.67</ele>
        <time>2011-05-08T06:44:06Z</time>
      </trkpt>
      <trkpt lat="48.988" lon="1.05798">
        <ele>125.11</ele>
        <time>2011-05-08T06:44:07Z</time>
      </trkpt>
      <trkpt lat="48.98798" lon="1.05801">
        <ele>127.99</ele>
        <time>2011-05-08T06:44:08Z</time>
      </trkpt>
      <trkpt lat="48.98797" lon="1.05804">
        <ele>127.99</ele>
        <time>2011-05-08T06:44:09Z</time>
      </trkpt>
      <trkpt lat="48.98794" lon="1.0581">
        <ele>125.11</ele>
        <time>2011-05-08T06:44:11Z</time>
      </trkpt>
      <trkpt lat="48.98792" lon="1.05812">
        <ele>129.43</ele>
        <time>2011-05-08T06:44:12Z</time>
      </trkpt>
      <trkpt lat="48.98787" lon="1.05823">
        <ele>125.59</ele>
        <time>2011-05-08T06:44:16Z</time>
      </trkpt>
      <trkpt lat="48.98786" lon="1.05825">
        <ele>127.03</ele>
        <time>2011-05-08T06:44:17Z</time>
      </trkpt>
      <trkpt lat="48.9878" lon="1.05838">
        <ele>128.47</ele>
        <time>2011-05-08T06:44:23Z</time>
      </trkpt>
      <trkpt lat="48.98779" lon="1.05845">
        <ele>127.51</ele>
        <time>2011-05-08T06:44:26Z</time>
      </trkpt>
      <trkpt lat="48.98783" lon="1.05841">
        <ele>127.51</ele>
        <time>2011-05-08T06:44:30Z</time>
      </trkpt>
      <trkpt lat="48.98786" lon="1.05834">
        <ele>126.55</ele>
        <time>2011-05-08T06:44:32Z</time>
      </trkpt>
      <trkpt lat="48.98787" lon="1.05827">
        <ele>127.99</ele>
        <time>2011-05-08T06:44:34Z</time>
      </trkpt>
      <trkpt lat="48.98771" lon="1.05859">
        <ele>127.51</ele>
        <time>2011-05-08T06:44:46Z</time>
      </trkpt>
      <trkpt lat="48.98759" lon="1.05886">
        <ele>131.36</ele>
        <time>2011-05-08T06:44:54Z</time>
      </trkpt>
      <trkpt lat="48.98757" lon="1.0589">
        <ele>129.43</ele>
        <time>2011-05-08T06:44:55Z</time>
      </trkpt>
      <trkpt lat="48.98754" lon="1.05897">
        <ele>126.07</ele>
        <time>2011-05-08T06:44:57Z</time>
      </trkpt>
      <trkpt lat="48.98751" lon="1.05905">
        <ele>130.4</ele>
        <time>2011-05-08T06:44:59Z</time>
      </trkpt>
      <trkpt lat="48.98749" lon="1.05908">
        <ele>129.43</ele>
        <time>2011-05-08T06:45:00Z</time>
      </trkpt>
      <trkpt lat="48.98724" lon="1.05957">
        <ele>128.95</ele>
        <time>2011-05-08T06:45:12Z</time>
      </trkpt>
      <trkpt lat="48.9872" lon="1.05966">
        <ele>133.28</ele>
        <time>2011-05-08T06:45:14Z</time>
      </trkpt>
      <trkpt lat="48.98713" lon="1.0598">
        <ele>129.92</ele>
        <time>2011-05-08T06:45:17Z</time>
      </trkpt>
      <trkpt lat="48.98686" lon="1.06037">
        <ele>129.92</ele>
        <time>2011-05-08T06:45:29Z</time>
      </trkpt>
      <trkpt lat="48.98684" lon="1.06041">
        <ele>130.4</ele>
        <time>2011-05-08T06:45:30Z</time>
      </trkpt>
      <trkpt lat="48.98678" lon="1.06054">
        <ele>129.43</ele>
        <time>2011-05-08T06:45:33Z</time>
      </trkpt>
      <trkpt lat="48.98673" lon="1.06065">
        <ele>127.51</ele>
        <time>2011-05-08T06:45:35Z</time>
      </trkpt>
      <trkpt lat="48.98668" lon="1.06077">
        <ele>130.4</ele>
        <time>2011-05-08T06:45:37Z</time>
      </trkpt>
      <trkpt lat="48.98638" lon="1.06144">
        <ele>129.43</ele>
        <time>2011-05-08T06:45:49Z</time>
      </trkpt>
      <trkpt lat="48.98632" lon="1.06157">
        <ele>131.84</ele>
        <time>2011-05-08T06:45:51Z</time>
      </trkpt>
      <trkpt lat="48.98629" lon="1.06164">
        <ele>128.95</ele>
        <time>2011-05-08T06:45:52Z</time>
      </trkpt>
      <trkpt lat="48.98623" lon="1.06176">
        <ele>128.95</ele>
        <time>2011-05-08T06:45:54Z</time>
      </trkpt>
      <trkpt lat="48.9861" lon="1.06201">
        <ele>128.95</ele>
        <time>2011-05-08T06:45:58Z</time>
      </trkpt>
      <trkpt lat="48.98592" lon="1.0624">
        <ele>129.43</ele>
        <time>2011-05-08T06:46:03Z</time>
      </trkpt>
      <trkpt lat="48.98559" lon="1.06312">
        <ele>127.03</ele>
        <time>2011-05-08T06:46:14Z</time>
      </trkpt>
      <trkpt lat="48.98544" lon="1.06341">
        <ele>132.32</ele>
        <time>2011-05-08T06:46:18Z</time>
      </trkpt>
      <trkpt lat="48.98529" lon="1.06377">
        <ele>130.88</ele>
        <time>2011-05-08T06:46:23Z</time>
      </trkpt>
      <trkpt lat="48.98523" lon="1.0639">
        <ele>132.32</ele>
        <time>2011-05-08T06:46:25Z</time>
      </trkpt>
      <trkpt lat="48.98503" lon="1.06431">
        <ele>128.95</ele>
        <time>2011-05-08T06:46:31Z</time>
      </trkpt>
      <trkpt lat="48.98497" lon="1.06444">
        <ele>129.92</ele>
        <time>2011-05-08T06:46:33Z</time>
      </trkpt>
      <trkpt lat="48.98474" lon="1.0649">
        <ele>131.84</ele>
        <time>2011-05-08T06:46:40Z</time>
      </trkpt>
      <trkpt lat="48.98469" lon="1.06503">
        <ele>130.4</ele>
        <time>2011-05-08T06:46:42Z</time>
      </trkpt>
      <trkpt lat="48.98455" lon="1.06534">
        <ele>134.24</ele>
        <time>2011-05-08T06:46:47Z</time>
      </trkpt>
      <trkpt lat="48.98438" lon="1.0657">
        <ele>130.88</ele>
        <time>2011-05-08T06:46:53Z</time>
      </trkpt>
      <trkpt lat="48.98436" lon="1.06576">
        <ele>130.88</ele>
        <time>2011-05-08T06:46:54Z</time>
      </trkpt>
      <trkpt lat="48.98428" lon="1.06593">
        <ele>130.88</ele>
        <time>2011-05-08T06:46:57Z</time>
      </trkpt>
      <trkpt lat="48.9842" lon="1.06611">
        <ele>134.72</ele>
        <time>2011-05-08T06:47:00Z</time>
      </trkpt>
      <trkpt lat="48.98412" lon="1.0663">
        <ele>131.36</ele>
        <time>2011-05-08T06:47:03Z</time>
      </trkpt>
      <trkpt lat="48.98407" lon="1.06642">
        <ele>136.16</ele>
        <time>2011-05-08T06:47:05Z</time>
      </trkpt>
      <trkpt lat="48.98399" lon="1.06657">
        <ele>132.8</ele>
        <time>2011-05-08T06:47:08Z</time>
      </trkpt>
      <trkpt lat="48.98393" lon="1.06667">
        <ele>132.8</ele>
        <time>2011-05-08T06:47:10Z</time>
      </trkpt>
      <trkpt lat="48.98372" lon="1.06715">
        <ele>134.72</ele>
        <time>2011-05-08T06:47:18Z</time>
      </trkpt>
      <trkpt lat="48.98361" lon="1.06739">
        <ele>131.36</ele>
        <time>2011-05-08T06:47:22Z</time>
      </trkpt>
      <trkpt lat="48.98345" lon="1.06773">
        <ele>135.2</ele>
        <time>2011-05-08T06:47:28Z</time>
      </trkpt>
      <trkpt lat="48.98316" lon="1.06835">
        <ele>135.68</ele>
        <time>2011-05-08T06:47:38Z</time>
      </trkpt>
      <trkpt lat="48.98285" lon="1.06902">
        <ele>137.13</ele>
        <time>2011-05-08T06:47:49Z</time>
      </trkpt>
      <trkpt lat="48.98262" lon="1.06953">
        <ele>134.72</ele>
        <time>2011-05-08T06:47:58Z</time>
      </trkpt>
      <trkpt lat="48.98242" lon="1.06994">
        <ele>137.61</ele>
        <time>2011-05-08T06:48:05Z</time>
      </trkpt>
      <trkpt lat="48.98237" lon="1.07003">
        <ele>132.32</ele>
        <time>2011-05-08T06:48:07Z</time>
      </trkpt>
      <trkpt lat="48.98235" lon="1.07008">
        <ele>135.2</ele>
        <time>2011-05-08T06:48:08Z</time>
      </trkpt>
      <trkpt lat="48.98211" lon="1.0706">
        <ele>137.13</ele>
        <time>2011-05-08T06:48:17Z</time>
      </trkpt>
      <trkpt lat="48.98201" lon="1.07082">
        <ele>137.13</ele>
        <time>2011-05-08T06:48:20Z</time>
      </trkpt>
      <trkpt lat="48.98194" lon="1.07095">
        <ele>133.28</ele>
        <time>2011-05-08T06:48:22Z</time>
      </trkpt>
      <trkpt lat="48.98191" lon="1.07102">
        <ele>135.68</ele>
        <time>2011-05-08T06:48:23Z</time>
      </trkpt>
      <trkpt lat="48.98183" lon="1.07121">
        <ele>137.13</ele>
        <time>2011-05-08T06:48:26Z</time>
      </trkpt>
      <trkpt lat="48.98171" lon="1.07147">
        <ele>139.05</ele>
        <time>2011-05-08T06:48:30Z</time>
      </trkpt>
      <trkpt lat="48.98167" lon="1.07155">
        <ele>135.68</ele>
        <time>2011-05-08T06:48:31Z</time>
      </trkpt>
      <trkpt lat="48.98164" lon="1.07162">
        <ele>136.64</ele>
        <time>2011-05-08T06:48:32Z</time>
      </trkpt>
      <trkpt lat="48.98153" lon="1.07183">
        <ele>137.61</ele>
        <time>2011-05-08T06:48:35Z</time>
      </trkpt>
      <trkpt lat="48.98148" lon="1.07195">
        <ele>135.68</ele>
        <time>2011-05-08T06:48:37Z</time>
      </trkpt>
      <trkpt lat="48.98137" lon="1.07219">
        <ele>135.2</ele>
        <time>2011-05-08T06:48:41Z</time>
      </trkpt>
      <trkpt lat="48.98115" lon="1.07265">
        <ele>136.16</ele>
        <time>2011-05-08T06:48:48Z</time>
      </trkpt>
      <trkpt lat="48.98109" lon="1.07277">
        <ele>135.2</ele>
        <time>2011-05-08T06:48:50Z</time>
      </trkpt>
      <trkpt lat="48.98092" lon="1.07313">
        <ele>135.68</ele>
        <time>2011-05-08T06:48:56Z</time>
      </trkpt>
      <trkpt lat="48.98089" lon="1.0732">
        <ele>138.09</ele>
        <time>2011-05-08T06:48:57Z</time>
      </trkpt>
      <trkpt lat="48.98076" lon="1.07349">
        <ele>137.61</ele>
        <time>2011-05-08T06:49:02Z</time>
      </trkpt>
      <trkpt lat="48.98071" lon="1.07361">
        <ele>138.09</ele>
        <time>2011-05-08T06:49:04Z</time>
      </trkpt>
      <trkpt lat="48.98062" lon="1.07379">
        <ele>135.68</ele>
        <time>2011-05-08T06:49:07Z</time>
      </trkpt>
      <trkpt lat="48.98058" lon="1.07386">
        <ele>139.05</ele>
        <time>2011-05-08T06:49:08Z</time>
      </trkpt>
      <trkpt lat="48.98037" lon="1.07436">
        <ele>136.64</ele>
        <time>2011-05-08T06:49:16Z</time>
      </trkpt>
      <trkpt lat="48.98031" lon="1.07447">
        <ele>136.64</ele>
        <time>2011-05-08T06:49:18Z</time>
      </trkpt>
      <trkpt lat="48.98028" lon="1.07453">
        <ele>140.97</ele>
        <time>2011-05-08T06:49:19Z</time>
      </trkpt>
      <trkpt lat="48.98022" lon="1.07465">
        <ele>137.13</ele>
        <time>2011-05-08T06:49:21Z</time>
      </trkpt>
      <trkpt lat="48.98019" lon="1.07472">
        <ele>138.09</ele>
        <time>2011-05-08T06:49:22Z</time>
      </trkpt>
      <trkpt lat="48.98011" lon="1.07491">
        <ele>140.97</ele>
        <time>2011-05-08T06:49:25Z</time>
      </trkpt>
      <trkpt lat="48.98002" lon="1.0751">
        <ele>136.64</ele>
        <time>2011-05-08T06:49:28Z</time>
      </trkpt>
      <trkpt lat="48.97999" lon="1.07516">
        <ele>137.61</ele>
        <time>2011-05-08T06:49:29Z</time>
      </trkpt>
      <trkpt lat="48.97993" lon="1.0753">
        <ele>140.97</ele>
        <time>2011-05-08T06:49:31Z</time>
      </trkpt>
      <trkpt lat="48.9799" lon="1.07536">
        <ele>137.61</ele>
        <time>2011-05-08T06:49:32Z</time>
      </trkpt>
      <trkpt lat="48.97981" lon="1.07555">
        <ele>139.05</ele>
        <time>2011-05-08T06:49:35Z</time>
      </trkpt>
      <trkpt lat="48.97951" lon="1.07619">
        <ele>139.05</ele>
        <time>2011-05-08T06:49:46Z</time>
      </trkpt>
      <trkpt lat="48.97942" lon="1.07637">
        <ele>139.53</ele>
        <time>2011-05-08T06:49:49Z</time>
      </trkpt>
      <trkpt lat="48.97929" lon="1.07664">
        <ele>139.53</ele>
        <time>2011-05-08T06:49:53Z</time>
      </trkpt>
      <trkpt lat="48.979" lon="1.07726">
        <ele>141.93</ele>
        <time>2011-05-08T06:50:03Z</time>
      </trkpt>
      <trkpt lat="48.97892" lon="1.07743">
        <ele>140.49</ele>
        <time>2011-05-08T06:50:06Z</time>
      </trkpt>
      <trkpt lat="48.97886" lon="1.07755">
        <ele>141.45</ele>
        <time>2011-05-08T06:50:08Z</time>
      </trkpt>
      <trkpt lat="48.97876" lon="1.07775">
        <ele>141.93</ele>
        <time>2011-05-08T06:50:11Z</time>
      </trkpt>
      <trkpt lat="48.97865" lon="1.07801">
        <ele>140.01</ele>
        <time>2011-05-08T06:50:15Z</time>
      </trkpt>
      <trkpt lat="48.97837" lon="1.07862">
        <ele>142.89</ele>
        <time>2011-05-08T06:50:24Z</time>
      </trkpt>
      <trkpt lat="48.97832" lon="1.07875">
        <ele>140.97</ele>
        <time>2011-05-08T06:50:26Z</time>
      </trkpt>
      <trkpt lat="48.97823" lon="1.07894">
        <ele>146.26</ele>
        <time>2011-05-08T06:50:29Z</time>
      </trkpt>
      <trkpt lat="48.9782" lon="1.07899">
        <ele>140.01</ele>
        <time>2011-05-08T06:50:30Z</time>
      </trkpt>
      <trkpt lat="48.97811" lon="1.07918">
        <ele>143.85</ele>
        <time>2011-05-08T06:50:33Z</time>
      </trkpt>
      <trkpt lat="48.97802" lon="1.07938">
        <ele>139.53</ele>
        <time>2011-05-08T06:50:36Z</time>
      </trkpt>
      <trkpt lat="48.97798" lon="1.07946">
        <ele>141.45</ele>
        <time>2011-05-08T06:50:37Z</time>
      </trkpt>
      <trkpt lat="48.97786" lon="1.07975">
        <ele>142.41</ele>
        <time>2011-05-08T06:50:41Z</time>
      </trkpt>
      <trkpt lat="48.97742" lon="1.08066">
        <ele>143.37</ele>
        <time>2011-05-08T06:50:54Z</time>
      </trkpt>
      <trkpt lat="48.97728" lon="1.08099">
        <ele>138.57</ele>
        <time>2011-05-08T06:50:58Z</time>
      </trkpt>
      <trkpt lat="48.97722" lon="1.08114">
        <ele>141.93</ele>
        <time>2011-05-08T06:51:00Z</time>
      </trkpt>
      <trkpt lat="48.97677" lon="1.0821">
        <ele>140.01</ele>
        <time>2011-05-08T06:51:13Z</time>
      </trkpt>
      <trkpt lat="48.9767" lon="1.08223">
        <ele>142.41</ele>
        <time>2011-05-08T06:51:15Z</time>
      </trkpt>
      <trkpt lat="48.97661" lon="1.08243">
        <ele>140.49</ele>
        <time>2011-05-08T06:51:18Z</time>
      </trkpt>
      <trkpt lat="48.97627" lon="1.08316">
        <ele>140.49</ele>
        <time>2011-05-08T06:51:28Z</time>
      </trkpt>
      <trkpt lat="48.97566" lon="1.08442">
        <ele>138.09</ele>
        <time>2011-05-08T06:51:43Z</time>
      </trkpt>
      <trkpt lat="48.97515" lon="1.08547">
        <ele>135.68</ele>
        <time>2011-05-08T06:51:55Z</time>
      </trkpt>
      <trkpt lat="48.97494" lon="1.08589">
        <ele>136.16</ele>
        <time>2011-05-08T06:52:00Z</time>
      </trkpt>
      <trkpt lat="48.97485" lon="1.08604">
        <ele>135.2</ele>
        <time>2011-05-08T06:52:02Z</time>
      </trkpt>
      <trkpt lat="48.97476" lon="1.0862">
        <ele>135.2</ele>
        <time>2011-05-08T06:52:04Z</time>
      </trkpt>
      <trkpt lat="48.97466" lon="1.08643">
        <ele>134.72</ele>
        <time>2011-05-08T06:52:07Z</time>
      </trkpt>
      <trkpt lat="48.97459" lon="1.08658">
        <ele>136.16</ele>
        <time>2011-05-08T06:52:09Z</time>
      </trkpt>
      <trkpt lat="48.97442" lon="1.08664">
        <ele>134.72</ele>
        <time>2011-05-08T06:52:12Z</time>
      </trkpt>
      <trkpt lat="48.97437" lon="1.08659">
        <ele>136.64</ele>
        <time>2011-05-08T06:52:13Z</time>
      </trkpt>
      <trkpt lat="48.97356" lon="1.08548">
        <ele>134.24</ele>
        <time>2011-05-08T06:52:31Z</time>
      </trkpt>
      <trkpt lat="48.97296" lon="1.08484">
        <ele>137.61</ele>
        <time>2011-05-08T06:52:44Z</time>
      </trkpt>
      <trkpt lat="48.97291" lon="1.0848">
        <ele>132.8</ele>
        <time>2011-05-08T06:52:45Z</time>
      </trkpt>
      <trkpt lat="48.97285" lon="1.08476">
        <ele>136.16</ele>
        <time>2011-05-08T06:52:46Z</time>
      </trkpt>
      <trkpt lat="48.97254" lon="1.08451">
        <ele>136.64</ele>
        <time>2011-05-08T06:52:52Z</time>
      </trkpt>
      <trkpt lat="48.97222" lon="1.08429">
        <ele>132.8</ele>
        <time>2011-05-08T06:52:58Z</time>
      </trkpt>
      <trkpt lat="48.97217" lon="1.08425">
        <ele>133.76</ele>
        <time>2011-05-08T06:52:59Z</time>
      </trkpt>
      <trkpt lat="48.97207" lon="1.08417">
        <ele>134.72</ele>
        <time>2011-05-08T06:53:01Z</time>
      </trkpt>
      <trkpt lat="48.97167" lon="1.08385">
        <ele>138.57</ele>
        <time>2011-05-08T06:53:09Z</time>
      </trkpt>
      <trkpt lat="48.97162" lon="1.08381">
        <ele>135.68</ele>
        <time>2011-05-08T06:53:10Z</time>
      </trkpt>
      <trkpt lat="48.97152" lon="1.08373">
        <ele>133.76</ele>
        <time>2011-05-08T06:53:12Z</time>
      </trkpt>
      <trkpt lat="48.97141" lon="1.08365">
        <ele>135.2</ele>
        <time>2011-05-08T06:53:14Z</time>
      </trkpt>
      <trkpt lat="48.97015" lon="1.08271">
        <ele>134.72</ele>
        <time>2011-05-08T06:53:39Z</time>
      </trkpt>
      <trkpt lat="48.97005" lon="1.08263">
        <ele>138.09</ele>
        <time>2011-05-08T06:53:41Z</time>
      </trkpt>
      <trkpt lat="48.96983" lon="1.08238">
        <ele>135.2</ele>
        <time>2011-05-08T06:53:46Z</time>
      </trkpt>
      <trkpt lat="48.96964" lon="1.08196">
        <ele>134.72</ele>
        <time>2011-05-08T06:53:52Z</time>
      </trkpt>
      <trkpt lat="48.96959" lon="1.08181">
        <ele>138.57</ele>
        <time>2011-05-08T06:53:54Z</time>
      </trkpt>
      <trkpt lat="48.96954" lon="1.08167">
        <ele>136.64</ele>
        <time>2011-05-08T06:53:56Z</time>
      </trkpt>
      <trkpt lat="48.9695" lon="1.08151">
        <ele>138.09</ele>
        <time>2011-05-08T06:53:58Z</time>
      </trkpt>
      <trkpt lat="48.9694" lon="1.08121">
        <ele>139.05</ele>
        <time>2011-05-08T06:54:02Z</time>
      </trkpt>
      <trkpt lat="48.96935" lon="1.08105">
        <ele>136.64</ele>
        <time>2011-05-08T06:54:04Z</time>
      </trkpt>
      <trkpt lat="48.96926" lon="1.08073">
        <ele>140.49</ele>
        <time>2011-05-08T06:54:08Z</time>
      </trkpt>
      <trkpt lat="48.96923" lon="1.08065">
        <ele>139.05</ele>
        <time>2011-05-08T06:54:09Z</time>
      </trkpt>
      <trkpt lat="48.96901" lon="1.07993">
        <ele>135.68</ele>
        <time>2011-05-08T06:54:18Z</time>
      </trkpt>
      <trkpt lat="48.96884" lon="1.07935">
        <ele>139.53</ele>
        <time>2011-05-08T06:54:25Z</time>
      </trkpt>
      <trkpt lat="48.96883" lon="1.07926">
        <ele>137.61</ele>
        <time>2011-05-08T06:54:26Z</time>
      </trkpt>
      <trkpt lat="48.96876" lon="1.0782">
        <ele>137.13</ele>
        <time>2011-05-08T06:54:37Z</time>
      </trkpt>
      <trkpt lat="48.96877" lon="1.078">
        <ele>137.13</ele>
        <time>2011-05-08T06:54:39Z</time>
      </trkpt>
      <trkpt lat="48.96918" lon="1.07676">
        <ele>135.2</ele>
        <time>2011-05-08T06:54:52Z</time>
      </trkpt>
      <trkpt lat="48.96925" lon="1.07657">
        <ele>133.76</ele>
        <time>2011-05-08T06:54:54Z</time>
      </trkpt>
      <trkpt lat="48.96915" lon="1.07611">
        <ele>133.28</ele>
        <time>2011-05-08T06:54:59Z</time>
      </trkpt>
      <trkpt lat="48.96872" lon="1.07636">
        <ele>129.92</ele>
        <time>2011-05-08T06:55:04Z</time>
      </trkpt>
      <trkpt lat="48.96859" lon="1.07656">
        <ele>129.43</ele>
        <time>2011-05-08T06:55:06Z</time>
      </trkpt>
      <trkpt lat="48.96821" lon="1.07741">
        <ele>126.07</ele>
        <time>2011-05-08T06:55:13Z</time>
      </trkpt>
      <trkpt lat="48.96793" lon="1.07784">
        <ele>121.26</ele>
        <time>2011-05-08T06:55:17Z</time>
      </trkpt>
      <trkpt lat="48.96776" lon="1.07801">
        <ele>121.74</ele>
        <time>2011-05-08T06:55:19Z</time>
      </trkpt>
      <trkpt lat="48.96728" lon="1.07822">
        <ele>120.78</ele>
        <time>2011-05-08T06:55:24Z</time>
      </trkpt>
      <trkpt lat="48.96707" lon="1.07824">
        <ele>116.46</ele>
        <time>2011-05-08T06:55:26Z</time>
      </trkpt>
      <trkpt lat="48.96697" lon="1.07825">
        <ele>116.94</ele>
        <time>2011-05-08T06:55:27Z</time>
      </trkpt>
      <trkpt lat="48.96687" lon="1.07826">
        <ele>119.82</ele>
        <time>2011-05-08T06:55:28Z</time>
      </trkpt>
      <trkpt lat="48.96668" lon="1.07829">
        <ele>113.09</ele>
        <time>2011-05-08T06:55:30Z</time>
      </trkpt>
      <trkpt lat="48.96642" lon="1.07825">
        <ele>118.38</ele>
        <time>2011-05-08T06:55:33Z</time>
      </trkpt>
      <trkpt lat="48.96627" lon="1.07807">
        <ele>115.01</ele>
        <time>2011-05-08T06:55:35Z</time>
      </trkpt>
      <trkpt lat="48.96609" lon="1.07772">
        <ele>114.05</ele>
        <time>2011-05-08T06:55:38Z</time>
      </trkpt>
      <trkpt lat="48.96588" lon="1.07736">
        <ele>115.98</ele>
        <time>2011-05-08T06:55:42Z</time>
      </trkpt>
      <trkpt lat="48.9656" lon="1.07686">
        <ele>119.82</ele>
        <time>2011-05-08T06:55:49Z</time>
      </trkpt>
      <trkpt lat="48.96548" lon="1.07661">
        <ele>118.86</ele>
        <time>2011-05-08T06:55:53Z</time>
      </trkpt>
      <trkpt lat="48.96536" lon="1.07637">
        <ele>122.71</ele>
        <time>2011-05-08T06:55:57Z</time>
      </trkpt>
      <trkpt lat="48.96495" lon="1.07539">
        <ele>125.59</ele>
        <time>2011-05-08T06:56:14Z</time>
      </trkpt>
      <trkpt lat="48.9649" lon="1.07528">
        <ele>127.03</ele>
        <time>2011-05-08T06:56:16Z</time>
      </trkpt>
      <trkpt lat="48.96446" lon="1.07424">
        <ele>126.55</ele>
        <time>2011-05-08T06:56:34Z</time>
      </trkpt>
      <trkpt lat="48.96444" lon="1.07419">
        <ele>130.88</ele>
        <time>2011-05-08T06:56:35Z</time>
      </trkpt>
      <trkpt lat="48.96441" lon="1.07413">
        <ele>129.92</ele>
        <time>2011-05-08T06:56:36Z</time>
      </trkpt>
      <trkpt lat="48.96436" lon="1.07401">
        <ele>127.99</ele>
        <time>2011-05-08T06:56:38Z</time>
      </trkpt>
      <trkpt lat="48.96431" lon="1.07389">
        <ele>131.36</ele>
        <time>2011-05-08T06:56:40Z</time>
      </trkpt>
      <trkpt lat="48.96429" lon="1.07383">
        <ele>129.92</ele>
        <time>2011-05-08T06:56:41Z</time>
      </trkpt>
      <trkpt lat="48.96424" lon="1.07372">
        <ele>126.55</ele>
        <time>2011-05-08T06:56:43Z</time>
      </trkpt>
      <trkpt lat="48.96422" lon="1.07366">
        <ele>130.88</ele>
        <time>2011-05-08T06:56:44Z</time>
      </trkpt>
      <trkpt lat="48.96407" lon="1.07331">
        <ele>126.55</ele>
        <time>2011-05-08T06:56:50Z</time>
      </trkpt>
      <trkpt lat="48.964" lon="1.07314">
        <ele>131.36</ele>
        <time>2011-05-08T06:56:53Z</time>
      </trkpt>
      <trkpt lat="48.96397" lon="1.07309">
        <ele>127.99</ele>
        <time>2011-05-08T06:56:54Z</time>
      </trkpt>
      <trkpt lat="48.96394" lon="1.07303">
        <ele>132.8</ele>
        <time>2011-05-08T06:56:55Z</time>
      </trkpt>
      <trkpt lat="48.96366" lon="1.07249">
        <ele>132.32</ele>
        <time>2011-05-08T06:57:05Z</time>
      </trkpt>
      <trkpt lat="48.96351" lon="1.07224">
        <ele>130.4</ele>
        <time>2011-05-08T06:57:10Z</time>
      </trkpt>
      <trkpt lat="48.96342" lon="1.0721">
        <ele>128.95</ele>
        <time>2011-05-08T06:57:13Z</time>
      </trkpt>
      <trkpt lat="48.96339" lon="1.07205">
        <ele>132.32</ele>
        <time>2011-05-08T06:57:14Z</time>
      </trkpt>
      <trkpt lat="48.96335" lon="1.07201">
        <ele>130.4</ele>
        <time>2011-05-08T06:57:15Z</time>
      </trkpt>
      <trkpt lat="48.96322" lon="1.07183">
        <ele>133.76</ele>
        <time>2011-05-08T06:57:19Z</time>
      </trkpt>
      <trkpt lat="48.96319" lon="1.07179">
        <ele>132.8</ele>
        <time>2011-05-08T06:57:20Z</time>
      </trkpt>
      <trkpt lat="48.9629" lon="1.07144">
        <ele>129.92</ele>
        <time>2011-05-08T06:57:28Z</time>
      </trkpt>
      <trkpt lat="48.96287" lon="1.07139">
        <ele>133.76</ele>
        <time>2011-05-08T06:57:29Z</time>
      </trkpt>
      <trkpt lat="48.96283" lon="1.07135">
        <ele>130.4</ele>
        <time>2011-05-08T06:57:30Z</time>
      </trkpt>
      <trkpt lat="48.96279" lon="1.0713">
        <ele>133.76</ele>
        <time>2011-05-08T06:57:31Z</time>
      </trkpt>
      <trkpt lat="48.96272" lon="1.07121">
        <ele>134.24</ele>
        <time>2011-05-08T06:57:33Z</time>
      </trkpt>
      <trkpt lat="48.9626" lon="1.07108">
        <ele>130.4</ele>
        <time>2011-05-08T06:57:36Z</time>
      </trkpt>
      <trkpt lat="48.96257" lon="1.07104">
        <ele>134.24</ele>
        <time>2011-05-08T06:57:37Z</time>
      </trkpt>
      <trkpt lat="48.96253" lon="1.07099">
        <ele>134.24</ele>
        <time>2011-05-08T06:57:38Z</time>
      </trkpt>
      <trkpt lat="48.96212" lon="1.07051">
        <ele>137.61</ele>
        <time>2011-05-08T06:57:49Z</time>
      </trkpt>
      <trkpt lat="48.96179" lon="1.07014">
        <ele>140.01</ele>
        <time>2011-05-08T06:57:58Z</time>
      </trkpt>
      <trkpt lat="48.96171" lon="1.07005">
        <ele>138.09</ele>
        <time>2011-05-08T06:58:00Z</time>
      </trkpt>
      <trkpt lat="48.96147" lon="1.06978">
        <ele>142.41</ele>
        <time>2011-05-08T06:58:07Z</time>
      </trkpt>
      <trkpt lat="48.96143" lon="1.06974">
        <ele>136.16</ele>
        <time>2011-05-08T06:58:08Z</time>
      </trkpt>
      <trkpt lat="48.9614" lon="1.06971">
        <ele>136.16</ele>
        <time>2011-05-08T06:58:09Z</time>
      </trkpt>
      <trkpt lat="48.96129" lon="1.06959">
        <ele>139.53</ele>
        <time>2011-05-08T06:58:12Z</time>
      </trkpt>
      <trkpt lat="48.96108" lon="1.06937">
        <ele>142.89</ele>
        <time>2011-05-08T06:58:18Z</time>
      </trkpt>
      <trkpt lat="48.96094" lon="1.06922">
        <ele>139.53</ele>
        <time>2011-05-08T06:58:22Z</time>
      </trkpt>
      <trkpt lat="48.96076" lon="1.06905">
        <ele>143.85</ele>
        <time>2011-05-08T06:58:27Z</time>
      </trkpt>
      <trkpt lat="48.96073" lon="1.06901">
        <ele>138.57</ele>
        <time>2011-05-08T06:58:28Z</time>
      </trkpt>
      <trkpt lat="48.96065" lon="1.06894">
        <ele>142.41</ele>
        <time>2011-05-08T06:58:30Z</time>
      </trkpt>
      <trkpt lat="48.96018" lon="1.06847">
        <ele>143.85</ele>
        <time>2011-05-08T06:58:43Z</time>
      </trkpt>
      <trkpt lat="48.96001" lon="1.06831">
        <ele>140.01</ele>
        <time>2011-05-08T06:58:48Z</time>
      </trkpt>
      <trkpt lat="48.95998" lon="1.06827">
        <ele>141.45</ele>
        <time>2011-05-08T06:58:49Z</time>
      </trkpt>
      <trkpt lat="48.95994" lon="1.06824">
        <ele>145.78</ele>
        <time>2011-05-08T06:58:50Z</time>
      </trkpt>
      <trkpt lat="48.95991" lon="1.06821">
        <ele>144.34</ele>
        <time>2011-05-08T06:58:51Z</time>
      </trkpt>
      <trkpt lat="48.95952" lon="1.06783">
        <ele>147.22</ele>
        <time>2011-05-08T06:59:03Z</time>
      </trkpt>
      <trkpt lat="48.95935" lon="1.06766">
        <ele>147.22</ele>
        <time>2011-05-08T06:59:08Z</time>
      </trkpt>
      <trkpt lat="48.95871" lon="1.06703">
        <ele>149.62</ele>
        <time>2011-05-08T06:59:27Z</time>
      </trkpt>
      <trkpt lat="48.95851" lon="1.06682">
        <ele>148.66</ele>
        <time>2011-05-08T06:59:33Z</time>
      </trkpt>
      <trkpt lat="48.95816" lon="1.0664">
        <ele>152.03</ele>
        <time>2011-05-08T06:59:43Z</time>
      </trkpt>
      <trkpt lat="48.9581" lon="1.06629">
        <ele>148.66</ele>
        <time>2011-05-08T06:59:45Z</time>
      </trkpt>
      <trkpt lat="48.95797" lon="1.06601">
        <ele>151.06</ele>
        <time>2011-05-08T06:59:50Z</time>
      </trkpt>
      <trkpt lat="48.95791" lon="1.0659">
        <ele>149.62</ele>
        <time>2011-05-08T06:59:52Z</time>
      </trkpt>
      <trkpt lat="48.95785" lon="1.06583">
        <ele>151.06</ele>
        <time>2011-05-08T06:59:54Z</time>
      </trkpt>
      <trkpt lat="48.95774" lon="1.06565">
        <ele>149.62</ele>
        <time>2011-05-08T06:59:58Z</time>
      </trkpt>
      <trkpt lat="48.95771" lon="1.0656">
        <ele>152.51</ele>
        <time>2011-05-08T06:59:59Z</time>
      </trkpt>
      <trkpt lat="48.95757" lon="1.0657">
        <ele>152.51</ele>
        <time>2011-05-08T07:00:04Z</time>
      </trkpt>
      <trkpt lat="48.95766" lon="1.06585">
        <ele>151.06</ele>
        <time>2011-05-08T07:00:07Z</time>
      </trkpt>
      <trkpt lat="48.95772" lon="1.06559">
        <ele>153.47</ele>
        <time>2011-05-08T07:00:12Z</time>
      </trkpt>
      <trkpt lat="48.95759" lon="1.06565">
        <ele>150.58</ele>
        <time>2011-05-08T07:00:15Z</time>
      </trkpt>
      <trkpt lat="48.95773" lon="1.06583">
        <ele>150.1</ele>
        <time>2011-05-08T07:00:20Z</time>
      </trkpt>
      <trkpt lat="48.95774" lon="1.06566">
        <ele>152.03</ele>
        <time>2011-05-08T07:00:22Z</time>
      </trkpt>
      <trkpt lat="48.95759" lon="1.0657">
        <ele>153.47</ele>
        <time>2011-05-08T07:00:27Z</time>
      </trkpt>
      <trkpt lat="48.95774" lon="1.06571">
        <ele>150.58</ele>
        <time>2011-05-08T07:00:32Z</time>
      </trkpt>
      <trkpt lat="48.95773" lon="1.06565">
        <ele>150.58</ele>
        <time>2011-05-08T07:00:33Z</time>
      </trkpt>
      <trkpt lat="48.95756" lon="1.06572">
        <ele>151.54</ele>
        <time>2011-05-08T07:00:38Z</time>
      </trkpt>
      <trkpt lat="48.95753" lon="1.06586">
        <ele>150.58</ele>
        <time>2011-05-08T07:00:40Z</time>
      </trkpt>
      <trkpt lat="48.95737" lon="1.06605">
        <ele>152.99</ele>
        <time>2011-05-08T07:00:45Z</time>
      </trkpt>
      <trkpt lat="48.95716" lon="1.06611">
        <ele>153.47</ele>
        <time>2011-05-08T07:00:50Z</time>
      </trkpt>
      <trkpt lat="48.95618" lon="1.06646">
        <ele>151.54</ele>
        <time>2011-05-08T07:01:13Z</time>
      </trkpt>
      <trkpt lat="48.95494" lon="1.06697">
        <ele>151.06</ele>
        <time>2011-05-08T07:01:38Z</time>
      </trkpt>
      <trkpt lat="48.95346" lon="1.06778">
        <ele>149.14</ele>
        <time>2011-05-08T07:02:04Z</time>
      </trkpt>
      <trkpt lat="48.95295" lon="1.06804">
        <ele>144.34</ele>
        <time>2011-05-08T07:02:12Z</time>
      </trkpt>
      <trkpt lat="48.95288" lon="1.06807">
        <ele>146.26</ele>
        <time>2011-05-08T07:02:13Z</time>
      </trkpt>
      <trkpt lat="48.95274" lon="1.06814">
        <ele>147.7</ele>
        <time>2011-05-08T07:02:15Z</time>
      </trkpt>
      <trkpt lat="48.95218" lon="1.06845">
        <ele>144.34</ele>
        <time>2011-05-08T07:02:23Z</time>
      </trkpt>
      <trkpt lat="48.95125" lon="1.06917">
        <ele>145.3</ele>
        <time>2011-05-08T07:02:37Z</time>
      </trkpt>
      <trkpt lat="48.95096" lon="1.06938">
        <ele>145.78</ele>
        <time>2011-05-08T07:02:42Z</time>
      </trkpt>
      <trkpt lat="48.9503" lon="1.06998">
        <ele>145.3</ele>
        <time>2011-05-08T07:02:55Z</time>
      </trkpt>
      <trkpt lat="48.95008" lon="1.07017">
        <ele>145.3</ele>
        <time>2011-05-08T07:03:00Z</time>
      </trkpt>
      <trkpt lat="48.9495" lon="1.07065">
        <ele>144.82</ele>
        <time>2011-05-08T07:03:11Z</time>
      </trkpt>
      <trkpt lat="48.9493" lon="1.07082">
        <ele>148.18</ele>
        <time>2011-05-08T07:03:15Z</time>
      </trkpt>
      <trkpt lat="48.94925" lon="1.07086">
        <ele>143.37</ele>
        <time>2011-05-08T07:03:16Z</time>
      </trkpt>
      <trkpt lat="48.9492" lon="1.0709">
        <ele>146.74</ele>
        <time>2011-05-08T07:03:17Z</time>
      </trkpt>
      <trkpt lat="48.94876" lon="1.07131">
        <ele>146.26</ele>
        <time>2011-05-08T07:03:26Z</time>
      </trkpt>
      <trkpt lat="48.94828" lon="1.07172">
        <ele>146.74</ele>
        <time>2011-05-08T07:03:36Z</time>
      </trkpt>
      <trkpt lat="48.94713" lon="1.07273">
        <ele>146.26</ele>
        <time>2011-05-08T07:03:59Z</time>
      </trkpt>
      <trkpt lat="48.94673" lon="1.0731">
        <ele>146.74</ele>
        <time>2011-05-08T07:04:09Z</time>
      </trkpt>
      <trkpt lat="48.94615" lon="1.07385">
        <ele>146.26</ele>
        <time>2011-05-08T07:04:25Z</time>
      </trkpt>
      <trkpt lat="48.94608" lon="1.07397">
        <ele>147.7</ele>
        <time>2011-05-08T07:04:27Z</time>
      </trkpt>
      <trkpt lat="48.94534" lon="1.075">
        <ele>149.14</ele>
        <time>2011-05-08T07:04:46Z</time>
      </trkpt>
      <trkpt lat="48.94424" lon="1.07558">
        <ele>147.7</ele>
        <time>2011-05-08T07:05:10Z</time>
      </trkpt>
      <trkpt lat="48.94397" lon="1.07573">
        <ele>151.06</ele>
        <time>2011-05-08T07:05:16Z</time>
      </trkpt>
      <trkpt lat="48.94373" lon="1.07585">
        <ele>149.14</ele>
        <time>2011-05-08T07:05:21Z</time>
      </trkpt>
      <trkpt lat="48.9433" lon="1.07608">
        <ele>148.18</ele>
        <time>2011-05-08T07:05:30Z</time>
      </trkpt>
      <trkpt lat="48.94275" lon="1.07635">
        <ele>152.03</ele>
        <time>2011-05-08T07:05:41Z</time>
      </trkpt>
      <trkpt lat="48.94269" lon="1.07637">
        <ele>147.7</ele>
        <time>2011-05-08T07:05:42Z</time>
      </trkpt>
      <trkpt lat="48.94248" lon="1.07647">
        <ele>149.62</ele>
        <time>2011-05-08T07:05:46Z</time>
      </trkpt>
      <trkpt lat="48.9416" lon="1.07688">
        <ele>146.26</ele>
        <time>2011-05-08T07:06:02Z</time>
      </trkpt>
      <trkpt lat="48.94154" lon="1.0769">
        <ele>146.26</ele>
        <time>2011-05-08T07:06:03Z</time>
      </trkpt>
      <trkpt lat="48.94133" lon="1.077">
        <ele>149.14</ele>
        <time>2011-05-08T07:06:07Z</time>
      </trkpt>
      <trkpt lat="48.94123" lon="1.07704">
        <ele>145.78</ele>
        <time>2011-05-08T07:06:09Z</time>
      </trkpt>
      <trkpt lat="48.94102" lon="1.07714">
        <ele>149.14</ele>
        <time>2011-05-08T07:06:13Z</time>
      </trkpt>
      <trkpt lat="48.94047" lon="1.07738">
        <ele>145.78</ele>
        <time>2011-05-08T07:06:24Z</time>
      </trkpt>
      <trkpt lat="48.94042" lon="1.0774">
        <ele>146.26</ele>
        <time>2011-05-08T07:06:25Z</time>
      </trkpt>
      <trkpt lat="48.94032" lon="1.07744">
        <ele>147.7</ele>
        <time>2011-05-08T07:06:27Z</time>
      </trkpt>
      <trkpt lat="48.94022" lon="1.07748">
        <ele>147.22</ele>
        <time>2011-05-08T07:06:29Z</time>
      </trkpt>
      <trkpt lat="48.94006" lon="1.07755">
        <ele>148.66</ele>
        <time>2011-05-08T07:06:32Z</time>
      </trkpt>
      <trkpt lat="48.93934" lon="1.0779">
        <ele>145.3</ele>
        <time>2011-05-08T07:06:46Z</time>
      </trkpt>
      <trkpt lat="48.93913" lon="1.07799">
        <ele>149.14</ele>
        <time>2011-05-08T07:06:50Z</time>
      </trkpt>
      <trkpt lat="48.93841" lon="1.07834">
        <ele>148.18</ele>
        <time>2011-05-08T07:07:05Z</time>
      </trkpt>
      <trkpt lat="48.93799" lon="1.07851">
        <ele>147.7</ele>
        <time>2011-05-08T07:07:20Z</time>
      </trkpt>
      <trkpt lat="48.93801" lon="1.07846">
        <ele>148.18</ele>
        <time>2011-05-08T07:07:34Z</time>
      </trkpt>
      <trkpt lat="48.93801" lon="1.07843">
        <ele>146.74</ele>
        <time>2011-05-08T07:07:36Z</time>
      </trkpt>
      <trkpt lat="48.93799" lon="1.07844">
        <ele>149.14</ele>
        <time>2011-05-08T07:07:49Z</time>
      </trkpt>
      <trkpt lat="48.93799" lon="1.07844">
        <ele>149.14</ele>
        <time>2011-05-08T07:08:06Z</time>
      </trkpt>
      <trkpt lat="48.93799" lon="1.07844">
        <ele>145.3</ele>
        <time>2011-05-08T07:08:19Z</time>
      </trkpt>
      <trkpt lat="48.938" lon="1.07844">
        <ele>148.18</ele>
        <time>2011-05-08T07:08:22Z</time>
      </trkpt>
      <trkpt lat="48.938" lon="1.07844">
        <ele>146.74</ele>
        <time>2011-05-08T07:08:25Z</time>
      </trkpt>
      <trkpt lat="48.93799" lon="1.07843">
        <ele>147.7</ele>
        <time>2011-05-08T07:08:27Z</time>
      </trkpt>
      <trkpt lat="48.93801" lon="1.07841">
        <ele>151.06</ele>
        <time>2011-05-08T07:08:45Z</time>
      </trkpt>
      <trkpt lat="48.93801" lon="1.07842">
        <ele>147.22</ele>
        <time>2011-05-08T07:08:50Z</time>
      </trkpt>
      <trkpt lat="48.93801" lon="1.07842">
        <ele>149.14</ele>
        <time>2011-05-08T07:08:53Z</time>
      </trkpt>
      <trkpt lat="48.93803" lon="1.07842">
        <ele>147.22</ele>
        <time>2011-05-08T07:09:14Z</time>
      </trkpt>
      <trkpt lat="48.93803" lon="1.07842">
        <ele>147.7</ele>
        <time>2011-05-08T07:09:34Z</time>
      </trkpt>
      <trkpt lat="48.93803" lon="1.07842">
        <ele>148.18</ele>
        <time>2011-05-08T07:09:40Z</time>
      </trkpt>
      <trkpt lat="48.93803" lon="1.07842">
        <ele>149.14</ele>
        <time>2011-05-08T07:09:55Z</time>
      </trkpt>
      <trkpt lat="48.93803" lon="1.07842">
        <ele>147.22</ele>
        <time>2011-05-08T07:09:57Z</time>
      </trkpt>
      <trkpt lat="48.9381" lon="1.07849">
        <ele>149.62</ele>
        <time>2011-05-08T07:10:05Z</time>
      </trkpt>
      <trkpt lat="48.93804" lon="1.07853">
        <ele>152.03</ele>
        <time>2011-05-08T07:10:14Z</time>
      </trkpt>
      <trkpt lat="48.93804" lon="1.07853">
        <ele>152.03</ele>
        <time>2011-05-08T07:10:15Z</time>
      </trkpt>
      <trkpt lat="48.93804" lon="1.07853">
        <ele>148.18</ele>
        <time>2011-05-08T07:10:17Z</time>
      </trkpt>
      <trkpt lat="48.93804" lon="1.07853">
        <ele>149.62</ele>
        <time>2011-05-08T07:10:18Z</time>
      </trkpt>
      <trkpt lat="48.93804" lon="1.07853">
        <ele>147.7</ele>
        <time>2011-05-08T07:10:23Z</time>
      </trkpt>
      <trkpt lat="48.93804" lon="1.07853">
        <ele>148.66</ele>
        <time>2011-05-08T07:10:25Z</time>
      </trkpt>
      <trkpt lat="48.93805" lon="1.07854">
        <ele>149.62</ele>
        <time>2011-05-08T07:10:50Z</time>
      </trkpt>
      <trkpt lat="48.93805" lon="1.07853">
        <ele>151.54</ele>
        <time>2011-05-08T07:10:55Z</time>
      </trkpt>
      <trkpt lat="48.93804" lon="1.07854">
        <ele>148.18</ele>
        <time>2011-05-08T07:11:08Z</time>
      </trkpt>
      <trkpt lat="48.93787" lon="1.07865">
        <ele>151.06</ele>
        <time>2011-05-08T07:11:15Z</time>
      </trkpt>
      <trkpt lat="48.93784" lon="1.07866">
        <ele>150.58</ele>
        <time>2011-05-08T07:11:16Z</time>
      </trkpt>
      <trkpt lat="48.93754" lon="1.07878">
        <ele>147.7</ele>
        <time>2011-05-08T07:11:24Z</time>
      </trkpt>
      <trkpt lat="48.9375" lon="1.0788">
        <ele>151.54</ele>
        <time>2011-05-08T07:11:25Z</time>
      </trkpt>
      <trkpt lat="48.93746" lon="1.07882">
        <ele>150.1</ele>
        <time>2011-05-08T07:11:26Z</time>
      </trkpt>
      <trkpt lat="48.93663" lon="1.0792">
        <ele>149.14</ele>
        <time>2011-05-08T07:11:43Z</time>
      </trkpt>
      <trkpt lat="48.93601" lon="1.07953">
        <ele>148.66</ele>
        <time>2011-05-08T07:11:55Z</time>
      </trkpt>
      <trkpt lat="48.93596" lon="1.07956">
        <ele>152.99</ele>
        <time>2011-05-08T07:11:56Z</time>
      </trkpt>
      <trkpt lat="48.93591" lon="1.0796">
        <ele>149.14</ele>
        <time>2011-05-08T07:11:57Z</time>
      </trkpt>
      <trkpt lat="48.93529" lon="1.08008">
        <ele>145.78</ele>
        <time>2011-05-08T07:12:08Z</time>
      </trkpt>
      <trkpt lat="48.93523" lon="1.08014">
        <ele>146.74</ele>
        <time>2011-05-08T07:12:09Z</time>
      </trkpt>
      <trkpt lat="48.93511" lon="1.08024">
        <ele>148.18</ele>
        <time>2011-05-08T07:12:11Z</time>
      </trkpt>
      <trkpt lat="48.93411" lon="1.08122">
        <ele>146.26</ele>
        <time>2011-05-08T07:12:31Z</time>
      </trkpt>
      <trkpt lat="48.93382" lon="1.08161">
        <ele>149.14</ele>
        <time>2011-05-08T07:12:38Z</time>
      </trkpt>
      <trkpt lat="48.93366" lon="1.08181">
        <ele>150.1</ele>
        <time>2011-05-08T07:12:42Z</time>
      </trkpt>
      <trkpt lat="48.93349" lon="1.082">
        <ele>152.03</ele>
        <time>2011-05-08T07:12:46Z</time>
      </trkpt>
      <trkpt lat="48.93341" lon="1.08209">
        <ele>151.06</ele>
        <time>2011-05-08T07:12:48Z</time>
      </trkpt>
      <trkpt lat="48.93295" lon="1.08258">
        <ele>150.58</ele>
        <time>2011-05-08T07:12:59Z</time>
      </trkpt>
      <trkpt lat="48.93273" lon="1.0828">
        <ele>154.43</ele>
        <time>2011-05-08T07:13:04Z</time>
      </trkpt>
      <trkpt lat="48.93269" lon="1.08285">
        <ele>149.62</ele>
        <time>2011-05-08T07:13:05Z</time>
      </trkpt>
      <trkpt lat="48.93248" lon="1.08308">
        <ele>154.43</ele>
        <time>2011-05-08T07:13:10Z</time>
      </trkpt>
      <trkpt lat="48.9324" lon="1.08317">
        <ele>151.06</ele>
        <time>2011-05-08T07:13:12Z</time>
      </trkpt>
      <trkpt lat="48.93232" lon="1.08327">
        <ele>149.62</ele>
        <time>2011-05-08T07:13:14Z</time>
      </trkpt>
      <trkpt lat="48.9322" lon="1.08343">
        <ele>151.54</ele>
        <time>2011-05-08T07:13:17Z</time>
      </trkpt>
      <trkpt lat="48.93197" lon="1.08378">
        <ele>149.14</ele>
        <time>2011-05-08T07:13:23Z</time>
      </trkpt>
      <trkpt lat="48.93189" lon="1.0839">
        <ele>152.03</ele>
        <time>2011-05-08T07:13:25Z</time>
      </trkpt>
      <trkpt lat="48.93163" lon="1.0842">
        <ele>148.18</ele>
        <time>2011-05-08T07:13:31Z</time>
      </trkpt>
      <trkpt lat="48.93149" lon="1.08431">
        <ele>151.06</ele>
        <time>2011-05-08T07:13:34Z</time>
      </trkpt>
      <trkpt lat="48.93135" lon="1.08441">
        <ele>154.43</ele>
        <time>2011-05-08T07:13:37Z</time>
      </trkpt>
      <trkpt lat="48.93096" lon="1.08469">
        <ele>150.58</ele>
        <time>2011-05-08T07:13:45Z</time>
      </trkpt>
      <trkpt lat="48.93091" lon="1.08473">
        <ele>150.58</ele>
        <time>2011-05-08T07:13:46Z</time>
      </trkpt>
      <trkpt lat="48.93071" lon="1.08487">
        <ele>151.54</ele>
        <time>2011-05-08T07:13:50Z</time>
      </trkpt>
      <trkpt lat="48.93029" lon="1.08521">
        <ele>155.39</ele>
        <time>2011-05-08T07:13:59Z</time>
      </trkpt>
      <trkpt lat="48.93008" lon="1.08514">
        <ele>150.58</ele>
        <time>2011-05-08T07:14:04Z</time>
      </trkpt>
      <trkpt lat="48.92942" lon="1.08351">
        <ele>152.03</ele>
        <time>2011-05-08T07:14:27Z</time>
      </trkpt>
      <trkpt lat="48.92914" lon="1.08308">
        <ele>148.18</ele>
        <time>2011-05-08T07:14:34Z</time>
      </trkpt>
      <trkpt lat="48.92906" lon="1.08296">
        <ele>151.54</ele>
        <time>2011-05-08T07:14:36Z</time>
      </trkpt>
      <trkpt lat="48.92878" lon="1.0824">
        <ele>151.06</ele>
        <time>2011-05-08T07:14:44Z</time>
      </trkpt>
      <trkpt lat="48.92838" lon="1.08137">
        <ele>150.58</ele>
        <time>2011-05-08T07:14:58Z</time>
      </trkpt>
      <trkpt lat="48.92811" lon="1.0808">
        <ele>147.7</ele>
        <time>2011-05-08T07:15:06Z</time>
      </trkpt>
      <trkpt lat="48.92802" lon="1.08058">
        <ele>150.1</ele>
        <time>2011-05-08T07:15:09Z</time>
      </trkpt>
      <trkpt lat="48.92789" lon="1.08028">
        <ele>152.03</ele>
        <time>2011-05-08T07:15:13Z</time>
      </trkpt>
      <trkpt lat="48.92783" lon="1.08013">
        <ele>148.66</ele>
        <time>2011-05-08T07:15:15Z</time>
      </trkpt>
      <trkpt lat="48.92767" lon="1.07973">
        <ele>151.54</ele>
        <time>2011-05-08T07:15:20Z</time>
      </trkpt>
      <trkpt lat="48.92763" lon="1.07964">
        <ele>151.54</ele>
        <time>2011-05-08T07:15:21Z</time>
      </trkpt>
      <trkpt lat="48.9276" lon="1.07956">
        <ele>148.18</ele>
        <time>2011-05-08T07:15:22Z</time>
      </trkpt>
      <trkpt lat="48.92744" lon="1.07912">
        <ele>151.06</ele>
        <time>2011-05-08T07:15:27Z</time>
      </trkpt>
      <trkpt lat="48.92742" lon="1.07902">
        <ele>150.58</ele>
        <time>2011-05-08T07:15:28Z</time>
      </trkpt>
      <trkpt lat="48.92737" lon="1.07883">
        <ele>150.1</ele>
        <time>2011-05-08T07:15:30Z</time>
      </trkpt>
      <trkpt lat="48.92725" lon="1.07804">
        <ele>145.78</ele>
        <time>2011-05-08T07:15:38Z</time>
      </trkpt>
      <trkpt lat="48.9271" lon="1.07674">
        <ele>148.18</ele>
        <time>2011-05-08T07:15:50Z</time>
      </trkpt>
      <trkpt lat="48.92708" lon="1.07652">
        <ele>144.34</ele>
        <time>2011-05-08T07:15:52Z</time>
      </trkpt>
      <trkpt lat="48.92707" lon="1.0764">
        <ele>145.78</ele>
        <time>2011-05-08T07:15:53Z</time>
      </trkpt>
      <trkpt lat="48.92701" lon="1.07595">
        <ele>142.89</ele>
        <time>2011-05-08T07:15:57Z</time>
      </trkpt>
      <trkpt lat="48.92686" lon="1.07454">
        <ele>139.05</ele>
        <time>2011-05-08T07:16:08Z</time>
      </trkpt>
      <trkpt lat="48.92681" lon="1.07401">
        <ele>138.09</ele>
        <time>2011-05-08T07:16:12Z</time>
      </trkpt>
      <trkpt lat="48.9268" lon="1.07375">
        <ele>136.64</ele>
        <time>2011-05-08T07:16:14Z</time>
      </trkpt>
      <trkpt lat="48.92676" lon="1.07324">
        <ele>138.57</ele>
        <time>2011-05-08T07:16:18Z</time>
      </trkpt>
      <trkpt lat="48.92663" lon="1.07222">
        <ele>136.64</ele>
        <time>2011-05-08T07:16:26Z</time>
      </trkpt>
      <trkpt lat="48.92658" lon="1.0717">
        <ele>134.24</ele>
        <time>2011-05-08T07:16:30Z</time>
      </trkpt>
      <trkpt lat="48.92654" lon="1.07134">
        <ele>135.68</ele>
        <time>2011-05-08T07:16:33Z</time>
      </trkpt>
      <trkpt lat="48.92653" lon="1.0712">
        <ele>132.8</ele>
        <time>2011-05-08T07:16:34Z</time>
      </trkpt>
      <trkpt lat="48.92651" lon="1.07095">
        <ele>136.16</ele>
        <time>2011-05-08T07:16:36Z</time>
      </trkpt>
      <trkpt lat="48.92649" lon="1.07082">
        <ele>133.28</ele>
        <time>2011-05-08T07:16:37Z</time>
      </trkpt>
      <trkpt lat="48.92648" lon="1.0707">
        <ele>133.76</ele>
        <time>2011-05-08T07:16:38Z</time>
      </trkpt>
      <trkpt lat="48.92638" lon="1.0699">
        <ele>129.92</ele>
        <time>2011-05-08T07:16:44Z</time>
      </trkpt>
      <trkpt lat="48.92637" lon="1.06976">
        <ele>130.4</ele>
        <time>2011-05-08T07:16:45Z</time>
      </trkpt>
      <trkpt lat="48.92633" lon="1.06948">
        <ele>128.95</ele>
        <time>2011-05-08T07:16:47Z</time>
      </trkpt>
      <trkpt lat="48.92628" lon="1.0692">
        <ele>131.84</ele>
        <time>2011-05-08T07:16:49Z</time>
      </trkpt>
      <trkpt lat="48.92618" lon="1.06895">
        <ele>127.03</ele>
        <time>2011-05-08T07:16:51Z</time>
      </trkpt>
      <trkpt lat="48.92606" lon="1.0687">
        <ele>127.03</ele>
        <time>2011-05-08T07:16:53Z</time>
      </trkpt>
      <trkpt lat="48.9259" lon="1.06813">
        <ele>122.71</ele>
        <time>2011-05-08T07:16:57Z</time>
      </trkpt>
      <trkpt lat="48.92586" lon="1.06782">
        <ele>120.78</ele>
        <time>2011-05-08T07:16:59Z</time>
      </trkpt>
      <trkpt lat="48.92572" lon="1.06724">
        <ele>117.9</ele>
        <time>2011-05-08T07:17:03Z</time>
      </trkpt>
      <trkpt lat="48.92568" lon="1.06693">
        <ele>115.98</ele>
        <time>2011-05-08T07:17:05Z</time>
      </trkpt>
      <trkpt lat="48.92582" lon="1.0665">
        <ele>115.98</ele>
        <time>2011-05-08T07:17:08Z</time>
      </trkpt>
      <trkpt lat="48.92612" lon="1.06604">
        <ele>112.61</ele>
        <time>2011-05-08T07:17:12Z</time>
      </trkpt>
      <trkpt lat="48.92618" lon="1.06591">
        <ele>114.53</ele>
        <time>2011-05-08T07:17:13Z</time>
      </trkpt>
      <trkpt lat="48.92627" lon="1.06564">
        <ele>112.13</ele>
        <time>2011-05-08T07:17:15Z</time>
      </trkpt>
      <trkpt lat="48.92635" lon="1.06521">
        <ele>114.53</ele>
        <time>2011-05-08T07:17:18Z</time>
      </trkpt>
      <trkpt lat="48.92636" lon="1.06338">
        <ele>115.01</ele>
        <time>2011-05-08T07:17:33Z</time>
      </trkpt>
      <trkpt lat="48.92635" lon="1.06174">
        <ele>115.5</ele>
        <time>2011-05-08T07:17:49Z</time>
      </trkpt>
      <trkpt lat="48.92657" lon="1.06086">
        <ele>117.9</ele>
        <time>2011-05-08T07:18:00Z</time>
      </trkpt>
      <trkpt lat="48.92679" lon="1.06049">
        <ele>117.42</ele>
        <time>2011-05-08T07:18:06Z</time>
      </trkpt>
      <trkpt lat="48.92698" lon="1.06016">
        <ele>118.86</ele>
        <time>2011-05-08T07:18:11Z</time>
      </trkpt>
      <trkpt lat="48.9277" lon="1.05904">
        <ele>116.46</ele>
        <time>2011-05-08T07:18:29Z</time>
      </trkpt>
      <trkpt lat="48.92804" lon="1.05864">
        <ele>119.34</ele>
        <time>2011-05-08T07:18:36Z</time>
      </trkpt>
      <trkpt lat="48.92834" lon="1.05831">
        <ele>116.46</ele>
        <time>2011-05-08T07:18:42Z</time>
      </trkpt>
      <trkpt lat="48.92852" lon="1.05784">
        <ele>114.05</ele>
        <time>2011-05-08T07:18:47Z</time>
      </trkpt>
      <trkpt lat="48.92853" lon="1.05758">
        <ele>112.61</ele>
        <time>2011-05-08T07:18:49Z</time>
      </trkpt>
      <trkpt lat="48.92853" lon="1.05732">
        <ele>116.46</ele>
        <time>2011-05-08T07:18:51Z</time>
      </trkpt>
      <trkpt lat="48.92854" lon="1.05719">
        <ele>114.53</ele>
        <time>2011-05-08T07:18:52Z</time>
      </trkpt>
      <trkpt lat="48.92856" lon="1.0568">
        <ele>112.13</ele>
        <time>2011-05-08T07:18:55Z</time>
      </trkpt>
      <trkpt lat="48.92857" lon="1.05667">
        <ele>115.98</ele>
        <time>2011-05-08T07:18:56Z</time>
      </trkpt>
      <trkpt lat="48.92857" lon="1.05654">
        <ele>115.98</ele>
        <time>2011-05-08T07:18:57Z</time>
      </trkpt>
      <trkpt lat="48.92862" lon="1.05572">
        <ele>116.46</ele>
        <time>2011-05-08T07:19:05Z</time>
      </trkpt>
      <trkpt lat="48.92862" lon="1.05564">
        <ele>119.34</ele>
        <time>2011-05-08T07:19:06Z</time>
      </trkpt>
      <trkpt lat="48.92862" lon="1.05556">
        <ele>115.98</ele>
        <time>2011-05-08T07:19:07Z</time>
      </trkpt>
      <trkpt lat="48.92863" lon="1.05544">
        <ele>120.78</ele>
        <time>2011-05-08T07:19:09Z</time>
      </trkpt>
      <trkpt lat="48.92863" lon="1.05538">
        <ele>119.34</ele>
        <time>2011-05-08T07:19:10Z</time>
      </trkpt>
      <trkpt lat="48.92861" lon="1.05528">
        <ele>121.26</ele>
        <time>2011-05-08T07:19:12Z</time>
      </trkpt>
      <trkpt lat="48.92857" lon="1.05507">
        <ele>120.78</ele>
        <time>2011-05-08T07:19:16Z</time>
      </trkpt>
      <trkpt lat="48.92839" lon="1.05451">
        <ele>124.63</ele>
        <time>2011-05-08T07:19:27Z</time>
      </trkpt>
      <trkpt lat="48.92838" lon="1.05447">
        <ele>124.15</ele>
        <time>2011-05-08T07:19:28Z</time>
      </trkpt>
      <trkpt lat="48.92816" lon="1.05375">
        <ele>124.63</ele>
        <time>2011-05-08T07:19:44Z</time>
      </trkpt>
      <trkpt lat="48.92812" lon="1.05362">
        <ele>126.55</ele>
        <time>2011-05-08T07:19:47Z</time>
      </trkpt>
      <trkpt lat="48.92799" lon="1.05318">
        <ele>128.95</ele>
        <time>2011-05-08T07:19:56Z</time>
      </trkpt>
      <trkpt lat="48.92778" lon="1.05215">
        <ele>129.92</ele>
        <time>2011-05-08T07:20:17Z</time>
      </trkpt>
      <trkpt lat="48.92775" lon="1.05183">
        <ele>133.28</ele>
        <time>2011-05-08T07:20:23Z</time>
      </trkpt>
      <trkpt lat="48.92775" lon="1.05163">
        <ele>132.8</ele>
        <time>2011-05-08T07:20:27Z</time>
      </trkpt>
      <trkpt lat="48.92774" lon="1.05108">
        <ele>133.28</ele>
        <time>2011-05-08T07:20:38Z</time>
      </trkpt>
      <trkpt lat="48.92776" lon="1.05069">
        <ele>136.64</ele>
        <time>2011-05-08T07:20:46Z</time>
      </trkpt>
      <trkpt lat="48.92788" lon="1.0501">
        <ele>138.57</ele>
        <time>2011-05-08T07:20:59Z</time>
      </trkpt>
      <trkpt lat="48.92789" lon="1.05006">
        <ele>138.09</ele>
        <time>2011-05-08T07:21:00Z</time>
      </trkpt>
      <trkpt lat="48.92797" lon="1.04978">
        <ele>138.57</ele>
        <time>2011-05-08T07:21:06Z</time>
      </trkpt>
      <trkpt lat="48.928" lon="1.04969">
        <ele>139.53</ele>
        <time>2011-05-08T07:21:08Z</time>
      </trkpt>
      <trkpt lat="48.92802" lon="1.04959">
        <ele>141.45</ele>
        <time>2011-05-08T07:21:10Z</time>
      </trkpt>
      <trkpt lat="48.92804" lon="1.04954">
        <ele>138.57</ele>
        <time>2011-05-08T07:21:11Z</time>
      </trkpt>
      <trkpt lat="48.92807" lon="1.04935">
        <ele>140.97</ele>
        <time>2011-05-08T07:21:15Z</time>
      </trkpt>
      <trkpt lat="48.92833" lon="1.04866">
        <ele>143.37</ele>
        <time>2011-05-08T07:21:31Z</time>
      </trkpt>
      <trkpt lat="48.92841" lon="1.04842">
        <ele>142.89</ele>
        <time>2011-05-08T07:21:37Z</time>
      </trkpt>
      <trkpt lat="48.92845" lon="1.04783">
        <ele>145.3</ele>
        <time>2011-05-08T07:21:50Z</time>
      </trkpt>
      <trkpt lat="48.92841" lon="1.04753">
        <ele>148.18</ele>
        <time>2011-05-08T07:21:57Z</time>
      </trkpt>
      <trkpt lat="48.92839" lon="1.04744">
        <ele>146.26</ele>
        <time>2011-05-08T07:21:59Z</time>
      </trkpt>
      <trkpt lat="48.9283" lon="1.04714">
        <ele>147.22</ele>
        <time>2011-05-08T07:22:06Z</time>
      </trkpt>
      <trkpt lat="48.92828" lon="1.04707">
        <ele>149.14</ele>
        <time>2011-05-08T07:22:08Z</time>
      </trkpt>
      <trkpt lat="48.92795" lon="1.04597">
        <ele>148.18</ele>
        <time>2011-05-08T07:22:32Z</time>
      </trkpt>
      <trkpt lat="48.92793" lon="1.04585">
        <ele>151.06</ele>
        <time>2011-05-08T07:22:34Z</time>
      </trkpt>
      <trkpt lat="48.92792" lon="1.04578">
        <ele>147.22</ele>
        <time>2011-05-08T07:22:35Z</time>
      </trkpt>
      <trkpt lat="48.9279" lon="1.04572">
        <ele>148.66</ele>
        <time>2011-05-08T07:22:36Z</time>
      </trkpt>
      <trkpt lat="48.92783" lon="1.04496">
        <ele>150.58</ele>
        <time>2011-05-08T07:22:48Z</time>
      </trkpt>
      <trkpt lat="48.92784" lon="1.04444">
        <ele>149.14</ele>
        <time>2011-05-08T07:22:56Z</time>
      </trkpt>
      <trkpt lat="48.92789" lon="1.04391">
        <ele>153.95</ele>
        <time>2011-05-08T07:23:04Z</time>
      </trkpt>
      <trkpt lat="48.9279" lon="1.04385">
        <ele>151.06</ele>
        <time>2011-05-08T07:23:05Z</time>
      </trkpt>
      <trkpt lat="48.92792" lon="1.04371">
        <ele>149.62</ele>
        <time>2011-05-08T07:23:07Z</time>
      </trkpt>
      <trkpt lat="48.928" lon="1.04324">
        <ele>152.99</ele>
        <time>2011-05-08T07:23:14Z</time>
      </trkpt>
      <trkpt lat="48.92801" lon="1.04317">
        <ele>150.58</ele>
        <time>2011-05-08T07:23:15Z</time>
      </trkpt>
      <trkpt lat="48.92807" lon="1.0429">
        <ele>149.62</ele>
        <time>2011-05-08T07:23:19Z</time>
      </trkpt>
      <trkpt lat="48.92824" lon="1.04224">
        <ele>153.95</ele>
        <time>2011-05-08T07:23:29Z</time>
      </trkpt>
      <trkpt lat="48.92826" lon="1.04217">
        <ele>152.03</ele>
        <time>2011-05-08T07:23:30Z</time>
      </trkpt>
      <trkpt lat="48.9286" lon="1.04132">
        <ele>151.06</ele>
        <time>2011-05-08T07:23:44Z</time>
      </trkpt>
      <trkpt lat="48.92866" lon="1.04123">
        <ele>150.1</ele>
        <time>2011-05-08T07:23:46Z</time>
      </trkpt>
      <trkpt lat="48.92878" lon="1.04111">
        <ele>152.99</ele>
        <time>2011-05-08T07:23:49Z</time>
      </trkpt>
      <trkpt lat="48.92882" lon="1.04107">
        <ele>151.54</ele>
        <time>2011-05-08T07:23:50Z</time>
      </trkpt>
      <trkpt lat="48.92894" lon="1.041">
        <ele>154.91</ele>
        <time>2011-05-08T07:23:53Z</time>
      </trkpt>
      <trkpt lat="48.92902" lon="1.04102">
        <ele>154.43</ele>
        <time>2011-05-08T07:23:55Z</time>
      </trkpt>
      <trkpt lat="48.92911" lon="1.04105">
        <ele>152.99</ele>
        <time>2011-05-08T07:23:57Z</time>
      </trkpt>
      <trkpt lat="48.92924" lon="1.04105">
        <ele>149.62</ele>
        <time>2011-05-08T07:24:00Z</time>
      </trkpt>
      <trkpt lat="48.92928" lon="1.04102">
        <ele>152.03</ele>
        <time>2011-05-08T07:24:01Z</time>
      </trkpt>
      <trkpt lat="48.92936" lon="1.04092">
        <ele>153.95</ele>
        <time>2011-05-08T07:24:03Z</time>
      </trkpt>
      <trkpt lat="48.92993" lon="1.03994">
        <ele>153.95</ele>
        <time>2011-05-08T07:24:19Z</time>
      </trkpt>
      <trkpt lat="48.93039" lon="1.03926">
        <ele>154.43</ele>
        <time>2011-05-08T07:24:31Z</time>
      </trkpt>
      <trkpt lat="48.93133" lon="1.03811">
        <ele>151.06</ele>
        <time>2011-05-08T07:24:53Z</time>
      </trkpt>
      <trkpt lat="48.93158" lon="1.03766">
        <ele>155.39</ele>
        <time>2011-05-08T07:25:00Z</time>
      </trkpt>
      <trkpt lat="48.93178" lon="1.03725">
        <ele>152.03</ele>
        <time>2011-05-08T07:25:06Z</time>
      </trkpt>
      <trkpt lat="48.93182" lon="1.03718">
        <ele>156.35</ele>
        <time>2011-05-08T07:25:07Z</time>
      </trkpt>
      <trkpt lat="48.93204" lon="1.03637">
        <ele>151.54</ele>
        <time>2011-05-08T07:25:17Z</time>
      </trkpt>
      <trkpt lat="48.93207" lon="1.03619">
        <ele>154.91</ele>
        <time>2011-05-08T07:25:19Z</time>
      </trkpt>
      <trkpt lat="48.9325" lon="1.03519">
        <ele>155.87</ele>
        <time>2011-05-08T07:25:32Z</time>
      </trkpt>
      <trkpt lat="48.93284" lon="1.03479">
        <ele>153.47</ele>
        <time>2011-05-08T07:25:39Z</time>
      </trkpt>
      <trkpt lat="48.93329" lon="1.03447">
        <ele>152.99</ele>
        <time>2011-05-08T07:25:47Z</time>
      </trkpt>
      <trkpt lat="48.93347" lon="1.03436">
        <ele>154.91</ele>
        <time>2011-05-08T07:25:50Z</time>
      </trkpt>
      <trkpt lat="48.93358" lon="1.03428">
        <ele>154.43</ele>
        <time>2011-05-08T07:25:52Z</time>
      </trkpt>
      <trkpt lat="48.93364" lon="1.03423">
        <ele>151.06</ele>
        <time>2011-05-08T07:25:53Z</time>
      </trkpt>
      <trkpt lat="48.93418" lon="1.03322">
        <ele>152.03</ele>
        <time>2011-05-08T07:26:06Z</time>
      </trkpt>
      <trkpt lat="48.93446" lon="1.03274">
        <ele>152.03</ele>
        <time>2011-05-08T07:26:12Z</time>
      </trkpt>
      <trkpt lat="48.93558" lon="1.03085">
        <ele>151.54</ele>
        <time>2011-05-08T07:26:38Z</time>
      </trkpt>
      <trkpt lat="48.93572" lon="1.03056">
        <ele>153.47</ele>
        <time>2011-05-08T07:26:42Z</time>
      </trkpt>
      <trkpt lat="48.93576" lon="1.03049">
        <ele>149.62</ele>
        <time>2011-05-08T07:26:43Z</time>
      </trkpt>
      <trkpt lat="48.9358" lon="1.03042">
        <ele>151.54</ele>
        <time>2011-05-08T07:26:44Z</time>
      </trkpt>
      <trkpt lat="48.93619" lon="1.02983">
        <ele>155.39</ele>
        <time>2011-05-08T07:26:54Z</time>
      </trkpt>
      <trkpt lat="48.93634" lon="1.02962">
        <ele>151.54</ele>
        <time>2011-05-08T07:26:58Z</time>
      </trkpt>
      <trkpt lat="48.9366" lon="1.02923">
        <ele>151.06</ele>
        <time>2011-05-08T07:27:05Z</time>
      </trkpt>
      <trkpt lat="48.93689" lon="1.02885">
        <ele>153.95</ele>
        <time>2011-05-08T07:27:12Z</time>
      </trkpt>
      <trkpt lat="48.93701" lon="1.02869">
        <ele>152.51</ele>
        <time>2011-05-08T07:27:15Z</time>
      </trkpt>
      <trkpt lat="48.93716" lon="1.02847">
        <ele>153.95</ele>
        <time>2011-05-08T07:27:19Z</time>
      </trkpt>
      <trkpt lat="48.93732" lon="1.02825">
        <ele>152.51</ele>
        <time>2011-05-08T07:27:23Z</time>
      </trkpt>
      <trkpt lat="48.93748" lon="1.02804">
        <ele>151.54</ele>
        <time>2011-05-08T07:27:27Z</time>
      </trkpt>
      <trkpt lat="48.93773" lon="1.0276">
        <ele>154.91</ele>
        <time>2011-05-08T07:27:34Z</time>
      </trkpt>
      <trkpt lat="48.93777" lon="1.02754">
        <ele>150.58</ele>
        <time>2011-05-08T07:27:35Z</time>
      </trkpt>
      <trkpt lat="48.93806" lon="1.02699">
        <ele>152.51</ele>
        <time>2011-05-08T07:27:43Z</time>
      </trkpt>
      <trkpt lat="48.93818" lon="1.02677">
        <ele>149.14</ele>
        <time>2011-05-08T07:27:46Z</time>
      </trkpt>
      <trkpt lat="48.93856" lon="1.02601">
        <ele>149.14</ele>
        <time>2011-05-08T07:27:56Z</time>
      </trkpt>
      <trkpt lat="48.93945" lon="1.02435">
        <ele>146.74</ele>
        <time>2011-05-08T07:28:18Z</time>
      </trkpt>
      <trkpt lat="48.93992" lon="1.02322">
        <ele>146.26</ele>
        <time>2011-05-08T07:28:32Z</time>
      </trkpt>
      <trkpt lat="48.94025" lon="1.02266">
        <ele>143.85</ele>
        <time>2011-05-08T07:28:40Z</time>
      </trkpt>
      <trkpt lat="48.94029" lon="1.02258">
        <ele>147.22</ele>
        <time>2011-05-08T07:28:41Z</time>
      </trkpt>
      <trkpt lat="48.94067" lon="1.02134">
        <ele>146.26</ele>
        <time>2011-05-08T07:28:55Z</time>
      </trkpt>
      <trkpt lat="48.94073" lon="1.02114">
        <ele>143.85</ele>
        <time>2011-05-08T07:28:57Z</time>
      </trkpt>
      <trkpt lat="48.94087" lon="1.02061">
        <ele>143.37</ele>
        <time>2011-05-08T07:29:02Z</time>
      </trkpt>
      <trkpt lat="48.94115" lon="1.01926">
        <ele>143.85</ele>
        <time>2011-05-08T07:29:14Z</time>
      </trkpt>
      <trkpt lat="48.94116" lon="1.01916">
        <ele>143.37</ele>
        <time>2011-05-08T07:29:15Z</time>
      </trkpt>
      <trkpt lat="48.94119" lon="1.0185">
        <ele>146.74</ele>
        <time>2011-05-08T07:29:24Z</time>
      </trkpt>
      <trkpt lat="48.94121" lon="1.018">
        <ele>150.1</ele>
        <time>2011-05-08T07:29:32Z</time>
      </trkpt>
      <trkpt lat="48.94121" lon="1.01795">
        <ele>146.74</ele>
        <time>2011-05-08T07:29:33Z</time>
      </trkpt>
      <trkpt lat="48.94115" lon="1.01663">
        <ele>147.22</ele>
        <time>2011-05-08T07:29:54Z</time>
      </trkpt>
      <trkpt lat="48.94114" lon="1.01636">
        <ele>151.06</ele>
        <time>2011-05-08T07:29:58Z</time>
      </trkpt>
      <trkpt lat="48.94113" lon="1.01554">
        <ele>147.7</ele>
        <time>2011-05-08T07:30:09Z</time>
      </trkpt>
      <trkpt lat="48.94113" lon="1.01531">
        <ele>151.06</ele>
        <time>2011-05-08T07:30:12Z</time>
      </trkpt>
      <trkpt lat="48.94113" lon="1.015">
        <ele>146.74</ele>
        <time>2011-05-08T07:30:16Z</time>
      </trkpt>
      <trkpt lat="48.94111" lon="1.01471">
        <ele>150.1</ele>
        <time>2011-05-08T07:30:20Z</time>
      </trkpt>
      <trkpt lat="48.9408" lon="1.01347">
        <ele>151.54</ele>
        <time>2011-05-08T07:30:38Z</time>
      </trkpt>
      <trkpt lat="48.94074" lon="1.01337">
        <ele>151.54</ele>
        <time>2011-05-08T07:30:40Z</time>
      </trkpt>
      <trkpt lat="48.94059" lon="1.01304">
        <ele>153.95</ele>
        <time>2011-05-08T07:30:47Z</time>
      </trkpt>
      <trkpt lat="48.94025" lon="1.01184">
        <ele>156.35</ele>
        <time>2011-05-08T07:31:11Z</time>
      </trkpt>
      <trkpt lat="48.94018" lon="1.01146">
        <ele>152.51</ele>
        <time>2011-05-08T07:31:19Z</time>
      </trkpt>
      <trkpt lat="48.94017" lon="1.01141">
        <ele>152.99</ele>
        <time>2011-05-08T07:31:20Z</time>
      </trkpt>
      <trkpt lat="48.94013" lon="1.01126">
        <ele>156.83</ele>
        <time>2011-05-08T07:31:23Z</time>
      </trkpt>
      <trkpt lat="48.94012" lon="1.01121">
        <ele>153.47</ele>
        <time>2011-05-08T07:31:24Z</time>
      </trkpt>
      <trkpt lat="48.9401" lon="1.01116">
        <ele>154.43</ele>
        <time>2011-05-08T07:31:25Z</time>
      </trkpt>
      <trkpt lat="48.93995" lon="1.01055">
        <ele>153.47</ele>
        <time>2011-05-08T07:31:36Z</time>
      </trkpt>
      <trkpt lat="48.93982" lon="1.00976">
        <ele>149.62</ele>
        <time>2011-05-08T07:31:46Z</time>
      </trkpt>
      <trkpt lat="48.93981" lon="1.00966">
        <ele>153.47</ele>
        <time>2011-05-08T07:31:47Z</time>
      </trkpt>
      <trkpt lat="48.93981" lon="1.00957">
        <ele>153.47</ele>
        <time>2011-05-08T07:31:48Z</time>
      </trkpt>
      <trkpt lat="48.9398" lon="1.00948">
        <ele>150.58</ele>
        <time>2011-05-08T07:31:49Z</time>
      </trkpt>
      <trkpt lat="48.93979" lon="1.00922">
        <ele>153.47</ele>
        <time>2011-05-08T07:31:52Z</time>
      </trkpt>
      <trkpt lat="48.93979" lon="1.00914">
        <ele>152.51</ele>
        <time>2011-05-08T07:31:53Z</time>
      </trkpt>
      <trkpt lat="48.93988" lon="1.0086">
        <ele>154.91</ele>
        <time>2011-05-08T07:32:01Z</time>
      </trkpt>
      <trkpt lat="48.9399" lon="1.00854">
        <ele>152.99</ele>
        <time>2011-05-08T07:32:02Z</time>
      </trkpt>
      <trkpt lat="48.93995" lon="1.0083">
        <ele>156.35</ele>
        <time>2011-05-08T07:32:06Z</time>
      </trkpt>
      <trkpt lat="48.93998" lon="1.00818">
        <ele>154.43</ele>
        <time>2011-05-08T07:32:08Z</time>
      </trkpt>
      <trkpt lat="48.94" lon="1.00807">
        <ele>151.06</ele>
        <time>2011-05-08T07:32:10Z</time>
      </trkpt>
      <trkpt lat="48.94001" lon="1.00801">
        <ele>152.99</ele>
        <time>2011-05-08T07:32:11Z</time>
      </trkpt>
      <trkpt lat="48.9401" lon="1.00763">
        <ele>152.51</ele>
        <time>2011-05-08T07:32:17Z</time>
      </trkpt>
      <trkpt lat="48.94003" lon="1.00741">
        <ele>154.91</ele>
        <time>2011-05-08T07:32:21Z</time>
      </trkpt>
      <trkpt lat="48.93942" lon="1.00707">
        <ele>148.66</ele>
        <time>2011-05-08T07:32:32Z</time>
      </trkpt>
      <trkpt lat="48.93879" lon="1.00697">
        <ele>146.26</ele>
        <time>2011-05-08T07:32:42Z</time>
      </trkpt>
      <trkpt lat="48.93868" lon="1.007">
        <ele>150.1</ele>
        <time>2011-05-08T07:32:44Z</time>
      </trkpt>
      <trkpt lat="48.9384" lon="1.00709">
        <ele>151.54</ele>
        <time>2011-05-08T07:32:50Z</time>
      </trkpt>
      <trkpt lat="48.93771" lon="1.00715">
        <ele>150.1</ele>
        <time>2011-05-08T07:33:07Z</time>
      </trkpt>
      <trkpt lat="48.93767" lon="1.00714">
        <ele>153.47</ele>
        <time>2011-05-08T07:33:08Z</time>
      </trkpt>
      <trkpt lat="48.93762" lon="1.00713">
        <ele>150.1</ele>
        <time>2011-05-08T07:33:09Z</time>
      </trkpt>
      <trkpt lat="48.93744" lon="1.0071">
        <ele>152.99</ele>
        <time>2011-05-08T07:33:13Z</time>
      </trkpt>
      <trkpt lat="48.93739" lon="1.0071">
        <ele>149.62</ele>
        <time>2011-05-08T07:33:14Z</time>
      </trkpt>
      <trkpt lat="48.93679" lon="1.00696">
        <ele>152.99</ele>
        <time>2011-05-08T07:33:26Z</time>
      </trkpt>
      <trkpt lat="48.93669" lon="1.00693">
        <ele>148.18</ele>
        <time>2011-05-08T07:33:28Z</time>
      </trkpt>
      <trkpt lat="48.93664" lon="1.00692">
        <ele>149.62</ele>
        <time>2011-05-08T07:33:29Z</time>
      </trkpt>
      <trkpt lat="48.93624" lon="1.00679">
        <ele>149.62</ele>
        <time>2011-05-08T07:33:37Z</time>
      </trkpt>
      <trkpt lat="48.93566" lon="1.00658">
        <ele>151.06</ele>
        <time>2011-05-08T07:33:49Z</time>
      </trkpt>
      <trkpt lat="48.93561" lon="1.00656">
        <ele>147.22</ele>
        <time>2011-05-08T07:33:50Z</time>
      </trkpt>
      <trkpt lat="48.93556" lon="1.00654">
        <ele>148.66</ele>
        <time>2011-05-08T07:33:51Z</time>
      </trkpt>
      <trkpt lat="48.93537" lon="1.00646">
        <ele>149.62</ele>
        <time>2011-05-08T07:33:55Z</time>
      </trkpt>
      <trkpt lat="48.93528" lon="1.00642">
        <ele>148.66</ele>
        <time>2011-05-08T07:33:57Z</time>
      </trkpt>
      <trkpt lat="48.93518" lon="1.00638">
        <ele>149.62</ele>
        <time>2011-05-08T07:33:59Z</time>
      </trkpt>
      <trkpt lat="48.93384" lon="1.00582">
        <ele>149.62</ele>
        <time>2011-05-08T07:34:28Z</time>
      </trkpt>
      <trkpt lat="48.93347" lon="1.00569">
        <ele>151.06</ele>
        <time>2011-05-08T07:34:37Z</time>
      </trkpt>
      <trkpt lat="48.93343" lon="1.00568">
        <ele>149.62</ele>
        <time>2011-05-08T07:34:38Z</time>
      </trkpt>
      <trkpt lat="48.933" lon="1.00558">
        <ele>152.99</ele>
        <time>2011-05-08T07:34:49Z</time>
      </trkpt>
      <trkpt lat="48.93245" lon="1.00539">
        <ele>154.43</ele>
        <time>2011-05-08T07:35:03Z</time>
      </trkpt>
      <trkpt lat="48.93189" lon="1.00524">
        <ele>155.39</ele>
        <time>2011-05-08T07:35:16Z</time>
      </trkpt>
      <trkpt lat="48.93169" lon="1.00519">
        <ele>154.91</ele>
        <time>2011-05-08T07:35:21Z</time>
      </trkpt>
      <trkpt lat="48.93161" lon="1.0052">
        <ele>154.43</ele>
        <time>2011-05-08T07:35:23Z</time>
      </trkpt>
      <trkpt lat="48.93104" lon="1.0055">
        <ele>158.75</ele>
        <time>2011-05-08T07:35:37Z</time>
      </trkpt>
      <trkpt lat="48.93071" lon="1.00575">
        <ele>159.72</ele>
        <time>2011-05-08T07:35:45Z</time>
      </trkpt>
      <trkpt lat="48.93062" lon="1.00581">
        <ele>158.27</ele>
        <time>2011-05-08T07:35:47Z</time>
      </trkpt>
      <trkpt lat="48.9305" lon="1.0059">
        <ele>161.16</ele>
        <time>2011-05-08T07:35:50Z</time>
      </trkpt>
      <trkpt lat="48.93025" lon="1.00609">
        <ele>156.83</ele>
        <time>2011-05-08T07:35:56Z</time>
      </trkpt>
      <trkpt lat="48.93021" lon="1.00613">
        <ele>156.83</ele>
        <time>2011-05-08T07:35:57Z</time>
      </trkpt>
      <trkpt lat="48.92988" lon="1.00638">
        <ele>159.24</ele>
        <time>2011-05-08T07:36:05Z</time>
      </trkpt>
      <trkpt lat="48.92892" lon="1.00739">
        <ele>160.68</ele>
        <time>2011-05-08T07:36:29Z</time>
      </trkpt>
      <trkpt lat="48.92814" lon="1.0079">
        <ele>161.64</ele>
        <time>2011-05-08T07:36:47Z</time>
      </trkpt>
      <trkpt lat="48.92735" lon="1.00777">
        <ele>162.12</ele>
        <time>2011-05-08T07:37:05Z</time>
      </trkpt>
      <trkpt lat="48.92712" lon="1.00772">
        <ele>163.56</ele>
        <time>2011-05-08T07:37:10Z</time>
      </trkpt>
      <trkpt lat="48.92637" lon="1.00755">
        <ele>162.6</ele>
        <time>2011-05-08T07:37:27Z</time>
      </trkpt>
      <trkpt lat="48.92617" lon="1.00738">
        <ele>166.45</ele>
        <time>2011-05-08T07:37:32Z</time>
      </trkpt>
      <trkpt lat="48.9261" lon="1.0073">
        <ele>163.08</ele>
        <time>2011-05-08T07:37:34Z</time>
      </trkpt>
      <trkpt lat="48.92579" lon="1.00677">
        <ele>166.93</ele>
        <time>2011-05-08T07:37:47Z</time>
      </trkpt>
      <trkpt lat="48.92539" lon="1.00638">
        <ele>166.93</ele>
        <time>2011-05-08T07:38:06Z</time>
      </trkpt>
      <trkpt lat="48.92518" lon="1.00626">
        <ele>167.41</ele>
        <time>2011-05-08T07:38:17Z</time>
      </trkpt>
      <trkpt lat="48.92522" lon="1.0063">
        <ele>165.96</ele>
        <time>2011-05-08T07:38:24Z</time>
      </trkpt>
      <trkpt lat="48.92513" lon="1.00625">
        <ele>165.96</ele>
        <time>2011-05-08T07:38:28Z</time>
      </trkpt>
      <trkpt lat="48.92502" lon="1.0062">
        <ele>166.45</ele>
        <time>2011-05-08T07:38:32Z</time>
      </trkpt>
      <trkpt lat="48.9248" lon="1.00611">
        <ele>166.45</ele>
        <time>2011-05-08T07:38:39Z</time>
      </trkpt>
      <trkpt lat="48.92458" lon="1.00604">
        <ele>169.81</ele>
        <time>2011-05-08T07:38:46Z</time>
      </trkpt>
      <trkpt lat="48.92454" lon="1.00603">
        <ele>165.96</ele>
        <time>2011-05-08T07:38:47Z</time>
      </trkpt>
      <trkpt lat="48.92451" lon="1.00603">
        <ele>165.96</ele>
        <time>2011-05-08T07:38:48Z</time>
      </trkpt>
      <trkpt lat="48.92443" lon="1.00601">
        <ele>167.89</ele>
        <time>2011-05-08T07:38:50Z</time>
      </trkpt>
      <trkpt lat="48.92374" lon="1.00583">
        <ele>167.41</ele>
        <time>2011-05-08T07:39:10Z</time>
      </trkpt>
      <trkpt lat="48.92327" lon="1.00553">
        <ele>167.41</ele>
        <time>2011-05-08T07:39:26Z</time>
      </trkpt>
      <trkpt lat="48.92325" lon="1.00548">
        <ele>170.29</ele>
        <time>2011-05-08T07:39:33Z</time>
      </trkpt>
      <trkpt lat="48.92325" lon="1.00548">
        <ele>169.33</ele>
        <time>2011-05-08T07:39:34Z</time>
      </trkpt>
      <trkpt lat="48.92326" lon="1.0055">
        <ele>168.85</ele>
        <time>2011-05-08T07:39:49Z</time>
      </trkpt>
      <trkpt lat="48.92326" lon="1.00549">
        <ele>169.81</ele>
        <time>2011-05-08T07:40:00Z</time>
      </trkpt>
      <trkpt lat="48.92325" lon="1.00549">
        <ele>168.37</ele>
        <time>2011-05-08T07:40:13Z</time>
      </trkpt>
      <trkpt lat="48.92325" lon="1.00549">
        <ele>168.85</ele>
        <time>2011-05-08T07:40:59Z</time>
      </trkpt>
      <trkpt lat="48.92325" lon="1.0055">
        <ele>168.37</ele>
        <time>2011-05-08T07:41:27Z</time>
      </trkpt>
      <trkpt lat="48.92325" lon="1.0055">
        <ele>169.81</ele>
        <time>2011-05-08T07:41:50Z</time>
      </trkpt>
      <trkpt lat="48.92325" lon="1.00549">
        <ele>169.33</ele>
        <time>2011-05-08T07:42:25Z</time>
      </trkpt>
      <trkpt lat="48.92324" lon="1.00551">
        <ele>167.89</ele>
        <time>2011-05-08T07:42:42Z</time>
      </trkpt>
      <trkpt lat="48.92324" lon="1.0055">
        <ele>170.29</ele>
        <time>2011-05-08T07:42:54Z</time>
      </trkpt>
      <trkpt lat="48.92312" lon="1.00531">
        <ele>168.85</ele>
        <time>2011-05-08T07:43:24Z</time>
      </trkpt>
      <trkpt lat="48.92261" lon="1.00455">
        <ele>168.85</ele>
        <time>2011-05-08T07:43:43Z</time>
      </trkpt>
      <trkpt lat="48.92213" lon="1.00408">
        <ele>169.33</ele>
        <time>2011-05-08T07:43:57Z</time>
      </trkpt>
      <trkpt lat="48.9218" lon="1.00331">
        <ele>171.25</ele>
        <time>2011-05-08T07:44:09Z</time>
      </trkpt>
      <trkpt lat="48.92181" lon="1.00295">
        <ele>170.29</ele>
        <time>2011-05-08T07:44:15Z</time>
      </trkpt>
      <trkpt lat="48.92193" lon="1.0026">
        <ele>167.41</ele>
        <time>2011-05-08T07:44:20Z</time>
      </trkpt>
      <trkpt lat="48.92204" lon="1.00229">
        <ele>170.29</ele>
        <time>2011-05-08T07:44:24Z</time>
      </trkpt>
      <trkpt lat="48.92227" lon="1.00176">
        <ele>167.41</ele>
        <time>2011-05-08T07:44:31Z</time>
      </trkpt>
      <trkpt lat="48.92243" lon="1.00144">
        <ele>167.41</ele>
        <time>2011-05-08T07:44:35Z</time>
      </trkpt>
      <trkpt lat="48.92267" lon="1.00101">
        <ele>167.41</ele>
        <time>2011-05-08T07:44:40Z</time>
      </trkpt>
      <trkpt lat="48.92305" lon="1.00039">
        <ele>167.41</ele>
        <time>2011-05-08T07:44:47Z</time>
      </trkpt>
      <trkpt lat="48.92386" lon="0.99908">
        <ele>163.56</ele>
        <time>2011-05-08T07:45:01Z</time>
      </trkpt>
      <trkpt lat="48.92483" lon="0.99746">
        <ele>160.2</ele>
        <time>2011-05-08T07:45:18Z</time>
      </trkpt>
      <trkpt lat="48.92489" lon="0.99736">
        <ele>163.08</ele>
        <time>2011-05-08T07:45:19Z</time>
      </trkpt>
      <trkpt lat="48.92543" lon="0.99648">
        <ele>160.68</ele>
        <time>2011-05-08T07:45:28Z</time>
      </trkpt>
      <trkpt lat="48.92704" lon="0.99384">
        <ele>159.24</ele>
        <time>2011-05-08T07:45:56Z</time>
      </trkpt>
      <trkpt lat="48.92714" lon="0.99366">
        <ele>160.2</ele>
        <time>2011-05-08T07:45:58Z</time>
      </trkpt>
      <trkpt lat="48.92844" lon="0.99151">
        <ele>159.24</ele>
        <time>2011-05-08T07:46:25Z</time>
      </trkpt>
      <trkpt lat="48.92858" lon="0.99128">
        <ele>161.16</ele>
        <time>2011-05-08T07:46:28Z</time>
      </trkpt>
      <trkpt lat="48.92891" lon="0.99074">
        <ele>161.64</ele>
        <time>2011-05-08T07:46:35Z</time>
      </trkpt>
      <trkpt lat="48.929" lon="0.99058">
        <ele>160.2</ele>
        <time>2011-05-08T07:46:37Z</time>
      </trkpt>
      <trkpt lat="48.92934" lon="0.99002">
        <ele>161.64</ele>
        <time>2011-05-08T07:46:44Z</time>
      </trkpt>
      <trkpt lat="48.93088" lon="0.98748">
        <ele>159.72</ele>
        <time>2011-05-08T07:47:15Z</time>
      </trkpt>
      <trkpt lat="48.93097" lon="0.98732">
        <ele>161.16</ele>
        <time>2011-05-08T07:47:17Z</time>
      </trkpt>
      <trkpt lat="48.93175" lon="0.98604">
        <ele>160.68</ele>
        <time>2011-05-08T07:47:33Z</time>
      </trkpt>
      <trkpt lat="48.93223" lon="0.98525">
        <ele>161.16</ele>
        <time>2011-05-08T07:47:43Z</time>
      </trkpt>
      <trkpt lat="48.93414" lon="0.9821">
        <ele>160.68</ele>
        <time>2011-05-08T07:48:22Z</time>
      </trkpt>
      <trkpt lat="48.93444" lon="0.98161">
        <ele>162.6</ele>
        <time>2011-05-08T07:48:28Z</time>
      </trkpt>
      <trkpt lat="48.93483" lon="0.98095">
        <ele>163.56</ele>
        <time>2011-05-08T07:48:36Z</time>
      </trkpt>
      <trkpt lat="48.93526" lon="0.98024">
        <ele>163.56</ele>
        <time>2011-05-08T07:48:45Z</time>
      </trkpt>
      <trkpt lat="48.93555" lon="0.97976">
        <ele>164.04</ele>
        <time>2011-05-08T07:48:51Z</time>
      </trkpt>
      <trkpt lat="48.93564" lon="0.97961">
        <ele>161.16</ele>
        <time>2011-05-08T07:48:53Z</time>
      </trkpt>
      <trkpt lat="48.93569" lon="0.97953">
        <ele>162.6</ele>
        <time>2011-05-08T07:48:54Z</time>
      </trkpt>
      <trkpt lat="48.93632" lon="0.97848">
        <ele>166.93</ele>
        <time>2011-05-08T07:49:08Z</time>
      </trkpt>
      <trkpt lat="48.9365" lon="0.97818">
        <ele>162.6</ele>
        <time>2011-05-08T07:49:12Z</time>
      </trkpt>
      <trkpt lat="48.93655" lon="0.97811">
        <ele>163.56</ele>
        <time>2011-05-08T07:49:13Z</time>
      </trkpt>
      <trkpt lat="48.93702" lon="0.97733">
        <ele>163.08</ele>
        <time>2011-05-08T07:49:23Z</time>
      </trkpt>
      <trkpt lat="48.93797" lon="0.97576">
        <ele>160.68</ele>
        <time>2011-05-08T07:49:41Z</time>
      </trkpt>
      <trkpt lat="48.93945" lon="0.97332">
        <ele>162.12</ele>
        <time>2011-05-08T07:50:09Z</time>
      </trkpt>
      <trkpt lat="48.93979" lon="0.97275">
        <ele>161.64</ele>
        <time>2011-05-08T07:50:16Z</time>
      </trkpt>
      <trkpt lat="48.93999" lon="0.97243">
        <ele>158.27</ele>
        <time>2011-05-08T07:50:20Z</time>
      </trkpt>
      <trkpt lat="48.94004" lon="0.97234">
        <ele>162.6</ele>
        <time>2011-05-08T07:50:21Z</time>
      </trkpt>
      <trkpt lat="48.94066" lon="0.97133">
        <ele>163.08</ele>
        <time>2011-05-08T07:50:34Z</time>
      </trkpt>
      <trkpt lat="48.94101" lon="0.97074">
        <ele>159.24</ele>
        <time>2011-05-08T07:50:42Z</time>
      </trkpt>
      <trkpt lat="48.94124" lon="0.97037">
        <ele>162.6</ele>
        <time>2011-05-08T07:50:47Z</time>
      </trkpt>
      <trkpt lat="48.94192" lon="0.96924">
        <ele>165.96</ele>
        <time>2011-05-08T07:51:02Z</time>
      </trkpt>
      <trkpt lat="48.94246" lon="0.96834">
        <ele>165.48</ele>
        <time>2011-05-08T07:51:14Z</time>
      </trkpt>
      <trkpt lat="48.94279" lon="0.96779">
        <ele>164.52</ele>
        <time>2011-05-08T07:51:21Z</time>
      </trkpt>
      <trkpt lat="48.94288" lon="0.96764">
        <ele>166.45</ele>
        <time>2011-05-08T07:51:23Z</time>
      </trkpt>
      <trkpt lat="48.94312" lon="0.96726">
        <ele>164.52</ele>
        <time>2011-05-08T07:51:28Z</time>
      </trkpt>
      <trkpt lat="48.94321" lon="0.96711">
        <ele>166.45</ele>
        <time>2011-05-08T07:51:30Z</time>
      </trkpt>
      <trkpt lat="48.94368" lon="0.96634">
        <ele>167.41</ele>
        <time>2011-05-08T07:51:40Z</time>
      </trkpt>
      <trkpt lat="48.94401" lon="0.96579">
        <ele>165.48</ele>
        <time>2011-05-08T07:51:47Z</time>
      </trkpt>
      <trkpt lat="48.9441" lon="0.96564">
        <ele>166.45</ele>
        <time>2011-05-08T07:51:49Z</time>
      </trkpt>
      <trkpt lat="48.94429" lon="0.96533">
        <ele>169.81</ele>
        <time>2011-05-08T07:51:53Z</time>
      </trkpt>
      <trkpt lat="48.94451" lon="0.96496">
        <ele>165.48</ele>
        <time>2011-05-08T07:51:58Z</time>
      </trkpt>
      <trkpt lat="48.94478" lon="0.96451">
        <ele>168.37</ele>
        <time>2011-05-08T07:52:04Z</time>
      </trkpt>
      <trkpt lat="48.94488" lon="0.96435">
        <ele>166.45</ele>
        <time>2011-05-08T07:52:06Z</time>
      </trkpt>
      <trkpt lat="48.94497" lon="0.9642">
        <ele>168.37</ele>
        <time>2011-05-08T07:52:08Z</time>
      </trkpt>
      <trkpt lat="48.94511" lon="0.96396">
        <ele>164.52</ele>
        <time>2011-05-08T07:52:11Z</time>
      </trkpt>
      <trkpt lat="48.94521" lon="0.9638">
        <ele>168.37</ele>
        <time>2011-05-08T07:52:13Z</time>
      </trkpt>
      <trkpt lat="48.94525" lon="0.96372">
        <ele>168.37</ele>
        <time>2011-05-08T07:52:14Z</time>
      </trkpt>
      <trkpt lat="48.94541" lon="0.96348">
        <ele>166.93</ele>
        <time>2011-05-08T07:52:17Z</time>
      </trkpt>
      <trkpt lat="48.9462" lon="0.96217">
        <ele>164.04</ele>
        <time>2011-05-08T07:52:32Z</time>
      </trkpt>
      <trkpt lat="48.94664" lon="0.96143">
        <ele>165.96</ele>
        <time>2011-05-08T07:52:40Z</time>
      </trkpt>
      <trkpt lat="48.9467" lon="0.96134">
        <ele>162.12</ele>
        <time>2011-05-08T07:52:41Z</time>
      </trkpt>
      <trkpt lat="48.94675" lon="0.96125">
        <ele>164.04</ele>
        <time>2011-05-08T07:52:42Z</time>
      </trkpt>
      <trkpt lat="48.94686" lon="0.96107">
        <ele>164.52</ele>
        <time>2011-05-08T07:52:44Z</time>
      </trkpt>
      <trkpt lat="48.9472" lon="0.96052">
        <ele>163.08</ele>
        <time>2011-05-08T07:52:50Z</time>
      </trkpt>
      <trkpt lat="48.94782" lon="0.9595">
        <ele>164.52</ele>
        <time>2011-05-08T07:53:01Z</time>
      </trkpt>
      <trkpt lat="48.94793" lon="0.95931">
        <ele>162.12</ele>
        <time>2011-05-08T07:53:03Z</time>
      </trkpt>
      <trkpt lat="48.94815" lon="0.95895">
        <ele>162.6</ele>
        <time>2011-05-08T07:53:07Z</time>
      </trkpt>
      <trkpt lat="48.94948" lon="0.95676">
        <ele>158.75</ele>
        <time>2011-05-08T07:53:30Z</time>
      </trkpt>
      <trkpt lat="48.94977" lon="0.95627">
        <ele>159.72</ele>
        <time>2011-05-08T07:53:35Z</time>
      </trkpt>
      <trkpt lat="48.95146" lon="0.95349">
        <ele>156.35</ele>
        <time>2011-05-08T07:54:04Z</time>
      </trkpt>
      <trkpt lat="48.95151" lon="0.95339">
        <ele>159.72</ele>
        <time>2011-05-08T07:54:05Z</time>
      </trkpt>
      <trkpt lat="48.95184" lon="0.95286">
        <ele>156.83</ele>
        <time>2011-05-08T07:54:11Z</time>
      </trkpt>
      <trkpt lat="48.95195" lon="0.95268">
        <ele>160.2</ele>
        <time>2011-05-08T07:54:13Z</time>
      </trkpt>
      <trkpt lat="48.95241" lon="0.95192">
        <ele>161.64</ele>
        <time>2011-05-08T07:54:23Z</time>
      </trkpt>
      <trkpt lat="48.95259" lon="0.95173">
        <ele>162.12</ele>
        <time>2011-05-08T07:54:29Z</time>
      </trkpt>
      <trkpt lat="48.95261" lon="0.9517">
        <ele>157.31</ele>
        <time>2011-05-08T07:54:31Z</time>
      </trkpt>
      <trkpt lat="48.95262" lon="0.95169">
        <ele>158.27</ele>
        <time>2011-05-08T07:54:32Z</time>
      </trkpt>
      <trkpt lat="48.9526" lon="0.95168">
        <ele>161.16</ele>
        <time>2011-05-08T07:54:34Z</time>
      </trkpt>
      <trkpt lat="48.95257" lon="0.95175">
        <ele>160.68</ele>
        <time>2011-05-08T07:54:40Z</time>
      </trkpt>
      <trkpt lat="48.95257" lon="0.95174">
        <ele>161.16</ele>
        <time>2011-05-08T07:55:12Z</time>
      </trkpt>
      <trkpt lat="48.95257" lon="0.95173">
        <ele>163.08</ele>
        <time>2011-05-08T07:55:30Z</time>
      </trkpt>
      <trkpt lat="48.95257" lon="0.95173">
        <ele>159.72</ele>
        <time>2011-05-08T07:55:35Z</time>
      </trkpt>
      <trkpt lat="48.95257" lon="0.95173">
        <ele>160.2</ele>
        <time>2011-05-08T07:55:36Z</time>
      </trkpt>
      <trkpt lat="48.95257" lon="0.95173">
        <ele>162.12</ele>
        <time>2011-05-08T07:55:38Z</time>
      </trkpt>
      <trkpt lat="48.95257" lon="0.95173">
        <ele>160.68</ele>
        <time>2011-05-08T07:55:41Z</time>
      </trkpt>
      <trkpt lat="48.95257" lon="0.95173">
        <ele>162.12</ele>
        <time>2011-05-08T07:55:43Z</time>
      </trkpt>
      <trkpt lat="48.95257" lon="0.95173">
        <ele>160.68</ele>
        <time>2011-05-08T07:56:00Z</time>
      </trkpt>
      <trkpt lat="48.95257" lon="0.95173">
        <ele>162.12</ele>
        <time>2011-05-08T07:56:08Z</time>
      </trkpt>
      <trkpt lat="48.95257" lon="0.95173">
        <ele>159.72</ele>
        <time>2011-05-08T07:56:19Z</time>
      </trkpt>
      <trkpt lat="48.95257" lon="0.95173">
        <ele>159.72</ele>
        <time>2011-05-08T07:56:33Z</time>
      </trkpt>
      <trkpt lat="48.95261" lon="0.95165">
        <ele>158.27</ele>
        <time>2011-05-08T07:56:38Z</time>
      </trkpt>
      <trkpt lat="48.95266" lon="0.95158">
        <ele>161.64</ele>
        <time>2011-05-08T07:56:42Z</time>
      </trkpt>
      <trkpt lat="48.95273" lon="0.95151">
        <ele>162.12</ele>
        <time>2011-05-08T07:56:53Z</time>
      </trkpt>
      <trkpt lat="48.95279" lon="0.95139">
        <ele>158.75</ele>
        <time>2011-05-08T07:56:56Z</time>
      </trkpt>
      <trkpt lat="48.95281" lon="0.95134">
        <ele>162.6</ele>
        <time>2011-05-08T07:56:57Z</time>
      </trkpt>
      <trkpt lat="48.95292" lon="0.95113">
        <ele>158.27</ele>
        <time>2011-05-08T07:57:01Z</time>
      </trkpt>
      <trkpt lat="48.95305" lon="0.95089">
        <ele>161.64</ele>
        <time>2011-05-08T07:57:06Z</time>
      </trkpt>
      <trkpt lat="48.95359" lon="0.94996">
        <ele>158.75</ele>
        <time>2011-05-08T07:57:24Z</time>
      </trkpt>
      <trkpt lat="48.95369" lon="0.9498">
        <ele>160.2</ele>
        <time>2011-05-08T07:57:27Z</time>
      </trkpt>
      <trkpt lat="48.95411" lon="0.9491">
        <ele>161.16</ele>
        <time>2011-05-08T07:57:39Z</time>
      </trkpt>
      <trkpt lat="48.95418" lon="0.94898">
        <ele>158.75</ele>
        <time>2011-05-08T07:57:41Z</time>
      </trkpt>
      <trkpt lat="48.95449" lon="0.94847">
        <ele>162.12</ele>
        <time>2011-05-08T07:57:50Z</time>
      </trkpt>
      <trkpt lat="48.95472" lon="0.94809">
        <ele>158.75</ele>
        <time>2011-05-08T07:57:57Z</time>
      </trkpt>
      <trkpt lat="48.95515" lon="0.94737">
        <ele>157.79</ele>
        <time>2011-05-08T07:58:08Z</time>
      </trkpt>
      <trkpt lat="48.95523" lon="0.94724">
        <ele>159.72</ele>
        <time>2011-05-08T07:58:10Z</time>
      </trkpt>
      <trkpt lat="48.95567" lon="0.94667">
        <ele>156.35</ele>
        <time>2011-05-08T07:58:19Z</time>
      </trkpt>
      <trkpt lat="48.95588" lon="0.94642">
        <ele>159.72</ele>
        <time>2011-05-08T07:58:23Z</time>
      </trkpt>
      <trkpt lat="48.9564" lon="0.94588">
        <ele>155.39</ele>
        <time>2011-05-08T07:58:32Z</time>
      </trkpt>
      <trkpt lat="48.95735" lon="0.94497">
        <ele>150.1</ele>
        <time>2011-05-08T07:58:47Z</time>
      </trkpt>
      <trkpt lat="48.95742" lon="0.9449">
        <ele>150.58</ele>
        <time>2011-05-08T07:58:48Z</time>
      </trkpt>
      <trkpt lat="48.95754" lon="0.94477">
        <ele>152.99</ele>
        <time>2011-05-08T07:58:50Z</time>
      </trkpt>
      <trkpt lat="48.9576" lon="0.94469">
        <ele>152.03</ele>
        <time>2011-05-08T07:58:51Z</time>
      </trkpt>
      <trkpt lat="48.95772" lon="0.94456">
        <ele>151.06</ele>
        <time>2011-05-08T07:58:53Z</time>
      </trkpt>
      <trkpt lat="48.95797" lon="0.94435">
        <ele>149.62</ele>
        <time>2011-05-08T07:58:57Z</time>
      </trkpt>
      <trkpt lat="48.95823" lon="0.94409">
        <ele>149.62</ele>
        <time>2011-05-08T07:59:01Z</time>
      </trkpt>
      <trkpt lat="48.95862" lon="0.94373">
        <ele>146.26</ele>
        <time>2011-05-08T07:59:07Z</time>
      </trkpt>
      <trkpt lat="48.95879" lon="0.94355">
        <ele>148.66</ele>
        <time>2011-05-08T07:59:10Z</time>
      </trkpt>
      <trkpt lat="48.95909" lon="0.9432">
        <ele>144.82</ele>
        <time>2011-05-08T07:59:17Z</time>
      </trkpt>
      <trkpt lat="48.95929" lon="0.94301">
        <ele>148.18</ele>
        <time>2011-05-08T07:59:22Z</time>
      </trkpt>
      <trkpt lat="48.95936" lon="0.94292">
        <ele>146.26</ele>
        <time>2011-05-08T07:59:24Z</time>
      </trkpt>
      <trkpt lat="48.95944" lon="0.94283">
        <ele>147.7</ele>
        <time>2011-05-08T07:59:26Z</time>
      </trkpt>
      <trkpt lat="48.95948" lon="0.9428">
        <ele>147.7</ele>
        <time>2011-05-08T07:59:27Z</time>
      </trkpt>
      <trkpt lat="48.95981" lon="0.9426">
        <ele>147.22</ele>
        <time>2011-05-08T07:59:36Z</time>
      </trkpt>
      <trkpt lat="48.95998" lon="0.94248">
        <ele>145.78</ele>
        <time>2011-05-08T07:59:41Z</time>
      </trkpt>
      <trkpt lat="48.96035" lon="0.9427">
        <ele>146.74</ele>
        <time>2011-05-08T07:59:51Z</time>
      </trkpt>
      <trkpt lat="48.96045" lon="0.94282">
        <ele>145.78</ele>
        <time>2011-05-08T07:59:54Z</time>
      </trkpt>
      <trkpt lat="48.96056" lon="0.94295">
        <ele>146.26</ele>
        <time>2011-05-08T07:59:57Z</time>
      </trkpt>
      <trkpt lat="48.96065" lon="0.9431">
        <ele>143.37</ele>
        <time>2011-05-08T08:00:00Z</time>
      </trkpt>
      <trkpt lat="48.96076" lon="0.94321">
        <ele>145.3</ele>
        <time>2011-05-08T08:00:03Z</time>
      </trkpt>
      <trkpt lat="48.96092" lon="0.94298">
        <ele>143.85</ele>
        <time>2011-05-08T08:00:09Z</time>
      </trkpt>
      <trkpt lat="48.96118" lon="0.94295">
        <ele>143.37</ele>
        <time>2011-05-08T08:00:16Z</time>
      </trkpt>
      <trkpt lat="48.96139" lon="0.94282">
        <ele>144.82</ele>
        <time>2011-05-08T08:00:24Z</time>
      </trkpt>
      <trkpt lat="48.96157" lon="0.94275">
        <ele>144.34</ele>
        <time>2011-05-08T08:00:30Z</time>
      </trkpt>
      <trkpt lat="48.96184" lon="0.943">
        <ele>147.22</ele>
        <time>2011-05-08T08:00:43Z</time>
      </trkpt>
      <trkpt lat="48.96191" lon="0.94305">
        <ele>144.82</ele>
        <time>2011-05-08T08:00:54Z</time>
      </trkpt>
      <trkpt lat="48.96191" lon="0.94305">
        <ele>147.7</ele>
        <time>2011-05-08T08:00:56Z</time>
      </trkpt>
      <trkpt lat="48.96191" lon="0.94306">
        <ele>148.18</ele>
        <time>2011-05-08T08:00:58Z</time>
      </trkpt>
      <trkpt lat="48.96192" lon="0.9431">
        <ele>144.34</ele>
        <time>2011-05-08T08:01:01Z</time>
      </trkpt>
      <trkpt lat="48.96195" lon="0.94311">
        <ele>146.26</ele>
        <time>2011-05-08T08:01:08Z</time>
      </trkpt>
      <trkpt lat="48.96195" lon="0.9431">
        <ele>143.85</ele>
        <time>2011-05-08T08:01:10Z</time>
      </trkpt>
      <trkpt lat="48.96195" lon="0.94308">
        <ele>145.78</ele>
        <time>2011-05-08T08:01:12Z</time>
      </trkpt>
      <trkpt lat="48.96194" lon="0.94306">
        <ele>145.78</ele>
        <time>2011-05-08T08:01:25Z</time>
      </trkpt>
      <trkpt lat="48.96194" lon="0.94306">
        <ele>147.22</ele>
        <time>2011-05-08T08:01:28Z</time>
      </trkpt>
      <trkpt lat="48.96199" lon="0.94314">
        <ele>145.78</ele>
        <time>2011-05-08T08:01:40Z</time>
      </trkpt>
      <trkpt lat="48.96199" lon="0.94314">
        <ele>145.3</ele>
        <time>2011-05-08T08:02:08Z</time>
      </trkpt>
      <trkpt lat="48.96199" lon="0.94314">
        <ele>145.3</ele>
        <time>2011-05-08T08:02:27Z</time>
      </trkpt>
      <trkpt lat="48.962" lon="0.94315">
        <ele>147.22</ele>
        <time>2011-05-08T08:02:43Z</time>
      </trkpt>
      <trkpt lat="48.962" lon="0.94314">
        <ele>145.78</ele>
        <time>2011-05-08T08:02:45Z</time>
      </trkpt>
      <trkpt lat="48.96202" lon="0.94313">
        <ele>145.78</ele>
        <time>2011-05-08T08:03:07Z</time>
      </trkpt>
      <trkpt lat="48.96202" lon="0.94313">
        <ele>144.34</ele>
        <time>2011-05-08T08:03:17Z</time>
      </trkpt>
      <trkpt lat="48.96202" lon="0.94313">
        <ele>144.34</ele>
        <time>2011-05-08T08:03:45Z</time>
      </trkpt>
      <trkpt lat="48.96202" lon="0.94313">
        <ele>147.22</ele>
        <time>2011-05-08T08:04:02Z</time>
      </trkpt>
      <trkpt lat="48.96202" lon="0.94313">
        <ele>147.7</ele>
        <time>2011-05-08T08:04:03Z</time>
      </trkpt>
      <trkpt lat="48.96202" lon="0.94313">
        <ele>144.34</ele>
        <time>2011-05-08T08:04:06Z</time>
      </trkpt>
      <trkpt lat="48.96202" lon="0.94313">
        <ele>146.74</ele>
        <time>2011-05-08T08:04:14Z</time>
      </trkpt>
      <trkpt lat="48.96202" lon="0.94312">
        <ele>143.85</ele>
        <time>2011-05-08T08:04:25Z</time>
      </trkpt>
      <trkpt lat="48.96202" lon="0.94312">
        <ele>143.85</ele>
        <time>2011-05-08T08:04:26Z</time>
      </trkpt>
      <trkpt lat="48.96202" lon="0.94313">
        <ele>145.3</ele>
        <time>2011-05-08T08:04:28Z</time>
      </trkpt>
      <trkpt lat="48.96201" lon="0.94311">
        <ele>146.74</ele>
        <time>2011-05-08T08:04:41Z</time>
      </trkpt>
      <trkpt lat="48.96212" lon="0.94303">
        <ele>146.74</ele>
        <time>2011-05-08T08:04:51Z</time>
      </trkpt>
      <trkpt lat="48.96207" lon="0.94287">
        <ele>148.66</ele>
        <time>2011-05-08T08:05:00Z</time>
      </trkpt>
      <trkpt lat="48.96205" lon="0.94287">
        <ele>145.78</ele>
        <time>2011-05-08T08:05:01Z</time>
      </trkpt>
      <trkpt lat="48.96191" lon="0.94292">
        <ele>146.26</ele>
        <time>2011-05-08T08:05:08Z</time>
      </trkpt>
      <trkpt lat="48.96189" lon="0.94296">
        <ele>147.22</ele>
        <time>2011-05-08T08:05:10Z</time>
      </trkpt>
      <trkpt lat="48.96197" lon="0.943">
        <ele>144.82</ele>
        <time>2011-05-08T08:05:17Z</time>
      </trkpt>
      <trkpt lat="48.96198" lon="0.94288">
        <ele>145.3</ele>
        <time>2011-05-08T08:05:26Z</time>
      </trkpt>
      <trkpt lat="48.96202" lon="0.94296">
        <ele>144.82</ele>
        <time>2011-05-08T08:05:32Z</time>
      </trkpt>
      <trkpt lat="48.96206" lon="0.94293">
        <ele>144.82</ele>
        <time>2011-05-08T08:05:34Z</time>
      </trkpt>
      <trkpt lat="48.96215" lon="0.94282">
        <ele>145.3</ele>
        <time>2011-05-08T08:05:38Z</time>
      </trkpt>
      <trkpt lat="48.96221" lon="0.94273">
        <ele>143.37</ele>
        <time>2011-05-08T08:05:40Z</time>
      </trkpt>
      <trkpt lat="48.96224" lon="0.94268">
        <ele>143.37</ele>
        <time>2011-05-08T08:05:41Z</time>
      </trkpt>
      <trkpt lat="48.96236" lon="0.94234">
        <ele>144.82</ele>
        <time>2011-05-08T08:05:46Z</time>
      </trkpt>
      <trkpt lat="48.96235" lon="0.94207">
        <ele>144.34</ele>
        <time>2011-05-08T08:05:50Z</time>
      </trkpt>
      <trkpt lat="48.96235" lon="0.94181">
        <ele>145.3</ele>
        <time>2011-05-08T08:05:56Z</time>
      </trkpt>
      <trkpt lat="48.96288" lon="0.94168">
        <ele>142.41</ele>
        <time>2011-05-08T08:06:07Z</time>
      </trkpt>
      <trkpt lat="48.96352" lon="0.94149">
        <ele>139.05</ele>
        <time>2011-05-08T08:06:17Z</time>
      </trkpt>
      <trkpt lat="48.96434" lon="0.94159">
        <ele>140.01</ele>
        <time>2011-05-08T08:06:29Z</time>
      </trkpt>
      <trkpt lat="48.96441" lon="0.94162">
        <ele>135.2</ele>
        <time>2011-05-08T08:06:30Z</time>
      </trkpt>
      <trkpt lat="48.96449" lon="0.94165">
        <ele>135.68</ele>
        <time>2011-05-08T08:06:31Z</time>
      </trkpt>
      <trkpt lat="48.96481" lon="0.94181">
        <ele>129.92</ele>
        <time>2011-05-08T08:06:35Z</time>
      </trkpt>
      <trkpt lat="48.9649" lon="0.94185">
        <ele>132.32</ele>
        <time>2011-05-08T08:06:36Z</time>
      </trkpt>
      <trkpt lat="48.96531" lon="0.94216">
        <ele>128.95</ele>
        <time>2011-05-08T08:06:41Z</time>
      </trkpt>
      <trkpt lat="48.96554" lon="0.94238">
        <ele>131.84</ele>
        <time>2011-05-08T08:06:44Z</time>
      </trkpt>
      <trkpt lat="48.96561" lon="0.94246">
        <ele>128.47</ele>
        <time>2011-05-08T08:06:45Z</time>
      </trkpt>
      <trkpt lat="48.96568" lon="0.94254">
        <ele>129.43</ele>
        <time>2011-05-08T08:06:46Z</time>
      </trkpt>
      <trkpt lat="48.96619" lon="0.94283">
        <ele>125.11</ele>
        <time>2011-05-08T08:06:52Z</time>
      </trkpt>
      <trkpt lat="48.96695" lon="0.94337">
        <ele>122.71</ele>
        <time>2011-05-08T08:07:01Z</time>
      </trkpt>
      <trkpt lat="48.96759" lon="0.94379">
        <ele>120.78</ele>
        <time>2011-05-08T08:07:09Z</time>
      </trkpt>
      <trkpt lat="48.96783" lon="0.94391">
        <ele>120.78</ele>
        <time>2011-05-08T08:07:12Z</time>
      </trkpt>
      <trkpt lat="48.96815" lon="0.9439">
        <ele>120.78</ele>
        <time>2011-05-08T08:07:16Z</time>
      </trkpt>
      <trkpt lat="48.96836" lon="0.94379">
        <ele>122.22</ele>
        <time>2011-05-08T08:07:19Z</time>
      </trkpt>
      <trkpt lat="48.96842" lon="0.94375">
        <ele>118.86</ele>
        <time>2011-05-08T08:07:20Z</time>
      </trkpt>
      <trkpt lat="48.96853" lon="0.94368">
        <ele>122.22</ele>
        <time>2011-05-08T08:07:22Z</time>
      </trkpt>
      <trkpt lat="48.9689" lon="0.94347">
        <ele>125.11</ele>
        <time>2011-05-08T08:07:31Z</time>
      </trkpt>
      <trkpt lat="48.96907" lon="0.94339">
        <ele>125.59</ele>
        <time>2011-05-08T08:07:36Z</time>
      </trkpt>
      <trkpt lat="48.96925" lon="0.94336">
        <ele>129.43</ele>
        <time>2011-05-08T08:07:41Z</time>
      </trkpt>
      <trkpt lat="48.96928" lon="0.94336">
        <ele>129.43</ele>
        <time>2011-05-08T08:07:42Z</time>
      </trkpt>
      <trkpt lat="48.96949" lon="0.94362">
        <ele>128.47</ele>
        <time>2011-05-08T08:07:51Z</time>
      </trkpt>
      <trkpt lat="48.96952" lon="0.9437">
        <ele>129.92</ele>
        <time>2011-05-08T08:07:53Z</time>
      </trkpt>
      <trkpt lat="48.96963" lon="0.94393">
        <ele>134.24</ele>
        <time>2011-05-08T08:08:00Z</time>
      </trkpt>
      <trkpt lat="48.96965" lon="0.94396">
        <ele>134.24</ele>
        <time>2011-05-08T08:08:01Z</time>
      </trkpt>
      <trkpt lat="48.96982" lon="0.94429">
        <ele>134.24</ele>
        <time>2011-05-08T08:08:12Z</time>
      </trkpt>
      <trkpt lat="48.96989" lon="0.94445">
        <ele>136.16</ele>
        <time>2011-05-08T08:08:17Z</time>
      </trkpt>
      <trkpt lat="48.97006" lon="0.94481">
        <ele>140.01</ele>
        <time>2011-05-08T08:08:29Z</time>
      </trkpt>
      <trkpt lat="48.97008" lon="0.94484">
        <ele>139.05</ele>
        <time>2011-05-08T08:08:30Z</time>
      </trkpt>
      <trkpt lat="48.97028" lon="0.94525">
        <ele>142.41</ele>
        <time>2011-05-08T08:08:44Z</time>
      </trkpt>
      <trkpt lat="48.97063" lon="0.94579">
        <ele>143.37</ele>
        <time>2011-05-08T08:09:02Z</time>
      </trkpt>
      <trkpt lat="48.97113" lon="0.94638">
        <ele>145.78</ele>
        <time>2011-05-08T08:09:22Z</time>
      </trkpt>
      <trkpt lat="48.9713" lon="0.94656">
        <ele>148.66</ele>
        <time>2011-05-08T08:09:29Z</time>
      </trkpt>
      <trkpt lat="48.97132" lon="0.94659">
        <ele>145.3</ele>
        <time>2011-05-08T08:09:30Z</time>
      </trkpt>
      <trkpt lat="48.97141" lon="0.9467">
        <ele>148.66</ele>
        <time>2011-05-08T08:09:34Z</time>
      </trkpt>
      <trkpt lat="48.97154" lon="0.94685">
        <ele>148.18</ele>
        <time>2011-05-08T08:09:39Z</time>
      </trkpt>
      <trkpt lat="48.97212" lon="0.9475">
        <ele>149.14</ele>
        <time>2011-05-08T08:10:01Z</time>
      </trkpt>
      <trkpt lat="48.97274" lon="0.9479">
        <ele>152.03</ele>
        <time>2011-05-08T08:10:17Z</time>
      </trkpt>
      <trkpt lat="48.97282" lon="0.94795">
        <ele>150.1</ele>
        <time>2011-05-08T08:10:19Z</time>
      </trkpt>
      <trkpt lat="48.97303" lon="0.94808">
        <ele>151.54</ele>
        <time>2011-05-08T08:10:24Z</time>
      </trkpt>
      <trkpt lat="48.9732" lon="0.94819">
        <ele>148.18</ele>
        <time>2011-05-08T08:10:28Z</time>
      </trkpt>
      <trkpt lat="48.97329" lon="0.94825">
        <ele>151.54</ele>
        <time>2011-05-08T08:10:30Z</time>
      </trkpt>
      <trkpt lat="48.97356" lon="0.94842">
        <ele>152.03</ele>
        <time>2011-05-08T08:10:36Z</time>
      </trkpt>
      <trkpt lat="48.97365" lon="0.94847">
        <ele>150.58</ele>
        <time>2011-05-08T08:10:38Z</time>
      </trkpt>
      <trkpt lat="48.97426" lon="0.9487">
        <ele>152.99</ele>
        <time>2011-05-08T08:10:51Z</time>
      </trkpt>
      <trkpt lat="48.97446" lon="0.94871">
        <ele>150.1</ele>
        <time>2011-05-08T08:10:55Z</time>
      </trkpt>
      <trkpt lat="48.97475" lon="0.94873">
        <ele>153.47</ele>
        <time>2011-05-08T08:11:01Z</time>
      </trkpt>
      <trkpt lat="48.97494" lon="0.94875">
        <ele>153.95</ele>
        <time>2011-05-08T08:11:05Z</time>
      </trkpt>
      <trkpt lat="48.97533" lon="0.94877">
        <ele>152.03</ele>
        <time>2011-05-08T08:11:13Z</time>
      </trkpt>
      <trkpt lat="48.97553" lon="0.94881">
        <ele>152.51</ele>
        <time>2011-05-08T08:11:17Z</time>
      </trkpt>
      <trkpt lat="48.97657" lon="0.94905">
        <ele>153.95</ele>
        <time>2011-05-08T08:11:35Z</time>
      </trkpt>
      <trkpt lat="48.97691" lon="0.94921">
        <ele>148.66</ele>
        <time>2011-05-08T08:11:40Z</time>
      </trkpt>
      <trkpt lat="48.97698" lon="0.94925">
        <ele>152.03</ele>
        <time>2011-05-08T08:11:41Z</time>
      </trkpt>
      <trkpt lat="48.9772" lon="0.94937">
        <ele>148.18</ele>
        <time>2011-05-08T08:11:44Z</time>
      </trkpt>
      <trkpt lat="48.97728" lon="0.94942">
        <ele>148.18</ele>
        <time>2011-05-08T08:11:45Z</time>
      </trkpt>
      <trkpt lat="48.97858" lon="0.95029">
        <ele>148.66</ele>
        <time>2011-05-08T08:12:01Z</time>
      </trkpt>
      <trkpt lat="48.97866" lon="0.95034">
        <ele>145.3</ele>
        <time>2011-05-08T08:12:02Z</time>
      </trkpt>
      <trkpt lat="48.97874" lon="0.9504">
        <ele>145.78</ele>
        <time>2011-05-08T08:12:03Z</time>
      </trkpt>
      <trkpt lat="48.97948" lon="0.95089">
        <ele>142.41</ele>
        <time>2011-05-08T08:12:12Z</time>
      </trkpt>
      <trkpt lat="48.97971" lon="0.95105">
        <ele>145.78</ele>
        <time>2011-05-08T08:12:15Z</time>
      </trkpt>
      <trkpt lat="48.97979" lon="0.9511">
        <ele>145.3</ele>
        <time>2011-05-08T08:12:16Z</time>
      </trkpt>
      <trkpt lat="48.97999" lon="0.95124">
        <ele>147.22</ele>
        <time>2011-05-08T08:12:19Z</time>
      </trkpt>
      <trkpt lat="48.98041" lon="0.95152">
        <ele>150.58</ele>
        <time>2011-05-08T08:12:26Z</time>
      </trkpt>
      <trkpt lat="48.98181" lon="0.95245">
        <ele>147.22</ele>
        <time>2011-05-08T08:12:50Z</time>
      </trkpt>
      <trkpt lat="48.98192" lon="0.95253">
        <ele>152.03</ele>
        <time>2011-05-08T08:12:52Z</time>
      </trkpt>
      <trkpt lat="48.98197" lon="0.95256">
        <ele>148.18</ele>
        <time>2011-05-08T08:12:53Z</time>
      </trkpt>
      <trkpt lat="48.98213" lon="0.95267">
        <ele>150.1</ele>
        <time>2011-05-08T08:12:56Z</time>
      </trkpt>
      <trkpt lat="48.9824" lon="0.95289">
        <ele>153.47</ele>
        <time>2011-05-08T08:13:02Z</time>
      </trkpt>
      <trkpt lat="48.98258" lon="0.95306">
        <ele>156.35</ele>
        <time>2011-05-08T08:13:06Z</time>
      </trkpt>
      <trkpt lat="48.98263" lon="0.9531">
        <ele>153.95</ele>
        <time>2011-05-08T08:13:07Z</time>
      </trkpt>
      <trkpt lat="48.98298" lon="0.95353">
        <ele>156.83</ele>
        <time>2011-05-08T08:13:16Z</time>
      </trkpt>
      <trkpt lat="48.98333" lon="0.95411">
        <ele>152.99</ele>
        <time>2011-05-08T08:13:25Z</time>
      </trkpt>
      <trkpt lat="48.98368" lon="0.95482">
        <ele>156.83</ele>
        <time>2011-05-08T08:13:34Z</time>
      </trkpt>
      <trkpt lat="48.9838" lon="0.95505">
        <ele>153.47</ele>
        <time>2011-05-08T08:13:37Z</time>
      </trkpt>
      <trkpt lat="48.98396" lon="0.95532">
        <ele>153.47</ele>
        <time>2011-05-08T08:13:41Z</time>
      </trkpt>
      <trkpt lat="48.98446" lon="0.9555">
        <ele>153.95</ele>
        <time>2011-05-08T08:13:50Z</time>
      </trkpt>
      <trkpt lat="48.98457" lon="0.95546">
        <ele>155.87</ele>
        <time>2011-05-08T08:13:52Z</time>
      </trkpt>
      <trkpt lat="48.98468" lon="0.95541">
        <ele>154.91</ele>
        <time>2011-05-08T08:13:54Z</time>
      </trkpt>
      <trkpt lat="48.98525" lon="0.95533">
        <ele>158.27</ele>
        <time>2011-05-08T08:14:04Z</time>
      </trkpt>
      <trkpt lat="48.98575" lon="0.95548">
        <ele>154.91</ele>
        <time>2011-05-08T08:14:13Z</time>
      </trkpt>
      <trkpt lat="48.98592" lon="0.95557">
        <ele>158.27</ele>
        <time>2011-05-08T08:14:16Z</time>
      </trkpt>
      <trkpt lat="48.98655" lon="0.95595">
        <ele>157.31</ele>
        <time>2011-05-08T08:14:26Z</time>
      </trkpt>
      <trkpt lat="48.98668" lon="0.95603">
        <ele>155.87</ele>
        <time>2011-05-08T08:14:28Z</time>
      </trkpt>
      <trkpt lat="48.98704" lon="0.95624">
        <ele>153.95</ele>
        <time>2011-05-08T08:14:33Z</time>
      </trkpt>
      <trkpt lat="48.98718" lon="0.95632">
        <ele>155.39</ele>
        <time>2011-05-08T08:14:35Z</time>
      </trkpt>
      <trkpt lat="48.98762" lon="0.95658">
        <ele>152.03</ele>
        <time>2011-05-08T08:14:41Z</time>
      </trkpt>
      <trkpt lat="48.98908" lon="0.95744">
        <ele>153.47</ele>
        <time>2011-05-08T08:15:01Z</time>
      </trkpt>
      <trkpt lat="48.98935" lon="0.9576">
        <ele>152.03</ele>
        <time>2011-05-08T08:15:05Z</time>
      </trkpt>
      <trkpt lat="48.99116" lon="0.95857">
        <ele>149.14</ele>
        <time>2011-05-08T08:15:31Z</time>
      </trkpt>
      <trkpt lat="48.99222" lon="0.95912">
        <ele>150.58</ele>
        <time>2011-05-08T08:15:46Z</time>
      </trkpt>
      <trkpt lat="48.99237" lon="0.95919">
        <ele>149.14</ele>
        <time>2011-05-08T08:15:48Z</time>
      </trkpt>
      <trkpt lat="48.99398" lon="0.96002">
        <ele>151.06</ele>
        <time>2011-05-08T08:16:12Z</time>
      </trkpt>
      <trkpt lat="48.9944" lon="0.96033">
        <ele>150.1</ele>
        <time>2011-05-08T08:16:20Z</time>
      </trkpt>
      <trkpt lat="48.99461" lon="0.96043">
        <ele>154.43</ele>
        <time>2011-05-08T08:16:24Z</time>
      </trkpt>
      <trkpt lat="48.99467" lon="0.96043">
        <ele>150.1</ele>
        <time>2011-05-08T08:16:25Z</time>
      </trkpt>
      <trkpt lat="48.99479" lon="0.96039">
        <ele>149.62</ele>
        <time>2011-05-08T08:16:27Z</time>
      </trkpt>
      <trkpt lat="48.99491" lon="0.96036">
        <ele>152.03</ele>
        <time>2011-05-08T08:16:29Z</time>
      </trkpt>
      <trkpt lat="48.99506" lon="0.9605">
        <ele>150.1</ele>
        <time>2011-05-08T08:16:32Z</time>
      </trkpt>
      <trkpt lat="48.99527" lon="0.961">
        <ele>153.47</ele>
        <time>2011-05-08T08:16:38Z</time>
      </trkpt>
      <trkpt lat="48.9956" lon="0.96172">
        <ele>149.14</ele>
        <time>2011-05-08T08:16:47Z</time>
      </trkpt>
      <trkpt lat="48.99564" lon="0.9618">
        <ele>152.03</ele>
        <time>2011-05-08T08:16:48Z</time>
      </trkpt>
      <trkpt lat="48.99635" lon="0.96341">
        <ele>149.14</ele>
        <time>2011-05-08T08:17:07Z</time>
      </trkpt>
      <trkpt lat="48.99646" lon="0.96367">
        <ele>151.06</ele>
        <time>2011-05-08T08:17:10Z</time>
      </trkpt>
      <trkpt lat="48.99687" lon="0.96466">
        <ele>148.18</ele>
        <time>2011-05-08T08:17:21Z</time>
      </trkpt>
      <trkpt lat="48.99792" lon="0.96689">
        <ele>147.7</ele>
        <time>2011-05-08T08:17:44Z</time>
      </trkpt>
      <trkpt lat="48.99816" lon="0.96721">
        <ele>144.34</ele>
        <time>2011-05-08T08:17:48Z</time>
      </trkpt>
      <trkpt lat="48.99823" lon="0.96729">
        <ele>145.78</ele>
        <time>2011-05-08T08:17:49Z</time>
      </trkpt>
      <trkpt lat="48.99882" lon="0.96789">
        <ele>147.7</ele>
        <time>2011-05-08T08:17:58Z</time>
      </trkpt>
      <trkpt lat="48.99892" lon="0.96805">
        <ele>146.74</ele>
        <time>2011-05-08T08:18:00Z</time>
      </trkpt>
      <trkpt lat="48.99878" lon="0.96859">
        <ele>147.7</ele>
        <time>2011-05-08T08:18:06Z</time>
      </trkpt>
      <trkpt lat="48.99866" lon="0.96876">
        <ele>151.06</ele>
        <time>2011-05-08T08:18:09Z</time>
      </trkpt>
      <trkpt lat="48.99862" lon="0.96881">
        <ele>146.74</ele>
        <time>2011-05-08T08:18:10Z</time>
      </trkpt>
      <trkpt lat="48.99855" lon="0.96891">
        <ele>151.54</ele>
        <time>2011-05-08T08:18:12Z</time>
      </trkpt>
      <trkpt lat="48.99852" lon="0.96895">
        <ele>150.1</ele>
        <time>2011-05-08T08:18:13Z</time>
      </trkpt>
      <trkpt lat="48.9985" lon="0.96929">
        <ele>150.58</ele>
        <time>2011-05-08T08:18:19Z</time>
      </trkpt>
      <trkpt lat="48.99893" lon="0.97049">
        <ele>150.58</ele>
        <time>2011-05-08T08:18:38Z</time>
      </trkpt>
      <trkpt lat="48.99901" lon="0.97084">
        <ele>147.22</ele>
        <time>2011-05-08T08:18:43Z</time>
      </trkpt>
      <trkpt lat="48.99903" lon="0.97092">
        <ele>147.22</ele>
        <time>2011-05-08T08:18:44Z</time>
      </trkpt>
      <trkpt lat="48.99907" lon="0.97109">
        <ele>151.54</ele>
        <time>2011-05-08T08:18:46Z</time>
      </trkpt>
      <trkpt lat="48.99912" lon="0.97127">
        <ele>147.22</ele>
        <time>2011-05-08T08:18:48Z</time>
      </trkpt>
      <trkpt lat="48.99925" lon="0.97172">
        <ele>147.7</ele>
        <time>2011-05-08T08:18:53Z</time>
      </trkpt>
      <trkpt lat="48.99946" lon="0.97248">
        <ele>143.85</ele>
        <time>2011-05-08T08:19:01Z</time>
      </trkpt>
      <trkpt lat="48.99949" lon="0.97259">
        <ele>147.7</ele>
        <time>2011-05-08T08:19:02Z</time>
      </trkpt>
      <trkpt lat="48.99963" lon="0.97314">
        <ele>143.85</ele>
        <time>2011-05-08T08:19:07Z</time>
      </trkpt>
      <trkpt lat="48.99976" lon="0.97364">
        <ele>142.41</ele>
        <time>2011-05-08T08:19:11Z</time>
      </trkpt>
      <trkpt lat="48.99998" lon="0.97442">
        <ele>140.49</ele>
        <time>2011-05-08T08:19:17Z</time>
      </trkpt>
      <trkpt lat="49.00015" lon="0.9751">
        <ele>137.13</ele>
        <time>2011-05-08T08:19:22Z</time>
      </trkpt>
      <trkpt lat="49.00019" lon="0.97523">
        <ele>140.97</ele>
        <time>2011-05-08T08:19:23Z</time>
      </trkpt>
      <trkpt lat="49.00034" lon="0.97589">
        <ele>136.16</ele>
        <time>2011-05-08T08:19:28Z</time>
      </trkpt>
      <trkpt lat="49.00038" lon="0.97659">
        <ele>137.13</ele>
        <time>2011-05-08T08:19:33Z</time>
      </trkpt>
      <trkpt lat="49.00057" lon="0.97722">
        <ele>135.2</ele>
        <time>2011-05-08T08:19:38Z</time>
      </trkpt>
      <trkpt lat="49.00094" lon="0.97775">
        <ele>133.76</ele>
        <time>2011-05-08T08:19:43Z</time>
      </trkpt>
      <trkpt lat="49.00107" lon="0.97801">
        <ele>130.4</ele>
        <time>2011-05-08T08:19:45Z</time>
      </trkpt>
      <trkpt lat="49.00129" lon="0.97875">
        <ele>130.4</ele>
        <time>2011-05-08T08:19:50Z</time>
      </trkpt>
      <trkpt lat="49.00162" lon="0.97978">
        <ele>126.55</ele>
        <time>2011-05-08T08:19:57Z</time>
      </trkpt>
      <trkpt lat="49.00167" lon="0.97993">
        <ele>126.55</ele>
        <time>2011-05-08T08:19:58Z</time>
      </trkpt>
      <trkpt lat="49.00197" lon="0.98082">
        <ele>123.67</ele>
        <time>2011-05-08T08:20:04Z</time>
      </trkpt>
      <trkpt lat="49.0022" lon="0.98161">
        <ele>120.3</ele>
        <time>2011-05-08T08:20:09Z</time>
      </trkpt>
      <trkpt lat="49.00236" lon="0.98245">
        <ele>118.38</ele>
        <time>2011-05-08T08:20:14Z</time>
      </trkpt>
      <trkpt lat="49.00253" lon="0.98358">
        <ele>117.9</ele>
        <time>2011-05-08T08:20:21Z</time>
      </trkpt>
      <trkpt lat="49.00256" lon="0.98373">
        <ele>121.26</ele>
        <time>2011-05-08T08:20:22Z</time>
      </trkpt>
      <trkpt lat="49.00259" lon="0.98387">
        <ele>118.86</ele>
        <time>2011-05-08T08:20:23Z</time>
      </trkpt>
      <trkpt lat="49.00273" lon="0.98442">
        <ele>121.74</ele>
        <time>2011-05-08T08:20:28Z</time>
      </trkpt>
      <trkpt lat="49.00282" lon="0.98486">
        <ele>126.07</ele>
        <time>2011-05-08T08:20:34Z</time>
      </trkpt>
      <trkpt lat="49.00288" lon="0.98505">
        <ele>126.07</ele>
        <time>2011-05-08T08:20:37Z</time>
      </trkpt>
      <trkpt lat="49.00298" lon="0.98554">
        <ele>129.92</ele>
        <time>2011-05-08T08:20:46Z</time>
      </trkpt>
      <trkpt lat="49.00301" lon="0.98566">
        <ele>130.88</ele>
        <time>2011-05-08T08:20:48Z</time>
      </trkpt>
      <trkpt lat="49.00313" lon="0.98622">
        <ele>134.24</ele>
        <time>2011-05-08T08:21:00Z</time>
      </trkpt>
      <trkpt lat="49.00313" lon="0.98627">
        <ele>130.4</ele>
        <time>2011-05-08T08:21:01Z</time>
      </trkpt>
      <trkpt lat="49.00312" lon="0.98652">
        <ele>133.76</ele>
        <time>2011-05-08T08:21:06Z</time>
      </trkpt>
      <trkpt lat="49.00312" lon="0.98657">
        <ele>133.28</ele>
        <time>2011-05-08T08:21:07Z</time>
      </trkpt>
      <trkpt lat="49.00313" lon="0.98742">
        <ele>133.76</ele>
        <time>2011-05-08T08:21:23Z</time>
      </trkpt>
      <trkpt lat="49.0032" lon="0.98818">
        <ele>130.4</ele>
        <time>2011-05-08T08:21:37Z</time>
      </trkpt>
      <trkpt lat="49.00321" lon="0.98823">
        <ele>134.24</ele>
        <time>2011-05-08T08:21:38Z</time>
      </trkpt>
      <trkpt lat="49.00326" lon="0.98863">
        <ele>135.2</ele>
        <time>2011-05-08T08:21:46Z</time>
      </trkpt>
      <trkpt lat="49.00328" lon="0.98891">
        <ele>136.16</ele>
        <time>2011-05-08T08:21:52Z</time>
      </trkpt>
      <trkpt lat="49.00328" lon="0.98907">
        <ele>136.16</ele>
        <time>2011-05-08T08:21:55Z</time>
      </trkpt>
      <trkpt lat="49.00326" lon="0.98946">
        <ele>136.64</ele>
        <time>2011-05-08T08:22:04Z</time>
      </trkpt>
      <trkpt lat="49.00327" lon="0.98978">
        <ele>139.05</ele>
        <time>2011-05-08T08:22:12Z</time>
      </trkpt>
      <trkpt lat="49.00333" lon="0.99021">
        <ele>140.01</ele>
        <time>2011-05-08T08:22:23Z</time>
      </trkpt>
      <trkpt lat="49.00345" lon="0.99081">
        <ele>140.49</ele>
        <time>2011-05-08T08:22:36Z</time>
      </trkpt>
      <trkpt lat="49.00349" lon="0.99144">
        <ele>140.49</ele>
        <time>2011-05-08T08:22:46Z</time>
      </trkpt>
      <trkpt lat="49.00349" lon="0.99191">
        <ele>140.01</ele>
        <time>2011-05-08T08:22:53Z</time>
      </trkpt>
      <trkpt lat="49.00347" lon="0.99213">
        <ele>138.57</ele>
        <time>2011-05-08T08:22:56Z</time>
      </trkpt>
      <trkpt lat="49.0034" lon="0.99275">
        <ele>141.93</ele>
        <time>2011-05-08T08:23:05Z</time>
      </trkpt>
      <trkpt lat="49.00339" lon="0.99282">
        <ele>139.05</ele>
        <time>2011-05-08T08:23:06Z</time>
      </trkpt>
      <trkpt lat="49.00338" lon="0.99295">
        <ele>140.97</ele>
        <time>2011-05-08T08:23:08Z</time>
      </trkpt>
      <trkpt lat="49.00332" lon="0.9934">
        <ele>144.82</ele>
        <time>2011-05-08T08:23:16Z</time>
      </trkpt>
      <trkpt lat="49.00331" lon="0.99345">
        <ele>140.49</ele>
        <time>2011-05-08T08:23:17Z</time>
      </trkpt>
      <trkpt lat="49.00331" lon="0.9935">
        <ele>140.97</ele>
        <time>2011-05-08T08:23:18Z</time>
      </trkpt>
      <trkpt lat="49.00329" lon="0.99387">
        <ele>146.26</ele>
        <time>2011-05-08T08:23:25Z</time>
      </trkpt>
      <trkpt lat="49.00328" lon="0.99392">
        <ele>141.93</ele>
        <time>2011-05-08T08:23:26Z</time>
      </trkpt>
      <trkpt lat="49.00329" lon="0.99415">
        <ele>145.78</ele>
        <time>2011-05-08T08:23:30Z</time>
      </trkpt>
      <trkpt lat="49.0033" lon="0.99438">
        <ele>142.41</ele>
        <time>2011-05-08T08:23:34Z</time>
      </trkpt>
      <trkpt lat="49.00332" lon="0.99473">
        <ele>146.74</ele>
        <time>2011-05-08T08:23:40Z</time>
      </trkpt>
      <trkpt lat="49.00333" lon="0.99479">
        <ele>142.41</ele>
        <time>2011-05-08T08:23:41Z</time>
      </trkpt>
      <trkpt lat="49.00334" lon="0.9949">
        <ele>145.3</ele>
        <time>2011-05-08T08:23:43Z</time>
      </trkpt>
      <trkpt lat="49.00335" lon="0.99561">
        <ele>143.85</ele>
        <time>2011-05-08T08:23:55Z</time>
      </trkpt>
      <trkpt lat="49.00334" lon="0.99603">
        <ele>143.85</ele>
        <time>2011-05-08T08:24:01Z</time>
      </trkpt>
      <trkpt lat="49.00325" lon="0.99626">
        <ele>142.89</ele>
        <time>2011-05-08T08:24:05Z</time>
      </trkpt>
      <trkpt lat="49.00293" lon="0.9964">
        <ele>143.37</ele>
        <time>2011-05-08T08:24:12Z</time>
      </trkpt>
      <trkpt lat="49.0026" lon="0.9964">
        <ele>140.49</ele>
        <time>2011-05-08T08:24:19Z</time>
      </trkpt>
      <trkpt lat="49.00255" lon="0.99638">
        <ele>141.45</ele>
        <time>2011-05-08T08:24:20Z</time>
      </trkpt>
      <trkpt lat="49.00228" lon="0.99617">
        <ele>140.97</ele>
        <time>2011-05-08T08:24:26Z</time>
      </trkpt>
      <trkpt lat="49.00196" lon="0.99591">
        <ele>136.16</ele>
        <time>2011-05-08T08:24:32Z</time>
      </trkpt>
      <trkpt lat="49.0019" lon="0.99586">
        <ele>139.05</ele>
        <time>2011-05-08T08:24:33Z</time>
      </trkpt>
      <trkpt lat="49.00178" lon="0.99576">
        <ele>135.68</ele>
        <time>2011-05-08T08:24:35Z</time>
      </trkpt>
      <trkpt lat="49.00158" lon="0.99561">
        <ele>139.53</ele>
        <time>2011-05-08T08:24:38Z</time>
      </trkpt>
      <trkpt lat="49.00151" lon="0.99557">
        <ele>136.16</ele>
        <time>2011-05-08T08:24:39Z</time>
      </trkpt>
      <trkpt lat="49.0009" lon="0.99521">
        <ele>139.53</ele>
        <time>2011-05-08T08:24:49Z</time>
      </trkpt>
      <trkpt lat="49.00084" lon="0.99517">
        <ele>139.53</ele>
        <time>2011-05-08T08:24:50Z</time>
      </trkpt>
      <trkpt lat="49.00047" lon="0.99495">
        <ele>140.49</ele>
        <time>2011-05-08T08:24:58Z</time>
      </trkpt>
      <trkpt lat="49.00038" lon="0.99493">
        <ele>140.97</ele>
        <time>2011-05-08T08:25:00Z</time>
      </trkpt>
      <trkpt lat="49.0003" lon="0.99495">
        <ele>141.93</ele>
        <time>2011-05-08T08:25:02Z</time>
      </trkpt>
      <trkpt lat="49.00009" lon="0.99504">
        <ele>139.05</ele>
        <time>2011-05-08T08:25:07Z</time>
      </trkpt>
      <trkpt lat="49" lon="0.99508">
        <ele>142.41</ele>
        <time>2011-05-08T08:25:09Z</time>
      </trkpt>
      <trkpt lat="48.99973" lon="0.99522">
        <ele>140.97</ele>
        <time>2011-05-08T08:25:15Z</time>
      </trkpt>
      <trkpt lat="48.99937" lon="0.99537">
        <ele>142.89</ele>
        <time>2011-05-08T08:25:23Z</time>
      </trkpt>
      <trkpt lat="48.99927" lon="0.99542">
        <ele>141.93</ele>
        <time>2011-05-08T08:25:25Z</time>
      </trkpt>
      <trkpt lat="48.99899" lon="0.99552">
        <ele>140.49</ele>
        <time>2011-05-08T08:25:30Z</time>
      </trkpt>
      <trkpt lat="48.99812" lon="0.9959">
        <ele>145.78</ele>
        <time>2011-05-08T08:25:48Z</time>
      </trkpt>
      <trkpt lat="48.99804" lon="0.99592">
        <ele>140.97</ele>
        <time>2011-05-08T08:25:50Z</time>
      </trkpt>
      <trkpt lat="48.99745" lon="0.99618">
        <ele>144.34</ele>
        <time>2011-05-08T08:26:03Z</time>
      </trkpt>
      <trkpt lat="48.99667" lon="0.9965">
        <ele>140.97</ele>
        <time>2011-05-08T08:26:18Z</time>
      </trkpt>
      <trkpt lat="48.99644" lon="0.99659">
        <ele>140.97</ele>
        <time>2011-05-08T08:26:22Z</time>
      </trkpt>
      <trkpt lat="48.9961" lon="0.99663">
        <ele>140.49</ele>
        <time>2011-05-08T08:26:28Z</time>
      </trkpt>
      <trkpt lat="48.99584" lon="0.99688">
        <ele>141.45</ele>
        <time>2011-05-08T08:26:33Z</time>
      </trkpt>
      <trkpt lat="48.99573" lon="0.99709">
        <ele>141.45</ele>
        <time>2011-05-08T08:26:36Z</time>
      </trkpt>
      <trkpt lat="48.99553" lon="0.9981">
        <ele>145.3</ele>
        <time>2011-05-08T08:26:50Z</time>
      </trkpt>
      <trkpt lat="48.99552" lon="0.99817">
        <ele>141.45</ele>
        <time>2011-05-08T08:26:51Z</time>
      </trkpt>
      <trkpt lat="48.99546" lon="0.99845">
        <ele>144.82</ele>
        <time>2011-05-08T08:26:55Z</time>
      </trkpt>
      <trkpt lat="48.99519" lon="0.99968">
        <ele>144.34</ele>
        <time>2011-05-08T08:27:14Z</time>
      </trkpt>
      <trkpt lat="48.99491" lon="1.00082">
        <ele>146.26</ele>
        <time>2011-05-08T08:27:30Z</time>
      </trkpt>
      <trkpt lat="48.99478" lon="1.00149">
        <ele>146.74</ele>
        <time>2011-05-08T08:27:39Z</time>
      </trkpt>
      <trkpt lat="48.99474" lon="1.00168">
        <ele>148.18</ele>
        <time>2011-05-08T08:27:42Z</time>
      </trkpt>
      <trkpt lat="48.99467" lon="1.00202">
        <ele>147.22</ele>
        <time>2011-05-08T08:27:47Z</time>
      </trkpt>
      <trkpt lat="48.99459" lon="1.00241">
        <ele>148.18</ele>
        <time>2011-05-08T08:27:53Z</time>
      </trkpt>
      <trkpt lat="48.99449" lon="1.00284">
        <ele>147.7</ele>
        <time>2011-05-08T08:27:59Z</time>
      </trkpt>
      <trkpt lat="48.99431" lon="1.00369">
        <ele>147.22</ele>
        <time>2011-05-08T08:28:09Z</time>
      </trkpt>
      <trkpt lat="48.99412" lon="1.0046">
        <ele>143.37</ele>
        <time>2011-05-08T08:28:19Z</time>
      </trkpt>
      <trkpt lat="48.99409" lon="1.00471">
        <ele>143.85</ele>
        <time>2011-05-08T08:28:20Z</time>
      </trkpt>
      <trkpt lat="48.99402" lon="1.00504">
        <ele>141.93</ele>
        <time>2011-05-08T08:28:23Z</time>
      </trkpt>
      <trkpt lat="48.99388" lon="1.00568">
        <ele>139.53</ele>
        <time>2011-05-08T08:28:28Z</time>
      </trkpt>
      <trkpt lat="48.99382" lon="1.00595">
        <ele>137.61</ele>
        <time>2011-05-08T08:28:30Z</time>
      </trkpt>
      <trkpt lat="48.99373" lon="1.00637">
        <ele>137.13</ele>
        <time>2011-05-08T08:28:33Z</time>
      </trkpt>
      <trkpt lat="48.99366" lon="1.00664">
        <ele>134.24</ele>
        <time>2011-05-08T08:28:35Z</time>
      </trkpt>
      <trkpt lat="48.99349" lon="1.00747">
        <ele>131.36</ele>
        <time>2011-05-08T08:28:41Z</time>
      </trkpt>
      <trkpt lat="48.99346" lon="1.00761">
        <ele>130.88</ele>
        <time>2011-05-08T08:28:42Z</time>
      </trkpt>
      <trkpt lat="48.99329" lon="1.00804">
        <ele>128.95</ele>
        <time>2011-05-08T08:28:46Z</time>
      </trkpt>
      <trkpt lat="48.99297" lon="1.00844">
        <ele>127.99</ele>
        <time>2011-05-08T08:28:51Z</time>
      </trkpt>
      <trkpt lat="48.9929" lon="1.00853">
        <ele>128.95</ele>
        <time>2011-05-08T08:28:52Z</time>
      </trkpt>
      <trkpt lat="48.99256" lon="1.00901">
        <ele>126.07</ele>
        <time>2011-05-08T08:28:57Z</time>
      </trkpt>
      <trkpt lat="48.99237" lon="1.00929">
        <ele>126.55</ele>
        <time>2011-05-08T08:29:00Z</time>
      </trkpt>
      <trkpt lat="48.9921" lon="1.00954">
        <ele>125.59</ele>
        <time>2011-05-08T08:29:04Z</time>
      </trkpt>
      <trkpt lat="48.99178" lon="1.00973">
        <ele>121.26</ele>
        <time>2011-05-08T08:29:08Z</time>
      </trkpt>
      <trkpt lat="48.99154" lon="1.00993">
        <ele>120.78</ele>
        <time>2011-05-08T08:29:11Z</time>
      </trkpt>
      <trkpt lat="48.99139" lon="1.01011">
        <ele>117.9</ele>
        <time>2011-05-08T08:29:13Z</time>
      </trkpt>
      <trkpt lat="48.99125" lon="1.01031">
        <ele>116.46</ele>
        <time>2011-05-08T08:29:15Z</time>
      </trkpt>
      <trkpt lat="48.99112" lon="1.01058">
        <ele>115.98</ele>
        <time>2011-05-08T08:29:17Z</time>
      </trkpt>
      <trkpt lat="48.99097" lon="1.01086">
        <ele>111.17</ele>
        <time>2011-05-08T08:29:19Z</time>
      </trkpt>
      <trkpt lat="48.99063" lon="1.01118">
        <ele>104.92</ele>
        <time>2011-05-08T08:29:22Z</time>
      </trkpt>
      <trkpt lat="48.9905" lon="1.01125">
        <ele>104.44</ele>
        <time>2011-05-08T08:29:23Z</time>
      </trkpt>
      <trkpt lat="48.9901" lon="1.01134">
        <ele>101.08</ele>
        <time>2011-05-08T08:29:26Z</time>
      </trkpt>
      <trkpt lat="48.98984" lon="1.01141">
        <ele>100.11</ele>
        <time>2011-05-08T08:29:28Z</time>
      </trkpt>
      <trkpt lat="48.98948" lon="1.01167">
        <ele>100.11</ele>
        <time>2011-05-08T08:29:32Z</time>
      </trkpt>
      <trkpt lat="48.98933" lon="1.01187">
        <ele>104.44</ele>
        <time>2011-05-08T08:29:34Z</time>
      </trkpt>
      <trkpt lat="48.98924" lon="1.01197">
        <ele>102.52</ele>
        <time>2011-05-08T08:29:35Z</time>
      </trkpt>
      <trkpt lat="48.98892" lon="1.01238">
        <ele>105.88</ele>
        <time>2011-05-08T08:29:40Z</time>
      </trkpt>
      <trkpt lat="48.98886" lon="1.01245">
        <ele>104.92</ele>
        <time>2011-05-08T08:29:41Z</time>
      </trkpt>
      <trkpt lat="48.98866" lon="1.01269">
        <ele>108.77</ele>
        <time>2011-05-08T08:29:45Z</time>
      </trkpt>
      <trkpt lat="48.98842" lon="1.01299">
        <ele>109.25</ele>
        <time>2011-05-08T08:29:51Z</time>
      </trkpt>
      <trkpt lat="48.98816" lon="1.01329">
        <ele>107.32</ele>
        <time>2011-05-08T08:29:58Z</time>
      </trkpt>
      <trkpt lat="48.98786" lon="1.01363">
        <ele>106.84</ele>
        <time>2011-05-08T08:30:05Z</time>
      </trkpt>
      <trkpt lat="48.98723" lon="1.01438">
        <ele>104.92</ele>
        <time>2011-05-08T08:30:18Z</time>
      </trkpt>
      <trkpt lat="48.98685" lon="1.01484">
        <ele>101.56</ele>
        <time>2011-05-08T08:30:25Z</time>
      </trkpt>
      <trkpt lat="48.9868" lon="1.0149">
        <ele>101.56</ele>
        <time>2011-05-08T08:30:26Z</time>
      </trkpt>
      <trkpt lat="48.98623" lon="1.01558">
        <ele>100.6</ele>
        <time>2011-05-08T08:30:36Z</time>
      </trkpt>
      <trkpt lat="48.98606" lon="1.01578">
        <ele>97.23</ele>
        <time>2011-05-08T08:30:39Z</time>
      </trkpt>
      <trkpt lat="48.98594" lon="1.01591">
        <ele>101.56</ele>
        <time>2011-05-08T08:30:41Z</time>
      </trkpt>
      <trkpt lat="48.98589" lon="1.01598">
        <ele>97.71</ele>
        <time>2011-05-08T08:30:42Z</time>
      </trkpt>
      <trkpt lat="48.98537" lon="1.01659">
        <ele>93.39</ele>
        <time>2011-05-08T08:30:51Z</time>
      </trkpt>
      <trkpt lat="48.98484" lon="1.01719">
        <ele>93.39</ele>
        <time>2011-05-08T08:31:04Z</time>
      </trkpt>
      <trkpt lat="48.9848" lon="1.01722">
        <ele>90.02</ele>
        <time>2011-05-08T08:31:07Z</time>
      </trkpt>
      <trkpt lat="48.9848" lon="1.01722">
        <ele>93.87</ele>
        <time>2011-05-08T08:31:09Z</time>
      </trkpt>
      <trkpt lat="48.9848" lon="1.01722">
        <ele>93.39</ele>
        <time>2011-05-08T08:31:10Z</time>
      </trkpt>
      <trkpt lat="48.98471" lon="1.01732">
        <ele>90.02</ele>
        <time>2011-05-08T08:31:24Z</time>
      </trkpt>
      <trkpt lat="48.98466" lon="1.0174">
        <ele>93.39</ele>
        <time>2011-05-08T08:31:26Z</time>
      </trkpt>
      <trkpt lat="48.98446" lon="1.01766">
        <ele>88.1</ele>
        <time>2011-05-08T08:31:32Z</time>
      </trkpt>
      <trkpt lat="48.98442" lon="1.01771">
        <ele>91.94</ele>
        <time>2011-05-08T08:31:33Z</time>
      </trkpt>
      <trkpt lat="48.98438" lon="1.01776">
        <ele>88.58</ele>
        <time>2011-05-08T08:31:34Z</time>
      </trkpt>
      <trkpt lat="48.98432" lon="1.01784">
        <ele>90.98</ele>
        <time>2011-05-08T08:31:36Z</time>
      </trkpt>
      <trkpt lat="48.98434" lon="1.01788">
        <ele>88.1</ele>
        <time>2011-05-08T08:31:40Z</time>
      </trkpt>
      <trkpt lat="48.98439" lon="1.01783">
        <ele>91.94</ele>
        <time>2011-05-08T08:31:42Z</time>
      </trkpt>
      <trkpt lat="48.98461" lon="1.01752">
        <ele>90.02</ele>
        <time>2011-05-08T08:31:59Z</time>
      </trkpt>
      <trkpt lat="48.98456" lon="1.01753">
        <ele>89.54</ele>
        <time>2011-05-08T08:32:02Z</time>
      </trkpt>
      <trkpt lat="48.9841" lon="1.01809">
        <ele>89.54</ele>
        <time>2011-05-08T08:32:14Z</time>
      </trkpt>
      <trkpt lat="48.98382" lon="1.01843">
        <ele>89.06</ele>
        <time>2011-05-08T08:32:21Z</time>
      </trkpt>
      <trkpt lat="48.98372" lon="1.01875">
        <ele>87.62</ele>
        <time>2011-05-08T08:32:25Z</time>
      </trkpt>
      <trkpt lat="48.98381" lon="1.01942">
        <ele>92.9</ele>
        <time>2011-05-08T08:32:32Z</time>
      </trkpt>
      <trkpt lat="48.98382" lon="1.0195">
        <ele>88.58</ele>
        <time>2011-05-08T08:32:33Z</time>
      </trkpt>
      <trkpt lat="48.98383" lon="1.01958">
        <ele>89.54</ele>
        <time>2011-05-08T08:32:34Z</time>
      </trkpt>
      <trkpt lat="48.98383" lon="1.0199">
        <ele>88.58</ele>
        <time>2011-05-08T08:32:38Z</time>
      </trkpt>
      <trkpt lat="48.98374" lon="1.02125">
        <ele>88.58</ele>
        <time>2011-05-08T08:32:54Z</time>
      </trkpt>
      <trkpt lat="48.98366" lon="1.02285">
        <ele>88.1</ele>
        <time>2011-05-08T08:33:12Z</time>
      </trkpt>
      <trkpt lat="48.9839" lon="1.024">
        <ele>89.06</ele>
        <time>2011-05-08T08:33:25Z</time>
      </trkpt>
      <trkpt lat="48.98397" lon="1.02426">
        <ele>87.14</ele>
        <time>2011-05-08T08:33:28Z</time>
      </trkpt>
      <trkpt lat="48.98417" lon="1.02497">
        <ele>89.06</ele>
        <time>2011-05-08T08:33:36Z</time>
      </trkpt>
      <trkpt lat="48.98436" lon="1.02569">
        <ele>87.14</ele>
        <time>2011-05-08T08:33:44Z</time>
      </trkpt>
      <trkpt lat="48.98439" lon="1.02578">
        <ele>83.29</ele>
        <time>2011-05-08T08:33:45Z</time>
      </trkpt>
      <trkpt lat="48.98442" lon="1.02588">
        <ele>85.21</ele>
        <time>2011-05-08T08:33:46Z</time>
      </trkpt>
      <trkpt lat="48.98447" lon="1.02607">
        <ele>87.14</ele>
        <time>2011-05-08T08:33:48Z</time>
      </trkpt>
      <trkpt lat="48.98508" lon="1.02762">
        <ele>83.77</ele>
        <time>2011-05-08T08:34:05Z</time>
      </trkpt>
      <trkpt lat="48.9852" lon="1.02788">
        <ele>87.14</ele>
        <time>2011-05-08T08:34:08Z</time>
      </trkpt>
      <trkpt lat="48.98566" lon="1.02897">
        <ele>84.25</ele>
        <time>2011-05-08T08:34:20Z</time>
      </trkpt>
      <trkpt lat="48.98577" lon="1.02925">
        <ele>88.1</ele>
        <time>2011-05-08T08:34:23Z</time>
      </trkpt>
      <trkpt lat="48.98585" lon="1.02942">
        <ele>84.73</ele>
        <time>2011-05-08T08:34:25Z</time>
      </trkpt>
      <trkpt lat="48.9859" lon="1.02951">
        <ele>84.73</ele>
        <time>2011-05-08T08:34:26Z</time>
      </trkpt>
      <trkpt lat="48.9863" lon="1.03026">
        <ele>88.58</ele>
        <time>2011-05-08T08:34:35Z</time>
      </trkpt>
      <trkpt lat="48.98658" lon="1.03075">
        <ele>84.25</ele>
        <time>2011-05-08T08:34:41Z</time>
      </trkpt>
      <trkpt lat="48.98685" lon="1.03144">
        <ele>85.69</ele>
        <time>2011-05-08T08:34:49Z</time>
      </trkpt>
      <trkpt lat="48.98688" lon="1.03164">
        <ele>84.73</ele>
        <time>2011-05-08T08:34:51Z</time>
      </trkpt>
      <trkpt lat="48.98704" lon="1.03207">
        <ele>84.73</ele>
        <time>2011-05-08T08:34:56Z</time>
      </trkpt>
      <trkpt lat="48.98743" lon="1.03251">
        <ele>84.73</ele>
        <time>2011-05-08T08:35:03Z</time>
      </trkpt>
      <trkpt lat="48.98775" lon="1.03267">
        <ele>85.69</ele>
        <time>2011-05-08T08:35:08Z</time>
      </trkpt>
      <trkpt lat="48.98818" lon="1.03319">
        <ele>87.62</ele>
        <time>2011-05-08T08:35:16Z</time>
      </trkpt>
      <trkpt lat="48.98835" lon="1.0334">
        <ele>83.29</ele>
        <time>2011-05-08T08:35:19Z</time>
      </trkpt>
      <trkpt lat="48.9884" lon="1.03347">
        <ele>84.73</ele>
        <time>2011-05-08T08:35:20Z</time>
      </trkpt>
      <trkpt lat="48.98851" lon="1.03362">
        <ele>81.85</ele>
        <time>2011-05-08T08:35:22Z</time>
      </trkpt>
      <trkpt lat="48.98857" lon="1.0337">
        <ele>86.66</ele>
        <time>2011-05-08T08:35:23Z</time>
      </trkpt>
      <trkpt lat="48.98862" lon="1.03377">
        <ele>85.21</ele>
        <time>2011-05-08T08:35:24Z</time>
      </trkpt>
      <trkpt lat="48.98906" lon="1.03446">
        <ele>85.69</ele>
        <time>2011-05-08T08:35:33Z</time>
      </trkpt>
      <trkpt lat="48.98931" lon="1.03497">
        <ele>84.25</ele>
        <time>2011-05-08T08:35:39Z</time>
      </trkpt>
      <trkpt lat="48.9894" lon="1.03526">
        <ele>82.81</ele>
        <time>2011-05-08T08:35:42Z</time>
      </trkpt>
      <trkpt lat="48.98947" lon="1.03545">
        <ele>86.66</ele>
        <time>2011-05-08T08:35:44Z</time>
      </trkpt>
      <trkpt lat="48.98951" lon="1.03554">
        <ele>82.81</ele>
        <time>2011-05-08T08:35:45Z</time>
      </trkpt>
      <trkpt lat="48.98955" lon="1.03563">
        <ele>83.29</ele>
        <time>2011-05-08T08:35:46Z</time>
      </trkpt>
      <trkpt lat="48.98963" lon="1.03579">
        <ele>85.21</ele>
        <time>2011-05-08T08:35:48Z</time>
      </trkpt>
      <trkpt lat="48.98968" lon="1.03586">
        <ele>80.89</ele>
        <time>2011-05-08T08:35:49Z</time>
      </trkpt>
      <trkpt lat="48.98973" lon="1.03594">
        <ele>85.21</ele>
        <time>2011-05-08T08:35:50Z</time>
      </trkpt>
      <trkpt lat="48.98978" lon="1.03601">
        <ele>81.85</ele>
        <time>2011-05-08T08:35:51Z</time>
      </trkpt>
      <trkpt lat="48.99038" lon="1.03702">
        <ele>83.29</ele>
        <time>2011-05-08T08:36:04Z</time>
      </trkpt>
      <trkpt lat="48.99043" lon="1.03709">
        <ele>87.62</ele>
        <time>2011-05-08T08:36:05Z</time>
      </trkpt>
      <trkpt lat="48.99047" lon="1.03716">
        <ele>84.25</ele>
        <time>2011-05-08T08:36:06Z</time>
      </trkpt>
      <trkpt lat="48.99061" lon="1.03736">
        <ele>81.85</ele>
        <time>2011-05-08T08:36:09Z</time>
      </trkpt>
      <trkpt lat="48.99069" lon="1.03748">
        <ele>85.21</ele>
        <time>2011-05-08T08:36:11Z</time>
      </trkpt>
      <trkpt lat="48.99073" lon="1.03754">
        <ele>81.37</ele>
        <time>2011-05-08T08:36:12Z</time>
      </trkpt>
      <trkpt lat="48.99087" lon="1.03778">
        <ele>81.85</ele>
        <time>2011-05-08T08:36:16Z</time>
      </trkpt>
      <trkpt lat="48.99128" lon="1.03831">
        <ele>82.81</ele>
        <time>2011-05-08T08:36:26Z</time>
      </trkpt>
      <trkpt lat="48.99152" lon="1.0387">
        <ele>79.45</ele>
        <time>2011-05-08T08:36:33Z</time>
      </trkpt>
      <trkpt lat="48.99158" lon="1.0388">
        <ele>84.25</ele>
        <time>2011-05-08T08:36:35Z</time>
      </trkpt>
      <trkpt lat="48.99171" lon="1.03904">
        <ele>82.81</ele>
        <time>2011-05-08T08:36:41Z</time>
      </trkpt>
      <trkpt lat="48.99204" lon="1.03951">
        <ele>83.29</ele>
        <time>2011-05-08T08:36:53Z</time>
      </trkpt>
      <trkpt lat="48.99202" lon="1.03963">
        <ele>82.81</ele>
        <time>2011-05-08T08:37:04Z</time>
      </trkpt>
      <trkpt lat="48.99201" lon="1.03963">
        <ele>82.81</ele>
        <time>2011-05-08T08:37:10Z</time>
      </trkpt>
      <trkpt lat="48.99201" lon="1.03964">
        <ele>80.41</ele>
        <time>2011-05-08T08:37:12Z</time>
      </trkpt>
      <trkpt lat="48.99201" lon="1.03964">
        <ele>83.77</ele>
        <time>2011-05-08T08:37:13Z</time>
      </trkpt>
      <trkpt lat="48.99201" lon="1.03964">
        <ele>83.29</ele>
        <time>2011-05-08T08:37:14Z</time>
      </trkpt>
      <trkpt lat="48.99203" lon="1.03965">
        <ele>82.81</ele>
        <time>2011-05-08T08:37:27Z</time>
      </trkpt>
      <trkpt lat="48.99203" lon="1.03965">
        <ele>83.29</ele>
        <time>2011-05-08T08:37:31Z</time>
      </trkpt>
      <trkpt lat="48.99203" lon="1.03969">
        <ele>81.85</ele>
        <time>2011-05-08T08:37:44Z</time>
      </trkpt>
      <trkpt lat="48.99193" lon="1.03975">
        <ele>87.14</ele>
        <time>2011-05-08T08:37:59Z</time>
      </trkpt>
      <trkpt lat="48.99193" lon="1.03974">
        <ele>82.33</ele>
        <time>2011-05-08T08:38:00Z</time>
      </trkpt>
      <trkpt lat="48.99195" lon="1.03968">
        <ele>82.33</ele>
        <time>2011-05-08T08:38:06Z</time>
      </trkpt>
      <trkpt lat="48.99198" lon="1.03965">
        <ele>84.73</ele>
        <time>2011-05-08T08:38:09Z</time>
      </trkpt>
      <trkpt lat="48.99199" lon="1.03964">
        <ele>84.25</ele>
        <time>2011-05-08T08:38:10Z</time>
      </trkpt>
      <trkpt lat="48.99203" lon="1.03963">
        <ele>82.33</ele>
        <time>2011-05-08T08:38:17Z</time>
      </trkpt>
      <trkpt lat="48.99203" lon="1.03962">
        <ele>78.97</ele>
        <time>2011-05-08T08:38:20Z</time>
      </trkpt>
      <trkpt lat="48.99203" lon="1.03961">
        <ele>81.85</ele>
        <time>2011-05-08T08:38:21Z</time>
      </trkpt>
      <trkpt lat="48.99204" lon="1.0396">
        <ele>85.21</ele>
        <time>2011-05-08T08:38:24Z</time>
      </trkpt>
      <trkpt lat="48.99205" lon="1.0396">
        <ele>80.89</ele>
        <time>2011-05-08T08:38:25Z</time>
      </trkpt>
      <trkpt lat="48.99205" lon="1.03958">
        <ele>84.25</ele>
        <time>2011-05-08T08:38:30Z</time>
      </trkpt>
      <trkpt lat="48.99208" lon="1.03958">
        <ele>80.89</ele>
        <time>2011-05-08T08:38:44Z</time>
      </trkpt>
      <trkpt lat="48.99208" lon="1.03959">
        <ele>85.21</ele>
        <time>2011-05-08T08:38:48Z</time>
      </trkpt>
      <trkpt lat="48.99208" lon="1.03958">
        <ele>81.37</ele>
        <time>2011-05-08T08:38:49Z</time>
      </trkpt>
      <trkpt lat="48.99207" lon="1.03959">
        <ele>79.93</ele>
        <time>2011-05-08T08:38:56Z</time>
      </trkpt>
      <trkpt lat="48.99207" lon="1.03959">
        <ele>83.29</ele>
        <time>2011-05-08T08:38:58Z</time>
      </trkpt>
      <trkpt lat="48.99207" lon="1.0396">
        <ele>83.77</ele>
        <time>2011-05-08T08:39:00Z</time>
      </trkpt>
      <trkpt lat="48.99207" lon="1.0396">
        <ele>79.93</ele>
        <time>2011-05-08T08:39:01Z</time>
      </trkpt>
      <trkpt lat="48.99206" lon="1.0396">
        <ele>82.33</ele>
        <time>2011-05-08T08:39:02Z</time>
      </trkpt>
      <trkpt lat="48.99206" lon="1.03959">
        <ele>81.37</ele>
        <time>2011-05-08T08:39:10Z</time>
      </trkpt>
      <trkpt lat="48.99205" lon="1.03959">
        <ele>81.37</ele>
        <time>2011-05-08T08:39:30Z</time>
      </trkpt>
      <trkpt lat="48.99205" lon="1.03959">
        <ele>78</ele>
        <time>2011-05-08T08:39:49Z</time>
      </trkpt>
      <trkpt lat="48.99205" lon="1.03959">
        <ele>81.37</ele>
        <time>2011-05-08T08:39:50Z</time>
      </trkpt>
      <trkpt lat="48.99204" lon="1.03959">
        <ele>81.37</ele>
        <time>2011-05-08T08:40:05Z</time>
      </trkpt>
      <trkpt lat="48.99203" lon="1.03959">
        <ele>81.85</ele>
        <time>2011-05-08T08:40:33Z</time>
      </trkpt>
      <trkpt lat="48.99203" lon="1.03959">
        <ele>80.89</ele>
        <time>2011-05-08T08:40:44Z</time>
      </trkpt>
      <trkpt lat="48.99203" lon="1.03959">
        <ele>85.21</ele>
        <time>2011-05-08T08:40:45Z</time>
      </trkpt>
      <trkpt lat="48.99203" lon="1.03959">
        <ele>82.33</ele>
        <time>2011-05-08T08:40:46Z</time>
      </trkpt>
      <trkpt lat="48.99203" lon="1.03959">
        <ele>81.37</ele>
        <time>2011-05-08T08:41:00Z</time>
      </trkpt>
      <trkpt lat="48.99203" lon="1.03957">
        <ele>85.21</ele>
        <time>2011-05-08T08:41:06Z</time>
      </trkpt>
      <trkpt lat="48.99202" lon="1.03956">
        <ele>79.93</ele>
        <time>2011-05-08T08:41:08Z</time>
      </trkpt>
      <trkpt lat="48.99203" lon="1.03956">
        <ele>84.25</ele>
        <time>2011-05-08T08:41:09Z</time>
      </trkpt>
      <trkpt lat="48.99203" lon="1.03956">
        <ele>79.93</ele>
        <time>2011-05-08T08:41:10Z</time>
      </trkpt>
      <trkpt lat="48.99204" lon="1.0396">
        <ele>83.29</ele>
        <time>2011-05-08T08:41:13Z</time>
      </trkpt>
      <trkpt lat="48.99203" lon="1.03961">
        <ele>78.97</ele>
        <time>2011-05-08T08:41:16Z</time>
      </trkpt>
      <trkpt lat="48.99203" lon="1.03961">
        <ele>83.29</ele>
        <time>2011-05-08T08:41:18Z</time>
      </trkpt>
      <trkpt lat="48.99203" lon="1.03961">
        <ele>82.81</ele>
        <time>2011-05-08T08:41:19Z</time>
      </trkpt>
      <trkpt lat="48.99202" lon="1.03959">
        <ele>86.18</ele>
        <time>2011-05-08T08:41:37Z</time>
      </trkpt>
      <trkpt lat="48.99202" lon="1.03959">
        <ele>81.85</ele>
        <time>2011-05-08T08:41:39Z</time>
      </trkpt>
      <trkpt lat="48.99202" lon="1.03959">
        <ele>82.81</ele>
        <time>2011-05-08T08:41:46Z</time>
      </trkpt>
      <trkpt lat="48.99201" lon="1.03959">
        <ele>81.85</ele>
        <time>2011-05-08T08:42:10Z</time>
      </trkpt>
      <trkpt lat="48.992" lon="1.03956">
        <ele>81.37</ele>
        <time>2011-05-08T08:42:18Z</time>
      </trkpt>
      <trkpt lat="48.992" lon="1.03956">
        <ele>83.77</ele>
        <time>2011-05-08T08:42:20Z</time>
      </trkpt>
      <trkpt lat="48.99201" lon="1.03956">
        <ele>79.93</ele>
        <time>2011-05-08T08:42:23Z</time>
      </trkpt>
      <trkpt lat="48.99201" lon="1.03956">
        <ele>86.18</ele>
        <time>2011-05-08T08:42:24Z</time>
      </trkpt>
      <trkpt lat="48.99201" lon="1.03956">
        <ele>82.81</ele>
        <time>2011-05-08T08:42:25Z</time>
      </trkpt>
      <trkpt lat="48.99199" lon="1.03956">
        <ele>78</ele>
        <time>2011-05-08T08:42:44Z</time>
      </trkpt>
      <trkpt lat="48.99199" lon="1.03956">
        <ele>81.85</ele>
        <time>2011-05-08T08:42:45Z</time>
      </trkpt>
      <trkpt lat="48.99199" lon="1.03954">
        <ele>80.89</ele>
        <time>2011-05-08T08:43:01Z</time>
      </trkpt>
      <trkpt lat="48.99199" lon="1.03954">
        <ele>84.25</ele>
        <time>2011-05-08T08:43:04Z</time>
      </trkpt>
      <trkpt lat="48.99199" lon="1.03954">
        <ele>80.89</ele>
        <time>2011-05-08T08:43:07Z</time>
      </trkpt>
      <trkpt lat="48.99199" lon="1.03954">
        <ele>84.73</ele>
        <time>2011-05-08T08:43:10Z</time>
      </trkpt>
      <trkpt lat="48.99199" lon="1.03954">
        <ele>81.85</ele>
        <time>2011-05-08T08:43:11Z</time>
      </trkpt>
      <trkpt lat="48.99202" lon="1.03952">
        <ele>81.85</ele>
        <time>2011-05-08T08:43:34Z</time>
      </trkpt>
      <trkpt lat="48.99229" lon="1.03985">
        <ele>82.33</ele>
        <time>2011-05-08T08:43:46Z</time>
      </trkpt>
      <trkpt lat="48.99244" lon="1.04006">
        <ele>81.37</ele>
        <time>2011-05-08T08:43:51Z</time>
      </trkpt>
      <trkpt lat="48.99255" lon="1.04019">
        <ele>80.41</ele>
        <time>2011-05-08T08:43:54Z</time>
      </trkpt>
      <trkpt lat="48.99268" lon="1.0403">
        <ele>83.29</ele>
        <time>2011-05-08T08:43:57Z</time>
      </trkpt>
      <trkpt lat="48.99283" lon="1.04047">
        <ele>84.73</ele>
        <time>2011-05-08T08:44:01Z</time>
      </trkpt>
      <trkpt lat="48.99302" lon="1.04066">
        <ele>80.89</ele>
        <time>2011-05-08T08:44:05Z</time>
      </trkpt>
      <trkpt lat="48.99325" lon="1.04089">
        <ele>80.89</ele>
        <time>2011-05-08T08:44:11Z</time>
      </trkpt>
      <trkpt lat="48.99343" lon="1.04098">
        <ele>81.85</ele>
        <time>2011-05-08T08:44:15Z</time>
      </trkpt>
      <trkpt lat="48.99376" lon="1.04107">
        <ele>80.89</ele>
        <time>2011-05-08T08:44:22Z</time>
      </trkpt>
      <trkpt lat="48.99406" lon="1.04116">
        <ele>83.29</ele>
        <time>2011-05-08T08:44:28Z</time>
      </trkpt>
      <trkpt lat="48.9947" lon="1.04136">
        <ele>78</ele>
        <time>2011-05-08T08:44:41Z</time>
      </trkpt>
      <trkpt lat="48.99474" lon="1.04137">
        <ele>84.73</ele>
        <time>2011-05-08T08:44:42Z</time>
      </trkpt>
      <trkpt lat="48.99479" lon="1.04139">
        <ele>80.41</ele>
        <time>2011-05-08T08:44:43Z</time>
      </trkpt>
      <trkpt lat="48.99484" lon="1.0414">
        <ele>83.29</ele>
        <time>2011-05-08T08:44:44Z</time>
      </trkpt>
      <trkpt lat="48.99511" lon="1.04148">
        <ele>86.66</ele>
        <time>2011-05-08T08:44:50Z</time>
      </trkpt>
      <trkpt lat="48.99542" lon="1.04157">
        <ele>82.81</ele>
        <time>2011-05-08T08:44:57Z</time>
      </trkpt>
      <trkpt lat="48.99551" lon="1.0416">
        <ele>88.1</ele>
        <time>2011-05-08T08:44:59Z</time>
      </trkpt>
      <trkpt lat="48.99555" lon="1.04161">
        <ele>85.21</ele>
        <time>2011-05-08T08:45:00Z</time>
      </trkpt>
      <trkpt lat="48.9956" lon="1.04162">
        <ele>88.1</ele>
        <time>2011-05-08T08:45:01Z</time>
      </trkpt>
      <trkpt lat="48.99564" lon="1.04163">
        <ele>89.54</ele>
        <time>2011-05-08T08:45:02Z</time>
      </trkpt>
      <trkpt lat="48.99594" lon="1.04178">
        <ele>91.46</ele>
        <time>2011-05-08T08:45:09Z</time>
      </trkpt>
      <trkpt lat="48.99598" lon="1.04182">
        <ele>85.69</ele>
        <time>2011-05-08T08:45:10Z</time>
      </trkpt>
      <trkpt lat="48.99602" lon="1.04186">
        <ele>85.69</ele>
        <time>2011-05-08T08:45:11Z</time>
      </trkpt>
      <trkpt lat="48.9961" lon="1.04196">
        <ele>87.14</ele>
        <time>2011-05-08T08:45:13Z</time>
      </trkpt>
      <trkpt lat="48.99638" lon="1.04252">
        <ele>87.62</ele>
        <time>2011-05-08T08:45:23Z</time>
      </trkpt>
      <trkpt lat="48.99659" lon="1.04308">
        <ele>90.98</ele>
        <time>2011-05-08T08:45:31Z</time>
      </trkpt>
      <trkpt lat="48.99662" lon="1.04315">
        <ele>87.62</ele>
        <time>2011-05-08T08:45:32Z</time>
      </trkpt>
      <trkpt lat="48.99696" lon="1.04406">
        <ele>85.69</ele>
        <time>2011-05-08T08:45:43Z</time>
      </trkpt>
      <trkpt lat="48.99721" lon="1.04469">
        <ele>85.21</ele>
        <time>2011-05-08T08:45:50Z</time>
      </trkpt>
      <trkpt lat="48.99765" lon="1.04585">
        <ele>86.66</ele>
        <time>2011-05-08T08:46:03Z</time>
      </trkpt>
      <trkpt lat="48.99808" lon="1.04701">
        <ele>90.5</ele>
        <time>2011-05-08T08:46:17Z</time>
      </trkpt>
      <trkpt lat="48.99811" lon="1.04709">
        <ele>86.66</ele>
        <time>2011-05-08T08:46:18Z</time>
      </trkpt>
      <trkpt lat="48.99818" lon="1.04725">
        <ele>90.02</ele>
        <time>2011-05-08T08:46:20Z</time>
      </trkpt>
      <trkpt lat="48.99821" lon="1.04733">
        <ele>85.21</ele>
        <time>2011-05-08T08:46:21Z</time>
      </trkpt>
      <trkpt lat="48.99824" lon="1.04741">
        <ele>89.54</ele>
        <time>2011-05-08T08:46:22Z</time>
      </trkpt>
      <trkpt lat="48.99838" lon="1.04781">
        <ele>90.02</ele>
        <time>2011-05-08T08:46:27Z</time>
      </trkpt>
      <trkpt lat="48.99851" lon="1.04812">
        <ele>87.14</ele>
        <time>2011-05-08T08:46:31Z</time>
      </trkpt>
      <trkpt lat="48.9987" lon="1.04865">
        <ele>90.02</ele>
        <time>2011-05-08T08:46:38Z</time>
      </trkpt>
      <trkpt lat="48.99876" lon="1.0488">
        <ele>89.54</ele>
        <time>2011-05-08T08:46:40Z</time>
      </trkpt>
      <trkpt lat="48.99881" lon="1.04895">
        <ele>89.06</ele>
        <time>2011-05-08T08:46:42Z</time>
      </trkpt>
      <trkpt lat="48.999" lon="1.04971">
        <ele>87.14</ele>
        <time>2011-05-08T08:46:50Z</time>
      </trkpt>
      <trkpt lat="48.99905" lon="1.04993">
        <ele>82.33</ele>
        <time>2011-05-08T08:46:52Z</time>
      </trkpt>
      <trkpt lat="48.99908" lon="1.05004">
        <ele>86.18</ele>
        <time>2011-05-08T08:46:53Z</time>
      </trkpt>
      <trkpt lat="48.99914" lon="1.05028">
        <ele>89.54</ele>
        <time>2011-05-08T08:46:55Z</time>
      </trkpt>
      <trkpt lat="48.99917" lon="1.05039">
        <ele>84.25</ele>
        <time>2011-05-08T08:46:56Z</time>
      </trkpt>
      <trkpt lat="48.99919" lon="1.05051">
        <ele>88.1</ele>
        <time>2011-05-08T08:46:57Z</time>
      </trkpt>
      <trkpt lat="48.99922" lon="1.05063">
        <ele>84.73</ele>
        <time>2011-05-08T08:46:58Z</time>
      </trkpt>
      <trkpt lat="48.99946" lon="1.05156">
        <ele>88.58</ele>
        <time>2011-05-08T08:47:06Z</time>
      </trkpt>
      <trkpt lat="48.99952" lon="1.05178">
        <ele>83.29</ele>
        <time>2011-05-08T08:47:08Z</time>
      </trkpt>
      <trkpt lat="48.99977" lon="1.05288">
        <ele>83.29</ele>
        <time>2011-05-08T08:47:18Z</time>
      </trkpt>
      <trkpt lat="48.9998" lon="1.0531">
        <ele>81.85</ele>
        <time>2011-05-08T08:47:20Z</time>
      </trkpt>
      <trkpt lat="48.99982" lon="1.05343">
        <ele>85.21</ele>
        <time>2011-05-08T08:47:23Z</time>
      </trkpt>
      <trkpt lat="48.99984" lon="1.05366">
        <ele>81.85</ele>
        <time>2011-05-08T08:47:25Z</time>
      </trkpt>
      <trkpt lat="48.99985" lon="1.05377">
        <ele>81.85</ele>
        <time>2011-05-08T08:47:26Z</time>
      </trkpt>
      <trkpt lat="48.99992" lon="1.05447">
        <ele>78.48</ele>
        <time>2011-05-08T08:47:32Z</time>
      </trkpt>
      <trkpt lat="48.99993" lon="1.05459">
        <ele>79.93</ele>
        <time>2011-05-08T08:47:33Z</time>
      </trkpt>
      <trkpt lat="48.99993" lon="1.05471">
        <ele>82.81</ele>
        <time>2011-05-08T08:47:34Z</time>
      </trkpt>
      <trkpt lat="48.99994" lon="1.05495">
        <ele>79.45</ele>
        <time>2011-05-08T08:47:36Z</time>
      </trkpt>
      <trkpt lat="48.99994" lon="1.05508">
        <ele>82.81</ele>
        <time>2011-05-08T08:47:37Z</time>
      </trkpt>
      <trkpt lat="48.9999" lon="1.05557">
        <ele>78.48</ele>
        <time>2011-05-08T08:47:41Z</time>
      </trkpt>
      <trkpt lat="48.9999" lon="1.05569">
        <ele>81.85</ele>
        <time>2011-05-08T08:47:42Z</time>
      </trkpt>
      <trkpt lat="48.99988" lon="1.05594">
        <ele>78.97</ele>
        <time>2011-05-08T08:47:44Z</time>
      </trkpt>
      <trkpt lat="48.99987" lon="1.05606">
        <ele>79.45</ele>
        <time>2011-05-08T08:47:45Z</time>
      </trkpt>
      <trkpt lat="48.99986" lon="1.05618">
        <ele>82.81</ele>
        <time>2011-05-08T08:47:46Z</time>
      </trkpt>
      <trkpt lat="48.99986" lon="1.0563">
        <ele>80.41</ele>
        <time>2011-05-08T08:47:47Z</time>
      </trkpt>
      <trkpt lat="48.99977" lon="1.05738">
        <ele>76.56</ele>
        <time>2011-05-08T08:47:56Z</time>
      </trkpt>
      <trkpt lat="48.99975" lon="1.0575">
        <ele>79.93</ele>
        <time>2011-05-08T08:47:57Z</time>
      </trkpt>
      <trkpt lat="48.99974" lon="1.05761">
        <ele>79.93</ele>
        <time>2011-05-08T08:47:58Z</time>
      </trkpt>
      <trkpt lat="48.99959" lon="1.05855">
        <ele>83.77</ele>
        <time>2011-05-08T08:48:07Z</time>
      </trkpt>
      <trkpt lat="48.99958" lon="1.05865">
        <ele>81.85</ele>
        <time>2011-05-08T08:48:08Z</time>
      </trkpt>
      <trkpt lat="48.99954" lon="1.05884">
        <ele>78</ele>
        <time>2011-05-08T08:48:10Z</time>
      </trkpt>
      <trkpt lat="48.99947" lon="1.05933">
        <ele>85.69</ele>
        <time>2011-05-08T08:48:15Z</time>
      </trkpt>
      <trkpt lat="48.99946" lon="1.05942">
        <ele>81.85</ele>
        <time>2011-05-08T08:48:16Z</time>
      </trkpt>
      <trkpt lat="48.99923" lon="1.06083">
        <ele>77.52</ele>
        <time>2011-05-08T08:48:31Z</time>
      </trkpt>
      <trkpt lat="48.99921" lon="1.06093">
        <ele>82.81</ele>
        <time>2011-05-08T08:48:32Z</time>
      </trkpt>
      <trkpt lat="48.99919" lon="1.06102">
        <ele>81.85</ele>
        <time>2011-05-08T08:48:33Z</time>
      </trkpt>
      <trkpt lat="48.99906" lon="1.06169">
        <ele>80.89</ele>
        <time>2011-05-08T08:48:40Z</time>
      </trkpt>
      <trkpt lat="48.99878" lon="1.06309">
        <ele>77.52</ele>
        <time>2011-05-08T08:48:55Z</time>
      </trkpt>
      <trkpt lat="48.99858" lon="1.06407">
        <ele>82.33</ele>
        <time>2011-05-08T08:49:06Z</time>
      </trkpt>
      <trkpt lat="48.99857" lon="1.06416">
        <ele>78</ele>
        <time>2011-05-08T08:49:07Z</time>
      </trkpt>
      <trkpt lat="48.99848" lon="1.06461">
        <ele>77.52</ele>
        <time>2011-05-08T08:49:12Z</time>
      </trkpt>
      <trkpt lat="48.99844" lon="1.06487">
        <ele>79.93</ele>
        <time>2011-05-08T08:49:15Z</time>
      </trkpt>
      <trkpt lat="48.99836" lon="1.06551">
        <ele>80.41</ele>
        <time>2011-05-08T08:49:22Z</time>
      </trkpt>
      <trkpt lat="48.99834" lon="1.0657">
        <ele>76.56</ele>
        <time>2011-05-08T08:49:24Z</time>
      </trkpt>
      <trkpt lat="48.99833" lon="1.06579">
        <ele>82.33</ele>
        <time>2011-05-08T08:49:25Z</time>
      </trkpt>
      <trkpt lat="48.99832" lon="1.06588">
        <ele>78.97</ele>
        <time>2011-05-08T08:49:26Z</time>
      </trkpt>
      <trkpt lat="48.9983" lon="1.06626">
        <ele>79.93</ele>
        <time>2011-05-08T08:49:30Z</time>
      </trkpt>
      <trkpt lat="48.99828" lon="1.06663">
        <ele>76.56</ele>
        <time>2011-05-08T08:49:34Z</time>
      </trkpt>
      <trkpt lat="48.99828" lon="1.06672">
        <ele>79.93</ele>
        <time>2011-05-08T08:49:35Z</time>
      </trkpt>
      <trkpt lat="48.99828" lon="1.06791">
        <ele>76.08</ele>
        <time>2011-05-08T08:49:48Z</time>
      </trkpt>
      <trkpt lat="48.99828" lon="1.06837">
        <ele>79.45</ele>
        <time>2011-05-08T08:49:53Z</time>
      </trkpt>
      <trkpt lat="48.99828" lon="1.0692">
        <ele>76.08</ele>
        <time>2011-05-08T08:50:02Z</time>
      </trkpt>
      <trkpt lat="48.99829" lon="1.06939">
        <ele>80.89</ele>
        <time>2011-05-08T08:50:04Z</time>
      </trkpt>
      <trkpt lat="48.99829" lon="1.07004">
        <ele>77.52</ele>
        <time>2011-05-08T08:50:11Z</time>
      </trkpt>
      <trkpt lat="48.99829" lon="1.07098">
        <ele>81.85</ele>
        <time>2011-05-08T08:50:21Z</time>
      </trkpt>
      <trkpt lat="48.99829" lon="1.07108">
        <ele>77.04</ele>
        <time>2011-05-08T08:50:22Z</time>
      </trkpt>
      <trkpt lat="48.99829" lon="1.07183">
        <ele>80.41</ele>
        <time>2011-05-08T08:50:30Z</time>
      </trkpt>
      <trkpt lat="48.9983" lon="1.07284">
        <ele>78</ele>
        <time>2011-05-08T08:50:42Z</time>
      </trkpt>
      <trkpt lat="48.99828" lon="1.07299">
        <ele>79.93</ele>
        <time>2011-05-08T08:50:44Z</time>
      </trkpt>
      <trkpt lat="48.99827" lon="1.07307">
        <ele>82.81</ele>
        <time>2011-05-08T08:50:45Z</time>
      </trkpt>
      <trkpt lat="48.99828" lon="1.0735">
        <ele>81.37</ele>
        <time>2011-05-08T08:50:51Z</time>
      </trkpt>
      <trkpt lat="48.99839" lon="1.07374">
        <ele>78.97</ele>
        <time>2011-05-08T08:50:56Z</time>
      </trkpt>
      <trkpt lat="48.99878" lon="1.07398">
        <ele>80.89</ele>
        <time>2011-05-08T08:51:11Z</time>
      </trkpt>
      <trkpt lat="48.99887" lon="1.07404">
        <ele>81.37</ele>
        <time>2011-05-08T08:51:15Z</time>
      </trkpt>
      <trkpt lat="48.99892" lon="1.07408">
        <ele>86.18</ele>
        <time>2011-05-08T08:51:18Z</time>
      </trkpt>
      <trkpt lat="48.99894" lon="1.0741">
        <ele>84.25</ele>
        <time>2011-05-08T08:51:19Z</time>
      </trkpt>
      <trkpt lat="48.99897" lon="1.07412">
        <ele>82.81</ele>
        <time>2011-05-08T08:51:21Z</time>
      </trkpt>
      <trkpt lat="48.99906" lon="1.0742">
        <ele>86.18</ele>
        <time>2011-05-08T08:51:26Z</time>
      </trkpt>
      <trkpt lat="48.99908" lon="1.07421">
        <ele>83.29</ele>
        <time>2011-05-08T08:51:27Z</time>
      </trkpt>
      <trkpt lat="48.99912" lon="1.07424">
        <ele>87.62</ele>
        <time>2011-05-08T08:51:29Z</time>
      </trkpt>
      <trkpt lat="48.99917" lon="1.07428">
        <ele>84.25</ele>
        <time>2011-05-08T08:51:32Z</time>
      </trkpt>
      <trkpt lat="48.99918" lon="1.07429">
        <ele>87.62</ele>
        <time>2011-05-08T08:51:33Z</time>
      </trkpt>
      <trkpt lat="48.99929" lon="1.07435">
        <ele>86.18</ele>
        <time>2011-05-08T08:51:38Z</time>
      </trkpt>
      <trkpt lat="48.99936" lon="1.07438">
        <ele>88.1</ele>
        <time>2011-05-08T08:51:42Z</time>
      </trkpt>
      <trkpt lat="48.99955" lon="1.07441">
        <ele>88.58</ele>
        <time>2011-05-08T08:51:52Z</time>
      </trkpt>
      <trkpt lat="48.99969" lon="1.07441">
        <ele>89.54</ele>
        <time>2011-05-08T08:52:00Z</time>
      </trkpt>
      <trkpt lat="48.99972" lon="1.07441">
        <ele>90.02</ele>
        <time>2011-05-08T08:52:02Z</time>
      </trkpt>
      <trkpt lat="48.99982" lon="1.07443">
        <ele>89.06</ele>
        <time>2011-05-08T08:52:07Z</time>
      </trkpt>
      <trkpt lat="48.99999" lon="1.07447">
        <ele>90.5</ele>
        <time>2011-05-08T08:52:16Z</time>
      </trkpt>
      <trkpt lat="49.00005" lon="1.07444">
        <ele>96.75</ele>
        <time>2011-05-08T08:52:19Z</time>
      </trkpt>
      <trkpt lat="49.00007" lon="1.07443">
        <ele>93.39</ele>
        <time>2011-05-08T08:52:20Z</time>
      </trkpt>
      <trkpt lat="49.00012" lon="1.07445">
        <ele>94.35</ele>
        <time>2011-05-08T08:52:25Z</time>
      </trkpt>
      <trkpt lat="49.00013" lon="1.07445">
        <ele>92.9</ele>
        <time>2011-05-08T08:52:26Z</time>
      </trkpt>
      <trkpt lat="49.00017" lon="1.07443">
        <ele>91.94</ele>
        <time>2011-05-08T08:52:28Z</time>
      </trkpt>
      <trkpt lat="49.00028" lon="1.07432">
        <ele>94.35</ele>
        <time>2011-05-08T08:52:31Z</time>
      </trkpt>
      <trkpt lat="49.00036" lon="1.07416">
        <ele>93.87</ele>
        <time>2011-05-08T08:52:34Z</time>
      </trkpt>
      <trkpt lat="49.00038" lon="1.07393">
        <ele>95.79</ele>
        <time>2011-05-08T08:52:43Z</time>
      </trkpt>
      <trkpt lat="49.00038" lon="1.07388">
        <ele>94.83</ele>
        <time>2011-05-08T08:52:44Z</time>
      </trkpt>
      <trkpt lat="49.00035" lon="1.07373">
        <ele>94.83</ele>
        <time>2011-05-08T08:52:49Z</time>
      </trkpt>
      <trkpt lat="49.00034" lon="1.07367">
        <ele>96.75</ele>
        <time>2011-05-08T08:52:51Z</time>
      </trkpt>
      <trkpt lat="49.00031" lon="1.07358">
        <ele>97.71</ele>
        <time>2011-05-08T08:52:55Z</time>
      </trkpt>
      <trkpt lat="49.00017" lon="1.0733">
        <ele>101.56</ele>
        <time>2011-05-08T08:53:08Z</time>
      </trkpt>
      <trkpt lat="49.00016" lon="1.07328">
        <ele>97.71</ele>
        <time>2011-05-08T08:53:09Z</time>
      </trkpt>
      <trkpt lat="49.00015" lon="1.07326">
        <ele>102.04</ele>
        <time>2011-05-08T08:53:10Z</time>
      </trkpt>
      <trkpt lat="49.00013" lon="1.07325">
        <ele>102.52</ele>
        <time>2011-05-08T08:53:11Z</time>
      </trkpt>
      <trkpt lat="49.00009" lon="1.07325">
        <ele>98.19</ele>
        <time>2011-05-08T08:53:13Z</time>
      </trkpt>
      <trkpt lat="49.00007" lon="1.07325">
        <ele>101.56</ele>
        <time>2011-05-08T08:53:14Z</time>
      </trkpt>
      <trkpt lat="49.00004" lon="1.07311">
        <ele>100.11</ele>
        <time>2011-05-08T08:53:22Z</time>
      </trkpt>
      <trkpt lat="49.00001" lon="1.07285">
        <ele>102.04</ele>
        <time>2011-05-08T08:53:34Z</time>
      </trkpt>
      <trkpt lat="49.00001" lon="1.07281">
        <ele>105.88</ele>
        <time>2011-05-08T08:53:35Z</time>
      </trkpt>
      <trkpt lat="49.00004" lon="1.07272">
        <ele>105.88</ele>
        <time>2011-05-08T08:53:39Z</time>
      </trkpt>
      <trkpt lat="49.00006" lon="1.07268">
        <ele>103.48</ele>
        <time>2011-05-08T08:53:41Z</time>
      </trkpt>
      <trkpt lat="49.00008" lon="1.07259">
        <ele>107.81</ele>
        <time>2011-05-08T08:53:45Z</time>
      </trkpt>
      <trkpt lat="49.00014" lon="1.0725">
        <ele>107.32</ele>
        <time>2011-05-08T08:53:50Z</time>
      </trkpt>
      <trkpt lat="49.00017" lon="1.07247">
        <ele>105.88</ele>
        <time>2011-05-08T08:53:52Z</time>
      </trkpt>
      <trkpt lat="49.00018" lon="1.07243">
        <ele>105.88</ele>
        <time>2011-05-08T08:53:54Z</time>
      </trkpt>
      <trkpt lat="49.00019" lon="1.07239">
        <ele>109.73</ele>
        <time>2011-05-08T08:53:56Z</time>
      </trkpt>
      <trkpt lat="49.00022" lon="1.07235">
        <ele>106.36</ele>
        <time>2011-05-08T08:53:58Z</time>
      </trkpt>
      <trkpt lat="49.00025" lon="1.07232">
        <ele>107.81</ele>
        <time>2011-05-08T08:54:00Z</time>
      </trkpt>
      <trkpt lat="49.0003" lon="1.07225">
        <ele>111.17</ele>
        <time>2011-05-08T08:54:05Z</time>
      </trkpt>
      <trkpt lat="49.00031" lon="1.07222">
        <ele>108.77</ele>
        <time>2011-05-08T08:54:07Z</time>
      </trkpt>
      <trkpt lat="49.00031" lon="1.0722">
        <ele>107.81</ele>
        <time>2011-05-08T08:54:08Z</time>
      </trkpt>
      <trkpt lat="49.00032" lon="1.07217">
        <ele>109.73</ele>
        <time>2011-05-08T08:54:10Z</time>
      </trkpt>
      <trkpt lat="49.00033" lon="1.07214">
        <ele>110.69</ele>
        <time>2011-05-08T08:54:12Z</time>
      </trkpt>
      <trkpt lat="49.00035" lon="1.07211">
        <ele>111.65</ele>
        <time>2011-05-08T08:54:15Z</time>
      </trkpt>
      <trkpt lat="49.00036" lon="1.0721">
        <ele>107.81</ele>
        <time>2011-05-08T08:54:16Z</time>
      </trkpt>
      <trkpt lat="49.00036" lon="1.07208">
        <ele>109.25</ele>
        <time>2011-05-08T08:54:17Z</time>
      </trkpt>
      <trkpt lat="49.00037" lon="1.07208">
        <ele>113.57</ele>
        <time>2011-05-08T08:54:18Z</time>
      </trkpt>
      <trkpt lat="49.0004" lon="1.07206">
        <ele>111.17</ele>
        <time>2011-05-08T08:54:19Z</time>
      </trkpt>
      <trkpt lat="49.00046" lon="1.07203">
        <ele>111.65</ele>
        <time>2011-05-08T08:54:24Z</time>
      </trkpt>
      <trkpt lat="49.00048" lon="1.07201">
        <ele>110.69</ele>
        <time>2011-05-08T08:54:25Z</time>
      </trkpt>
      <trkpt lat="49.00058" lon="1.07193">
        <ele>111.65</ele>
        <time>2011-05-08T08:54:30Z</time>
      </trkpt>
      <trkpt lat="49.0006" lon="1.07189">
        <ele>115.01</ele>
        <time>2011-05-08T08:54:32Z</time>
      </trkpt>
      <trkpt lat="49.00062" lon="1.07185">
        <ele>111.65</ele>
        <time>2011-05-08T08:54:35Z</time>
      </trkpt>
      <trkpt lat="49.00062" lon="1.07184">
        <ele>116.94</ele>
        <time>2011-05-08T08:54:36Z</time>
      </trkpt>
      <trkpt lat="49.00063" lon="1.07179">
        <ele>115.98</ele>
        <time>2011-05-08T08:54:39Z</time>
      </trkpt>
      <trkpt lat="49.00064" lon="1.07171">
        <ele>114.53</ele>
        <time>2011-05-08T08:54:42Z</time>
      </trkpt>
      <trkpt lat="49.00064" lon="1.07165">
        <ele>119.34</ele>
        <time>2011-05-08T08:54:44Z</time>
      </trkpt>
      <trkpt lat="49.00064" lon="1.07162">
        <ele>116.94</ele>
        <time>2011-05-08T08:54:45Z</time>
      </trkpt>
      <trkpt lat="49.00062" lon="1.07147">
        <ele>114.05</ele>
        <time>2011-05-08T08:54:52Z</time>
      </trkpt>
      <trkpt lat="49.00062" lon="1.07144">
        <ele>115.98</ele>
        <time>2011-05-08T08:54:54Z</time>
      </trkpt>
      <trkpt lat="49.00063" lon="1.07141">
        <ele>116.94</ele>
        <time>2011-05-08T08:54:56Z</time>
      </trkpt>
      <trkpt lat="49.00064" lon="1.07131">
        <ele>119.34</ele>
        <time>2011-05-08T08:55:00Z</time>
      </trkpt>
      <trkpt lat="49.00064" lon="1.07126">
        <ele>121.26</ele>
        <time>2011-05-08T08:55:03Z</time>
      </trkpt>
      <trkpt lat="49.00064" lon="1.07125">
        <ele>117.9</ele>
        <time>2011-05-08T08:55:04Z</time>
      </trkpt>
      <trkpt lat="49.00065" lon="1.07119">
        <ele>122.22</ele>
        <time>2011-05-08T08:55:08Z</time>
      </trkpt>
      <trkpt lat="49.00064" lon="1.07116">
        <ele>117.42</ele>
        <time>2011-05-08T08:55:09Z</time>
      </trkpt>
      <trkpt lat="49.00065" lon="1.07111">
        <ele>120.3</ele>
        <time>2011-05-08T08:55:11Z</time>
      </trkpt>
      <trkpt lat="49.00069" lon="1.07093">
        <ele>120.78</ele>
        <time>2011-05-08T08:55:19Z</time>
      </trkpt>
      <trkpt lat="49.00072" lon="1.07087">
        <ele>119.82</ele>
        <time>2011-05-08T08:55:23Z</time>
      </trkpt>
      <trkpt lat="49.00072" lon="1.0708">
        <ele>121.74</ele>
        <time>2011-05-08T08:55:26Z</time>
      </trkpt>
      <trkpt lat="49.0008" lon="1.07048">
        <ele>124.15</ele>
        <time>2011-05-08T08:55:40Z</time>
      </trkpt>
      <trkpt lat="49.00081" lon="1.07046">
        <ele>122.71</ele>
        <time>2011-05-08T08:55:41Z</time>
      </trkpt>
      <trkpt lat="49.00085" lon="1.07039">
        <ele>121.26</ele>
        <time>2011-05-08T08:55:45Z</time>
      </trkpt>
      <trkpt lat="49.00086" lon="1.07037">
        <ele>121.26</ele>
        <time>2011-05-08T08:55:46Z</time>
      </trkpt>
      <trkpt lat="49.00092" lon="1.07027">
        <ele>125.11</ele>
        <time>2011-05-08T08:55:53Z</time>
      </trkpt>
      <trkpt lat="49.00093" lon="1.07026">
        <ele>121.26</ele>
        <time>2011-05-08T08:55:54Z</time>
      </trkpt>
      <trkpt lat="49.00095" lon="1.07025">
        <ele>125.11</ele>
        <time>2011-05-08T08:55:55Z</time>
      </trkpt>
      <trkpt lat="49.00101" lon="1.0702">
        <ele>121.26</ele>
        <time>2011-05-08T08:55:59Z</time>
      </trkpt>
      <trkpt lat="49.00109" lon="1.07013">
        <ele>124.63</ele>
        <time>2011-05-08T08:56:05Z</time>
      </trkpt>
      <trkpt lat="49.00111" lon="1.07012">
        <ele>121.26</ele>
        <time>2011-05-08T08:56:06Z</time>
      </trkpt>
      <trkpt lat="49.00133" lon="1.06998">
        <ele>122.22</ele>
        <time>2011-05-08T08:56:18Z</time>
      </trkpt>
      <trkpt lat="49.00141" lon="1.06993">
        <ele>124.15</ele>
        <time>2011-05-08T08:56:23Z</time>
      </trkpt>
      <trkpt lat="49.00146" lon="1.06991">
        <ele>123.19</ele>
        <time>2011-05-08T08:56:25Z</time>
      </trkpt>
      <trkpt lat="49.00151" lon="1.06988">
        <ele>120.3</ele>
        <time>2011-05-08T08:56:27Z</time>
      </trkpt>
      <trkpt lat="49.00153" lon="1.06987">
        <ele>121.74</ele>
        <time>2011-05-08T08:56:28Z</time>
      </trkpt>
      <trkpt lat="49.00164" lon="1.06983">
        <ele>126.07</ele>
        <time>2011-05-08T08:56:32Z</time>
      </trkpt>
      <trkpt lat="49.00167" lon="1.06982">
        <ele>124.63</ele>
        <time>2011-05-08T08:56:33Z</time>
      </trkpt>
      <trkpt lat="49.00213" lon="1.06965">
        <ele>124.63</ele>
        <time>2011-05-08T08:56:52Z</time>
      </trkpt>
      <trkpt lat="49.00261" lon="1.06944">
        <ele>125.59</ele>
        <time>2011-05-08T08:57:11Z</time>
      </trkpt>
      <trkpt lat="49.003" lon="1.06916">
        <ele>125.59</ele>
        <time>2011-05-08T08:57:26Z</time>
      </trkpt>
      <trkpt lat="49.00302" lon="1.06913">
        <ele>122.71</ele>
        <time>2011-05-08T08:57:27Z</time>
      </trkpt>
      <trkpt lat="49.00305" lon="1.0691">
        <ele>126.55</ele>
        <time>2011-05-08T08:57:28Z</time>
      </trkpt>
      <trkpt lat="49.00321" lon="1.06882">
        <ele>123.19</ele>
        <time>2011-05-08T08:57:35Z</time>
      </trkpt>
      <trkpt lat="49.00323" lon="1.06879">
        <ele>123.19</ele>
        <time>2011-05-08T08:57:36Z</time>
      </trkpt>
      <trkpt lat="49.00326" lon="1.06872">
        <ele>126.55</ele>
        <time>2011-05-08T08:57:38Z</time>
      </trkpt>
      <trkpt lat="49.00328" lon="1.06869">
        <ele>126.07</ele>
        <time>2011-05-08T08:57:39Z</time>
      </trkpt>
      <trkpt lat="49.00351" lon="1.06819">
        <ele>126.07</ele>
        <time>2011-05-08T08:57:53Z</time>
      </trkpt>
      <trkpt lat="49.00356" lon="1.06811">
        <ele>124.15</ele>
        <time>2011-05-08T08:57:55Z</time>
      </trkpt>
      <trkpt lat="49.00361" lon="1.06804">
        <ele>127.51</ele>
        <time>2011-05-08T08:57:57Z</time>
      </trkpt>
      <trkpt lat="49.0037" lon="1.06795">
        <ele>126.07</ele>
        <time>2011-05-08T08:58:00Z</time>
      </trkpt>
      <trkpt lat="49.00387" lon="1.06781">
        <ele>127.03</ele>
        <time>2011-05-08T08:58:06Z</time>
      </trkpt>
      <trkpt lat="49.00393" lon="1.06776">
        <ele>128.95</ele>
        <time>2011-05-08T08:58:08Z</time>
      </trkpt>
      <trkpt lat="49.004" lon="1.06771">
        <ele>125.59</ele>
        <time>2011-05-08T08:58:10Z</time>
      </trkpt>
      <trkpt lat="49.00403" lon="1.06769">
        <ele>125.59</ele>
        <time>2011-05-08T08:58:11Z</time>
      </trkpt>
      <trkpt lat="49.00431" lon="1.06747">
        <ele>125.59</ele>
        <time>2011-05-08T08:58:20Z</time>
      </trkpt>
      <trkpt lat="49.00459" lon="1.06724">
        <ele>122.71</ele>
        <time>2011-05-08T08:58:29Z</time>
      </trkpt>
      <trkpt lat="49.00477" lon="1.06714">
        <ele>122.71</ele>
        <time>2011-05-08T08:58:37Z</time>
      </trkpt>
      <trkpt lat="49.00481" lon="1.06712">
        <ele>126.07</ele>
        <time>2011-05-08T08:58:40Z</time>
      </trkpt>
      <trkpt lat="49.00481" lon="1.06712">
        <ele>122.22</ele>
        <time>2011-05-08T08:58:41Z</time>
      </trkpt>
      <trkpt lat="49.00481" lon="1.06712">
        <ele>125.59</ele>
        <time>2011-05-08T08:58:43Z</time>
      </trkpt>
      <trkpt lat="49.00481" lon="1.06712">
        <ele>120.78</ele>
        <time>2011-05-08T08:58:48Z</time>
      </trkpt>
      <trkpt lat="49.00481" lon="1.06713">
        <ele>125.59</ele>
        <time>2011-05-08T08:58:52Z</time>
      </trkpt>
      <trkpt lat="49.00482" lon="1.06712">
        <ele>122.22</ele>
        <time>2011-05-08T08:58:56Z</time>
      </trkpt>
      <trkpt lat="49.00509" lon="1.06699">
        <ele>120.3</ele>
        <time>2011-05-08T08:59:03Z</time>
      </trkpt>
      <trkpt lat="49.00573" lon="1.06677">
        <ele>121.26</ele>
        <time>2011-05-08T08:59:16Z</time>
      </trkpt>
      <trkpt lat="49.00592" lon="1.06672">
        <ele>117.9</ele>
        <time>2011-05-08T08:59:20Z</time>
      </trkpt>
      <trkpt lat="49.00602" lon="1.06669">
        <ele>122.22</ele>
        <time>2011-05-08T08:59:22Z</time>
      </trkpt>
      <trkpt lat="49.00616" lon="1.06663">
        <ele>120.3</ele>
        <time>2011-05-08T08:59:25Z</time>
      </trkpt>
      <trkpt lat="49.00641" lon="1.06654">
        <ele>124.15</ele>
        <time>2011-05-08T08:59:30Z</time>
      </trkpt>
      <trkpt lat="49.0065" lon="1.06652">
        <ele>123.19</ele>
        <time>2011-05-08T08:59:32Z</time>
      </trkpt>
      <trkpt lat="49.00685" lon="1.06638">
        <ele>124.15</ele>
        <time>2011-05-08T08:59:40Z</time>
      </trkpt>
      <trkpt lat="49.00706" lon="1.06609">
        <ele>122.71</ele>
        <time>2011-05-08T08:59:46Z</time>
      </trkpt>
      <trkpt lat="49.00712" lon="1.06598">
        <ele>125.11</ele>
        <time>2011-05-08T08:59:48Z</time>
      </trkpt>
      <trkpt lat="49.00771" lon="1.06517">
        <ele>125.11</ele>
        <time>2011-05-08T09:00:05Z</time>
      </trkpt>
      <trkpt lat="49.00796" lon="1.06486">
        <ele>121.74</ele>
        <time>2011-05-08T09:00:11Z</time>
      </trkpt>
      <trkpt lat="49.00869" lon="1.06447">
        <ele>118.86</ele>
        <time>2011-05-08T09:00:25Z</time>
      </trkpt>
      <trkpt lat="49.00874" lon="1.06443">
        <ele>124.63</ele>
        <time>2011-05-08T09:00:26Z</time>
      </trkpt>
      <trkpt lat="49.00903" lon="1.06426">
        <ele>120.3</ele>
        <time>2011-05-08T09:00:31Z</time>
      </trkpt>
      <trkpt lat="49.00915" lon="1.06419">
        <ele>120.78</ele>
        <time>2011-05-08T09:00:33Z</time>
      </trkpt>
      <trkpt lat="49.00941" lon="1.06419">
        <ele>121.74</ele>
        <time>2011-05-08T09:00:37Z</time>
      </trkpt>
      <trkpt lat="49.0096" lon="1.06437">
        <ele>122.22</ele>
        <time>2011-05-08T09:00:40Z</time>
      </trkpt>
      <trkpt lat="49.00966" lon="1.06443">
        <ele>121.74</ele>
        <time>2011-05-08T09:00:41Z</time>
      </trkpt>
      <trkpt lat="49.00983" lon="1.06461">
        <ele>121.26</ele>
        <time>2011-05-08T09:00:44Z</time>
      </trkpt>
      <trkpt lat="49.00996" lon="1.0647">
        <ele>119.82</ele>
        <time>2011-05-08T09:00:46Z</time>
      </trkpt>
      <trkpt lat="49.01011" lon="1.06471">
        <ele>118.38</ele>
        <time>2011-05-08T09:00:48Z</time>
      </trkpt>
      <trkpt lat="49.01026" lon="1.06467">
        <ele>117.42</ele>
        <time>2011-05-08T09:00:50Z</time>
      </trkpt>
      <trkpt lat="49.01042" lon="1.06464">
        <ele>116.46</ele>
        <time>2011-05-08T09:00:52Z</time>
      </trkpt>
      <trkpt lat="49.01072" lon="1.06474">
        <ele>117.42</ele>
        <time>2011-05-08T09:00:56Z</time>
      </trkpt>
      <trkpt lat="49.01142" lon="1.06552">
        <ele>115.5</ele>
        <time>2011-05-08T09:01:07Z</time>
      </trkpt>
      <trkpt lat="49.01159" lon="1.06579">
        <ele>114.05</ele>
        <time>2011-05-08T09:01:10Z</time>
      </trkpt>
      <trkpt lat="49.01167" lon="1.06628">
        <ele>113.57</ele>
        <time>2011-05-08T09:01:14Z</time>
      </trkpt>
      <trkpt lat="49.01162" lon="1.06682">
        <ele>116.94</ele>
        <time>2011-05-08T09:01:19Z</time>
      </trkpt>
      <trkpt lat="49.01163" lon="1.06703">
        <ele>119.82</ele>
        <time>2011-05-08T09:01:21Z</time>
      </trkpt>
      <trkpt lat="49.01167" lon="1.06723">
        <ele>116.46</ele>
        <time>2011-05-08T09:01:23Z</time>
      </trkpt>
      <trkpt lat="49.0117" lon="1.06733">
        <ele>116.94</ele>
        <time>2011-05-08T09:01:24Z</time>
      </trkpt>
      <trkpt lat="49.01188" lon="1.06792">
        <ele>117.9</ele>
        <time>2011-05-08T09:01:30Z</time>
      </trkpt>
      <trkpt lat="49.01201" lon="1.06896">
        <ele>115.5</ele>
        <time>2011-05-08T09:01:40Z</time>
      </trkpt>
      <trkpt lat="49.01203" lon="1.06938">
        <ele>120.3</ele>
        <time>2011-05-08T09:01:44Z</time>
      </trkpt>
      <trkpt lat="49.01203" lon="1.06948">
        <ele>115.98</ele>
        <time>2011-05-08T09:01:45Z</time>
      </trkpt>
      <trkpt lat="49.01221" lon="1.07145">
        <ele>117.42</ele>
        <time>2011-05-08T09:02:05Z</time>
      </trkpt>
      <trkpt lat="49.01232" lon="1.07213">
        <ele>117.9</ele>
        <time>2011-05-08T09:02:12Z</time>
      </trkpt>
      <trkpt lat="49.01242" lon="1.07278">
        <ele>117.42</ele>
        <time>2011-05-08T09:02:19Z</time>
      </trkpt>
      <trkpt lat="49.01254" lon="1.07353">
        <ele>121.26</ele>
        <time>2011-05-08T09:02:27Z</time>
      </trkpt>
      <trkpt lat="49.01258" lon="1.07381">
        <ele>116.94</ele>
        <time>2011-05-08T09:02:30Z</time>
      </trkpt>
      <trkpt lat="49.01263" lon="1.07416">
        <ele>119.82</ele>
        <time>2011-05-08T09:02:34Z</time>
      </trkpt>
      <trkpt lat="49.01264" lon="1.07425">
        <ele>119.82</ele>
        <time>2011-05-08T09:02:35Z</time>
      </trkpt>
      <trkpt lat="49.01282" lon="1.07543">
        <ele>120.78</ele>
        <time>2011-05-08T09:02:50Z</time>
      </trkpt>
      <trkpt lat="49.01292" lon="1.07575">
        <ele>121.74</ele>
        <time>2011-05-08T09:02:55Z</time>
      </trkpt>
      <trkpt lat="49.01311" lon="1.07604">
        <ele>121.74</ele>
        <time>2011-05-08T09:03:01Z</time>
      </trkpt>
      <trkpt lat="49.01315" lon="1.07615">
        <ele>120.78</ele>
        <time>2011-05-08T09:03:03Z</time>
      </trkpt>
      <trkpt lat="49.01325" lon="1.07691">
        <ele>127.03</ele>
        <time>2011-05-08T09:03:16Z</time>
      </trkpt>
      <trkpt lat="49.01326" lon="1.07696">
        <ele>126.07</ele>
        <time>2011-05-08T09:03:17Z</time>
      </trkpt>
      <trkpt lat="49.01333" lon="1.07732">
        <ele>126.07</ele>
        <time>2011-05-08T09:03:24Z</time>
      </trkpt>
      <trkpt lat="49.01342" lon="1.07799">
        <ele>130.4</ele>
        <time>2011-05-08T09:03:37Z</time>
      </trkpt>
      <trkpt lat="49.01343" lon="1.07804">
        <ele>127.51</ele>
        <time>2011-05-08T09:03:38Z</time>
      </trkpt>
      <trkpt lat="49.01358" lon="1.0789">
        <ele>128.95</ele>
        <time>2011-05-08T09:03:53Z</time>
      </trkpt>
      <trkpt lat="49.01361" lon="1.07901">
        <ele>127.03</ele>
        <time>2011-05-08T09:03:55Z</time>
      </trkpt>
      <trkpt lat="49.01362" lon="1.07907">
        <ele>130.88</ele>
        <time>2011-05-08T09:03:56Z</time>
      </trkpt>
      <trkpt lat="49.01363" lon="1.07914">
        <ele>127.99</ele>
        <time>2011-05-08T09:03:57Z</time>
      </trkpt>
      <trkpt lat="49.01369" lon="1.07956">
        <ele>124.63</ele>
        <time>2011-05-08T09:04:03Z</time>
      </trkpt>
      <trkpt lat="49.0137" lon="1.07964">
        <ele>126.07</ele>
        <time>2011-05-08T09:04:04Z</time>
      </trkpt>
      <trkpt lat="49.01371" lon="1.07972">
        <ele>128.95</ele>
        <time>2011-05-08T09:04:05Z</time>
      </trkpt>
      <trkpt lat="49.01373" lon="1.0798">
        <ele>128.47</ele>
        <time>2011-05-08T09:04:06Z</time>
      </trkpt>
      <trkpt lat="49.01382" lon="1.08022">
        <ele>125.11</ele>
        <time>2011-05-08T09:04:11Z</time>
      </trkpt>
      <trkpt lat="49.01385" lon="1.0803">
        <ele>129.43</ele>
        <time>2011-05-08T09:04:12Z</time>
      </trkpt>
      <trkpt lat="49.01395" lon="1.08055">
        <ele>122.22</ele>
        <time>2011-05-08T09:04:15Z</time>
      </trkpt>
      <trkpt lat="49.01399" lon="1.08064">
        <ele>127.03</ele>
        <time>2011-05-08T09:04:16Z</time>
      </trkpt>
      <trkpt lat="49.01414" lon="1.0813">
        <ele>122.71</ele>
        <time>2011-05-08T09:04:22Z</time>
      </trkpt>
      <trkpt lat="49.01441" lon="1.08268">
        <ele>121.74</ele>
        <time>2011-05-08T09:04:33Z</time>
      </trkpt>
      <trkpt lat="49.01457" lon="1.08346">
        <ele>125.11</ele>
        <time>2011-05-08T09:04:39Z</time>
      </trkpt>
      <trkpt lat="49.01459" lon="1.08359">
        <ele>121.26</ele>
        <time>2011-05-08T09:04:40Z</time>
      </trkpt>
      <trkpt lat="49.01464" lon="1.08385">
        <ele>125.11</ele>
        <time>2011-05-08T09:04:42Z</time>
      </trkpt>
      <trkpt lat="49.01474" lon="1.08435">
        <ele>122.71</ele>
        <time>2011-05-08T09:04:46Z</time>
      </trkpt>
      <trkpt lat="49.01481" lon="1.08472">
        <ele>119.82</ele>
        <time>2011-05-08T09:04:49Z</time>
      </trkpt>
      <trkpt lat="49.01489" lon="1.08509">
        <ele>121.74</ele>
        <time>2011-05-08T09:04:52Z</time>
      </trkpt>
      <trkpt lat="49.01499" lon="1.08558">
        <ele>117.9</ele>
        <time>2011-05-08T09:04:56Z</time>
      </trkpt>
      <trkpt lat="49.01501" lon="1.0857">
        <ele>117.9</ele>
        <time>2011-05-08T09:04:57Z</time>
      </trkpt>
      <trkpt lat="49.01508" lon="1.08606">
        <ele>120.3</ele>
        <time>2011-05-08T09:05:00Z</time>
      </trkpt>
      <trkpt lat="49.01558" lon="1.08804">
        <ele>118.38</ele>
        <time>2011-05-08T09:05:18Z</time>
      </trkpt>
      <trkpt lat="49.01567" lon="1.08821">
        <ele>122.22</ele>
        <time>2011-05-08T09:05:20Z</time>
      </trkpt>
      <trkpt lat="49.01589" lon="1.08848">
        <ele>118.38</ele>
        <time>2011-05-08T09:05:24Z</time>
      </trkpt>
      <trkpt lat="49.01599" lon="1.08861">
        <ele>119.82</ele>
        <time>2011-05-08T09:05:26Z</time>
      </trkpt>
      <trkpt lat="49.01609" lon="1.08884">
        <ele>121.26</ele>
        <time>2011-05-08T09:05:29Z</time>
      </trkpt>
      <trkpt lat="49.01612" lon="1.08904">
        <ele>121.26</ele>
        <time>2011-05-08T09:05:31Z</time>
      </trkpt>
      <trkpt lat="49.01615" lon="1.09086">
        <ele>121.26</ele>
        <time>2011-05-08T09:05:51Z</time>
      </trkpt>
      <trkpt lat="49.01619" lon="1.09169">
        <ele>125.11</ele>
        <time>2011-05-08T09:06:01Z</time>
      </trkpt>
      <trkpt lat="49.01621" lon="1.09184">
        <ele>122.22</ele>
        <time>2011-05-08T09:06:03Z</time>
      </trkpt>
      <trkpt lat="49.01622" lon="1.09206">
        <ele>122.22</ele>
        <time>2011-05-08T09:06:06Z</time>
      </trkpt>
      <trkpt lat="49.01626" lon="1.09233">
        <ele>122.71</ele>
        <time>2011-05-08T09:06:10Z</time>
      </trkpt>
      <trkpt lat="49.01626" lon="1.09247">
        <ele>121.74</ele>
        <time>2011-05-08T09:06:12Z</time>
      </trkpt>
      <trkpt lat="49.01629" lon="1.09288">
        <ele>124.15</ele>
        <time>2011-05-08T09:06:18Z</time>
      </trkpt>
      <trkpt lat="49.01629" lon="1.09294">
        <ele>124.15</ele>
        <time>2011-05-08T09:06:19Z</time>
      </trkpt>
      <trkpt lat="49.01619" lon="1.09303">
        <ele>122.71</ele>
        <time>2011-05-08T09:06:23Z</time>
      </trkpt>
      <trkpt lat="49.01602" lon="1.09299">
        <ele>125.11</ele>
        <time>2011-05-08T09:06:28Z</time>
      </trkpt>
      <trkpt lat="49.01565" lon="1.09298">
        <ele>125.59</ele>
        <time>2011-05-08T09:06:41Z</time>
      </trkpt>
      <trkpt lat="49.01544" lon="1.093">
        <ele>124.63</ele>
        <time>2011-05-08T09:06:49Z</time>
      </trkpt>
      <trkpt lat="49.01541" lon="1.09319">
        <ele>120.3</ele>
        <time>2011-05-08T09:06:55Z</time>
      </trkpt>
      <trkpt lat="49.01544" lon="1.09312">
        <ele>122.22</ele>
        <time>2011-05-08T09:06:58Z</time>
      </trkpt>
      <trkpt lat="49.0154" lon="1.09301">
        <ele>121.74</ele>
        <time>2011-05-08T09:07:02Z</time>
      </trkpt>
      <trkpt lat="49.01544" lon="1.09308">
        <ele>125.59</ele>
        <time>2011-05-08T09:07:07Z</time>
      </trkpt>
      <trkpt lat="49.01539" lon="1.09309">
        <ele>121.74</ele>
        <time>2011-05-08T09:07:09Z</time>
      </trkpt>
      <trkpt lat="49.01534" lon="1.09305">
        <ele>120.3</ele>
        <time>2011-05-08T09:07:11Z</time>
      </trkpt>
      <trkpt lat="49.01519" lon="1.09282">
        <ele>119.82</ele>
        <time>2011-05-08T09:07:17Z</time>
      </trkpt>
      <trkpt lat="49.01486" lon="1.09235">
        <ele>122.71</ele>
        <time>2011-05-08T09:07:27Z</time>
      </trkpt>
      <trkpt lat="49.01479" lon="1.09225">
        <ele>118.38</ele>
        <time>2011-05-08T09:07:29Z</time>
      </trkpt>
      <trkpt lat="49.01455" lon="1.09214">
        <ele>119.82</ele>
        <time>2011-05-08T09:07:34Z</time>
      </trkpt>
      <trkpt lat="49.01444" lon="1.09224">
        <ele>118.38</ele>
        <time>2011-05-08T09:07:36Z</time>
      </trkpt>
      <trkpt lat="49.01408" lon="1.09215">
        <ele>116.94</ele>
        <time>2011-05-08T09:07:43Z</time>
      </trkpt>
      <trkpt lat="49.01406" lon="1.09205">
        <ele>117.9</ele>
        <time>2011-05-08T09:07:44Z</time>
      </trkpt>
      <trkpt lat="49.01406" lon="1.09183">
        <ele>115.98</ele>
        <time>2011-05-08T09:07:46Z</time>
      </trkpt>
      <trkpt lat="49.01372" lon="1.09137">
        <ele>117.42</ele>
        <time>2011-05-08T09:07:53Z</time>
      </trkpt>
      <trkpt lat="49.01288" lon="1.09119">
        <ele>119.34</ele>
        <time>2011-05-08T09:08:07Z</time>
      </trkpt>
      <trkpt lat="49.01272" lon="1.09118">
        <ele>119.82</ele>
        <time>2011-05-08T09:08:11Z</time>
      </trkpt>
      <trkpt lat="49.01254" lon="1.09118">
        <ele>117.9</ele>
        <time>2011-05-08T09:08:16Z</time>
      </trkpt>
      <trkpt lat="49.01234" lon="1.09123">
        <ele>120.78</ele>
        <time>2011-05-08T09:08:22Z</time>
      </trkpt>
      <trkpt lat="49.01223" lon="1.09123">
        <ele>118.86</ele>
        <time>2011-05-08T09:08:25Z</time>
      </trkpt>
      <trkpt lat="49.01217" lon="1.09123">
        <ele>120.78</ele>
        <time>2011-05-08T09:08:27Z</time>
      </trkpt>
      <trkpt lat="49.01195" lon="1.09134">
        <ele>124.15</ele>
        <time>2011-05-08T09:08:33Z</time>
      </trkpt>
      <trkpt lat="49.01186" lon="1.09139">
        <ele>121.74</ele>
        <time>2011-05-08T09:08:36Z</time>
      </trkpt>
      <trkpt lat="49.01177" lon="1.09144">
        <ele>123.67</ele>
        <time>2011-05-08T09:08:39Z</time>
      </trkpt>
      <trkpt lat="49.01148" lon="1.09163">
        <ele>127.99</ele>
        <time>2011-05-08T09:08:49Z</time>
      </trkpt>
      <trkpt lat="49.01145" lon="1.09164">
        <ele>127.99</ele>
        <time>2011-05-08T09:08:50Z</time>
      </trkpt>
      <trkpt lat="49.01136" lon="1.09167">
        <ele>124.63</ele>
        <time>2011-05-08T09:08:53Z</time>
      </trkpt>
      <trkpt lat="49.0112" lon="1.09168">
        <ele>127.99</ele>
        <time>2011-05-08T09:08:59Z</time>
      </trkpt>
      <trkpt lat="49.0111" lon="1.09161">
        <ele>131.36</ele>
        <time>2011-05-08T09:09:03Z</time>
      </trkpt>
      <trkpt lat="49.01109" lon="1.09158">
        <ele>128.47</ele>
        <time>2011-05-08T09:09:04Z</time>
      </trkpt>
      <trkpt lat="49.011" lon="1.09115">
        <ele>124.15</ele>
        <time>2011-05-08T09:09:15Z</time>
      </trkpt>
      <trkpt lat="49.011" lon="1.09109">
        <ele>127.51</ele>
        <time>2011-05-08T09:09:16Z</time>
      </trkpt>
      <trkpt lat="49.01107" lon="1.09032">
        <ele>125.59</ele>
        <time>2011-05-08T09:09:26Z</time>
      </trkpt>
      <trkpt lat="49.01101" lon="1.08986">
        <ele>125.59</ele>
        <time>2011-05-08T09:09:31Z</time>
      </trkpt>
      <trkpt lat="49.01025" lon="1.08855">
        <ele>126.07</ele>
        <time>2011-05-08T09:09:51Z</time>
      </trkpt>
      <trkpt lat="49.01003" lon="1.08824">
        <ele>125.11</ele>
        <time>2011-05-08T09:09:56Z</time>
      </trkpt>
      <trkpt lat="49.00974" lon="1.08806">
        <ele>126.55</ele>
        <time>2011-05-08T09:10:02Z</time>
      </trkpt>
      <trkpt lat="49.00966" lon="1.08795">
        <ele>125.59</ele>
        <time>2011-05-08T09:10:04Z</time>
      </trkpt>
      <trkpt lat="49.00947" lon="1.08785">
        <ele>128.95</ele>
        <time>2011-05-08T09:10:08Z</time>
      </trkpt>
      <trkpt lat="49.00932" lon="1.08788">
        <ele>127.03</ele>
        <time>2011-05-08T09:10:11Z</time>
      </trkpt>
      <trkpt lat="49.00844" lon="1.0879">
        <ele>127.51</ele>
        <time>2011-05-08T09:10:31Z</time>
      </trkpt>
      <trkpt lat="49.00836" lon="1.08777">
        <ele>127.51</ele>
        <time>2011-05-08T09:10:35Z</time>
      </trkpt>
      <trkpt lat="49.00824" lon="1.08746">
        <ele>127.51</ele>
        <time>2011-05-08T09:10:43Z</time>
      </trkpt>
      <trkpt lat="49.00821" lon="1.08739">
        <ele>127.03</ele>
        <time>2011-05-08T09:10:46Z</time>
      </trkpt>
      <trkpt lat="49.00819" lon="1.08737">
        <ele>126.55</ele>
        <time>2011-05-08T09:11:04Z</time>
      </trkpt>
      <trkpt lat="49.00819" lon="1.08737">
        <ele>128.95</ele>
        <time>2011-05-08T09:11:05Z</time>
      </trkpt>
      <trkpt lat="49.00793" lon="1.08735">
        <ele>126.55</ele>
        <time>2011-05-08T09:11:14Z</time>
      </trkpt>
      <trkpt lat="49.00718" lon="1.08783">
        <ele>124.63</ele>
        <time>2011-05-08T09:11:31Z</time>
      </trkpt>
      <trkpt lat="49.00703" lon="1.08794">
        <ele>126.55</ele>
        <time>2011-05-08T09:11:34Z</time>
      </trkpt>
      <trkpt lat="49.00698" lon="1.08797">
        <ele>125.11</ele>
        <time>2011-05-08T09:11:35Z</time>
      </trkpt>
      <trkpt lat="49.00591" lon="1.08859">
        <ele>125.11</ele>
        <time>2011-05-08T09:11:56Z</time>
      </trkpt>
      <trkpt lat="49.00577" lon="1.08868">
        <ele>127.51</ele>
        <time>2011-05-08T09:11:59Z</time>
      </trkpt>
      <trkpt lat="49.00465" lon="1.08934">
        <ele>127.03</ele>
        <time>2011-05-08T09:12:19Z</time>
      </trkpt>
      <trkpt lat="49.00443" lon="1.08947">
        <ele>125.59</ele>
        <time>2011-05-08T09:12:22Z</time>
      </trkpt>
      <trkpt lat="49.00386" lon="1.08981">
        <ele>122.22</ele>
        <time>2011-05-08T09:12:30Z</time>
      </trkpt>
      <trkpt lat="49.00379" lon="1.08985">
        <ele>123.67</ele>
        <time>2011-05-08T09:12:31Z</time>
      </trkpt>
      <trkpt lat="49.0032" lon="1.09021">
        <ele>124.63</ele>
        <time>2011-05-08T09:12:40Z</time>
      </trkpt>
      <trkpt lat="49.00304" lon="1.09025">
        <ele>122.71</ele>
        <time>2011-05-08T09:12:43Z</time>
      </trkpt>
      <trkpt lat="49.003" lon="1.09026">
        <ele>120.78</ele>
        <time>2011-05-08T09:12:44Z</time>
      </trkpt>
      <trkpt lat="49.00254" lon="1.09083">
        <ele>118.38</ele>
        <time>2011-05-08T09:12:53Z</time>
      </trkpt>
      <trkpt lat="49.00237" lon="1.09064">
        <ele>115.98</ele>
        <time>2011-05-08T09:12:56Z</time>
      </trkpt>
      <trkpt lat="49.00222" lon="1.09029">
        <ele>119.34</ele>
        <time>2011-05-08T09:13:00Z</time>
      </trkpt>
      <trkpt lat="49.00213" lon="1.09005">
        <ele>118.38</ele>
        <time>2011-05-08T09:13:03Z</time>
      </trkpt>
      <trkpt lat="49.00208" lon="1.08982">
        <ele>119.82</ele>
        <time>2011-05-08T09:13:06Z</time>
      </trkpt>
      <trkpt lat="49.00208" lon="1.08975">
        <ele>119.82</ele>
        <time>2011-05-08T09:13:07Z</time>
      </trkpt>
      <trkpt lat="49.00224" lon="1.08946">
        <ele>119.82</ele>
        <time>2011-05-08T09:13:13Z</time>
      </trkpt>
      <trkpt lat="49.0024" lon="1.08946">
        <ele>118.86</ele>
        <time>2011-05-08T09:13:16Z</time>
      </trkpt>
      <trkpt lat="49.00251" lon="1.08932">
        <ele>118.86</ele>
        <time>2011-05-08T09:13:20Z</time>
      </trkpt>
      <trkpt lat="49.00251" lon="1.08927">
        <ele>118.86</ele>
        <time>2011-05-08T09:13:21Z</time>
      </trkpt>
      <trkpt lat="49.0025" lon="1.0892">
        <ele>120.3</ele>
        <time>2011-05-08T09:13:23Z</time>
      </trkpt>
      <trkpt lat="49.00248" lon="1.08916">
        <ele>122.22</ele>
        <time>2011-05-08T09:13:32Z</time>
      </trkpt>
      <trkpt lat="49.00249" lon="1.08915">
        <ele>118.86</ele>
        <time>2011-05-08T09:13:33Z</time>
      </trkpt>
      <trkpt lat="49.00249" lon="1.08915">
        <ele>119.34</ele>
        <time>2011-05-08T09:13:34Z</time>
      </trkpt>
      <trkpt lat="49.00249" lon="1.08915">
        <ele>120.3</ele>
        <time>2011-05-08T09:13:36Z</time>
      </trkpt>
      <trkpt lat="49.00249" lon="1.08915">
        <ele>120.3</ele>
        <time>2011-05-08T09:13:38Z</time>
      </trkpt>
    </trkseg>
  </trk>
</gpx>